[[{"header":{"parameterUnit":"m.s-1","parameterCategory":1,"la1":31.0,"la2":29.5877,"lo1":-88.7671,"lo2":-86.6584,"dy":0.0162,"dx":0.0185,"nx":115,"ny":88,"refTime":"2023-06-02T06:00:00:Z","depth":0,"parameterNumber":2,"parameterNumberName":"U-component_of_WINDS"},"data":[0.0,0.0,0.0,0.0,0.0,0.0,0.0,0.0,0.0,0.0,0.0,0.0,0.0,0.0,0.0,0.0,0.0,0.0,0.0,0.0,0.0,0.0,0.0,0.0,0.0,0.0,0.0,0.0,0.0,0.0,0.0,0.0,0.0,0.0,0.0,0.0,0.0,0.0,0.0,0.0,0.0,0.0,0.0,0.0,0.0,0.0,0.0,0.0,0.0,0.0,0.0,0.0,0.0,0.0,0.0,0.0,0.0,0.0,0.0,0.0,0.0,0.0,0.0,0.0,0.0,0.0,0.0,0.0,0.0,0.0,0.0,0.0,0.0,0.0,0.0,0.0,0.0,0.0,0.0,0.0,0.0,0.0,0.0,0.0,0.0,0.0,0.0,0.0,0.0,0.0,0.0,0.0,0.0,0.0,0.0,0.0,0.0,0.0,0.0,0.0,0.0,0.0,0.0,0.0,0.0,0.0,0.0,0.0,0.0,0.0,0.0,0.0,0.0,0.0,0.0,0.0,0.0,0.0,0.0,0.0,0.0,0.0,0.0,0.0,0.0,0.0,0.0,0.0,0.0,0.0,0.0,0.0,0.0,0.0,0.0,0.0,0.0,0.0,0.0,0.0,0.0,0.0,0.0,0.0,0.0,0.0,0.0,0.0,0.0,0.0,0.0,0.0,0.0,0.0,0.0,0.0,0.0,0.0,0.0,0.0,0.0,0.0,0.0,0.0,0.0,0.0,0.0,0.0,0.0,0.0,0.0,0.0,0.0,0.0,0.0,0.0,0.0,0.0,0.0,0.0,0.0,0.0,0.0,0.0,0.0,0.0,0.0,0.0,0.0,0.0,0.0,0.0,0.0,0.0,0.0,0.0,0.0,0.0,0.0,0.0,0.0,0.0,0.0,0.0,0.0,0.0,0.0,0.0,0.0,0.0,0.0,0.0,0.0,0.0,0.0,0.0,0.0,0.0,0.0,0.0,0.0,0.0,0.0,0.0,0.0,0.0,0.0,0.0,0.0,0.0,0.0,0.0,0.0,0.0,0.0,0.0,0.0,0.0,0.0,0.0,0.0,0.0,0.0,0.0,0.0,0.0,0.0,0.0,0.0,0.0,0.0,0.0,0.0,0.0,0.0,0.0,0.0,0.0,0.0,0.0,0.0,0.0,0.0,0.0,0.0,0.0,0.0,0.0,0.0,0.0,0.0,0.0,0.0,0.0,0.0,0.0,0.0,0.0,0.0,0.0,0.0,0.0,0.0,0.0,0.0,0.0,0.0,0.0,0.0,0.0,0.0,0.0,0.0,0.0,0.0,0.0,0.0,0.0,0.0,0.0,0.0,0.0,0.0,0.0,0.0,0.0,0.0,0.0,0.0,0.0,0.0,0.0,0.0,0.0,0.0,0.0,0.0,0.0,0.0,0.0,0.0,0.0,0.0,0.0,0.0,0.0,0.0,0.0,0.0,0.0,0.0,0.0,0.0,0.0,0.0,0.0,0.0,0.0,0.0,0.0,0.0,0.0,0.0,0.0,0.0,0.0,0.0,0.0,0.0,0.0,0.0,0.0,0.0,0.0,0.0,0.0,0.0,0.0,0.0,0.0,0.0,0.0,0.0,0.0,0.0,0.0,0.0,0.0,0.0,0.0,0.0,0.0,0.0,0.0,0.0,0.0,0.0,0.0,0.0,0.0,0.0,0.0,0.0,0.0,0.0,0.0,0.0,0.0,0.0,0.0,0.0,0.0,0.0,0.0,0.0,0.0,0.0,0.0,0.0,0.0,0.0,0.0,0.0,0.0,0.0,0.0,0.0,0.0,0.0,0.0,0.0,0.0,0.0,0.0,0.0,0.0,0.0,0.0,0.0,0.0,0.0,0.0,0.0,0.0,0.0,0.0,0.0,0.0,0.0,0.0,0.0,0.0,0.0,0.0,0.0,0.0,0.0,0.0,0.0,0.0,0.0,0.0,0.0,0.0,0.0,0.0,0.0,0.0,0.0,0.0,0.0,0.0,0.0,0.0,0.0,0.0,0.0,0.0,0.0,0.0,0.0,0.0,0.0,0.0,0.0,0.0,0.0,0.0,0.0,0.0,0.0,0.0,0.0,0.0,0.0,0.0,0.0,0.0,0.0,0.0,0.0,0.0,0.0,0.0,0.0,0.0,0.0,0.0,0.0,0.0,0.0,0.0,0.0,0.0,0.0,0.0,0.0,0.0,0.0,0.0,0.0,0.0,0.0,0.0,0.0,0.0,0.0,0.0,0.0,0.0,0.0,0.0,0.0,0.0,0.0,0.0,0.0,0.0,0.0,0.0,0.0,0.0,0.0,0.0,0.0,0.0,0.0,0.0,0.0,0.0,0.0,0.0,0.0,0.0,0.0,0.0,0.0,0.0,0.0,0.0,0.0,0.0,0.0,0.0,0.0,0.0,0.0,0.0,0.0,0.0,0.0,0.0,0.0,0.0,0.0,0.0,0.0,0.0,0.0,0.0,0.0,0.0,0.0,0.0,0.0,0.0,0.0,0.0,0.0,0.0,0.0,0.0,0.0,0.0,0.0,0.0,0.0,0.0,0.0,0.0,0.0,0.0,0.0,0.0,0.0,0.0,0.0,0.0,0.0,0.0,0.0,0.0,0.0,0.0,0.0,0.0,0.0,0.0,0.0,0.0,0.0,0.0,0.0,0.0,0.0,0.0,0.0,0.0,0.0,0.0,0.0,0.0,0.0,0.0,0.0,0.0,0.0,0.0,0.0,0.0,0.0,0.0,0.0,0.0,0.0,0.0,0.0,0.0,0.0,0.0,0.0,0.0,0.0,0.0,0.0,0.0,0.0,0.0,0.0,0.0,0.0,0.0,0.0,0.0,0.0,0.0,0.0,0.0,0.0,0.0,0.0,0.0,0.0,0.0,0.0,0.0,0.0,0.0,0.0,0.0,0.0,0.0,0.0,0.0,0.0,0.0,0.0,0.0,0.0,0.0,0.0,0.0,0.0,0.0,0.0,0.0,0.0,0.0,0.0,0.0,0.0,0.0,0.0,0.0,0.0,0.0,0.0,0.0,0.0,0.0,0.0,0.0,0.0,0.0,0.0,0.0,0.0,0.0,0.0,0.0,0.0,0.0,0.0,0.0,0.0,0.0,0.0,0.0,0.0,0.0,0.0,0.0,0.0,0.0,0.0,0.0,0.0,0.0,0.0,0.0,0.0,0.0,0.0,0.0,0.0,0.0,0.0,0.0,0.0,0.0,0.0,0.0,0.0,0.0,0.0,0.0,0.0,0.0,0.0,0.0,0.0,0.0,0.0,0.0,0.0,0.0,0.0,0.0,0.0,0.0,0.0,0.0,0.0,0.0,0.0,0.0,0.0,0.0,0.0,0.0,0.0,0.0,0.0,0.0,0.0,0.0,0.0,0.0,0.0,0.0,0.0,0.0,0.0,0.0,0.0,0.0,0.0,0.0,0.0,0.0,0.0,0.0,0.0,0.0,0.0,0.0,0.0,0.0,0.0,0.0,0.0,0.0,0.0,0.0,0.0,0.0,0.0,0.0,0.0,0.0,0.0,0.0,0.0,0.0,0.0,0.0,0.0,0.0,0.0,0.0,0.0,0.0,0.0,0.0,0.0,0.0,0.0,0.0,0.0,0.0,0.0,0.0,0.0,0.0,0.0,0.0,0.0,0.0,0.0,0.0,0.0,0.0,0.0,0.0,0.0,0.0,0.0,0.0,0.0,0.0,0.0,0.0,0.0,0.0,0.0,0.0,0.0,0.0,0.0,0.0,0.0,0.0,0.0,0.0,0.0,0.0,0.0,0.0,0.0,0.0,0.0,0.0,0.0,0.0,0.0,0.0,0.0,0.0,0.0,0.0,0.0,0.0,0.0,0.0,0.0,0.0,0.0,0.0,0.0,0.0,0.0,0.0,0.0,0.0,0.0,0.0,0.0,0.0,0.0,0.0,0.0,0.0,0.0,0.0,0.0,0.0,0.0,0.0,0.0,0.0,0.0,0.0,0.0,0.0,0.0,0.0,0.0,0.0,0.0,0.0,0.0,0.0,0.0,0.0,0.0,0.0,0.0,0.0,0.0,0.0,0.0,0.0,0.0,0.0,0.0,0.0,0.0,0.0,0.0,0.0,0.0,0.0,0.0,0.0,0.0,0.0,0.0,0.0,0.0,0.0,0.0,0.0,0.0,0.0,0.0,0.0,0.0,0.0,0.0,0.0,0.0,0.0,0.0,0.0,0.0,0.0,0.0,0.0,0.0,0.0,0.0,0.0,0.0,0.0,0.0,0.0,1.2726,0.0,0.0,0.0,0.0,0.0,0.0,0.0,0.0,0.0,0.0,0.0,0.0,0.0,0.0,0.0,0.0,0.0,0.0,0.0,0.0,0.0,0.0,0.0,0.0,0.0,0.0,0.0,0.0,0.0,0.0,0.0,0.0,0.0,0.0,0.0,0.0,0.0,0.0,0.0,0.0,0.0,0.0,0.0,0.0,0.0,0.0,0.0,0.0,0.0,0.0,0.0,0.0,0.0,0.0,0.0,0.0,0.0,0.0,0.0,0.0,0.0,0.0,0.0,0.0,0.0,0.0,0.0,0.0,0.0,0.0,0.0,0.0,0.0,0.0,0.0,0.0,0.0,0.0,0.0,0.0,0.0,0.0,0.0,0.0,0.0,0.0,0.0,0.0,0.0,0.0,0.0,0.0,0.0,0.0,0.0,0.0,0.0,0.0,0.0,0.0,0.0,0.0,0.0,0.0,0.0,0.0,0.0,0.0,0.0,0.0,1.4243,1.425,1.4257,1.4023,1.3566,0.0,0.0,0.0,0.0,0.0,0.0,0.0,0.0,0.0,0.0,0.0,0.0,0.0,0.0,0.0,0.0,0.0,0.0,0.0,0.0,0.0,0.0,0.0,0.0,0.0,0.0,0.0,0.0,0.0,0.0,0.0,0.0,0.0,0.0,0.0,0.0,0.0,0.0,0.0,0.0,0.0,0.0,0.0,0.0,0.0,0.0,0.0,0.0,0.0,0.0,0.0,0.0,0.0,0.0,0.0,0.0,0.0,0.0,0.0,0.0,0.0,0.0,0.0,0.0,0.0,0.0,0.0,0.0,0.0,0.0,0.0,0.0,0.0,0.0,0.0,0.0,0.0,0.0,0.0,0.0,0.0,0.0,0.0,0.0,0.0,0.0,0.0,0.0,0.0,0.0,0.0,0.0,0.0,0.0,0.0,0.0,0.0,0.0,0.0,0.0,0.0,0.0,0.0,0.0,0.0,0.0,0.0,0.0,0.0,0.0,0.0,0.0,1.5409,1.5097,1.4445,0.0,0.0,0.0,0.0,0.0,0.0,0.0,0.0,0.0,0.0,0.0,0.0,0.0,0.0,0.0,0.0,0.0,0.0,0.0,0.0,0.0,0.0,0.0,0.0,0.0,0.0,0.0,0.0,0.0,0.0,0.0,0.0,0.0,0.0,0.0,0.0,0.0,0.0,0.0,0.0,0.0,0.0,0.0,0.0,0.0,0.0,0.0,0.0,0.0,0.0,0.0,0.0,0.0,0.0,0.0,0.0,0.0,0.0,0.0,0.0,0.0,0.0,0.0,0.0,0.0,0.0,0.0,0.0,0.0,0.0,0.0,0.0,0.0,0.0,0.0,0.0,0.0,0.0,0.0,0.0,0.0,0.0,0.0,0.0,0.0,0.0,0.0,0.0,0.0,0.0,0.0,0.0,0.0,0.0,0.0,0.0,0.0,0.0,0.0,0.0,0.0,0.0,0.0,0.0,0.0,0.0,0.0,0.0,0.0,0.0,1.5413,1.5421,1.5409,0.0,1.5286,0.0,0.0,0.0,0.0,0.0,0.0,0.0,0.0,0.0,0.0,0.0,0.0,0.0,0.0,0.0,0.0,0.0,0.0,0.0,0.0,0.0,0.0,0.0,0.0,0.0,0.0,0.0,0.0,0.0,0.0,0.0,0.0,0.0,0.0,0.0,0.0,0.0,0.0,0.0,0.0,0.0,0.0,0.0,0.0,0.0,0.0,0.0,0.0,0.0,0.0,0.0,0.0,0.0,0.0,0.0,0.0,0.0,0.0,0.0,0.0,0.0,0.0,0.0,0.0,0.0,0.0,0.0,0.0,0.0,0.0,0.0,0.0,0.0,0.0,0.0,0.0,0.0,0.0,0.0,0.0,0.0,0.0,0.0,0.0,0.0,0.0,0.0,0.0,0.0,0.0,0.0,0.0,0.0,0.0,0.0,0.0,0.0,0.0,0.0,0.0,0.0,0.0,0.0,0.0,0.0,0.0,0.0,0.0,0.0,0.0,1.5413,1.5402,1.541,1.5406,0.0,0.0,0.0,0.0,0.0,0.0,0.0,0.0,0.0,0.0,0.0,0.0,0.0,0.0,0.0,0.0,0.0,0.0,0.0,0.0,0.0,0.0,0.0,0.0,0.0,0.0,0.0,0.0,0.0,0.0,0.0,0.0,0.0,0.0,0.0,0.0,0.0,0.0,0.0,0.0,0.0,0.0,0.0,0.0,0.0,0.0,0.0,0.0,0.0,0.0,0.0,0.0,0.0,0.0,0.0,0.0,0.0,0.0,0.0,0.0,0.0,0.0,0.0,0.0,0.0,0.0,0.0,0.0,0.0,0.0,0.0,0.0,0.0,0.0,0.0,0.0,0.0,0.0,0.0,0.0,0.0,0.0,0.0,0.0,0.0,0.0,0.0,0.0,0.0,0.0,0.0,0.0,0.0,0.0,0.0,0.0,0.0,0.0,0.0,0.0,0.0,0.0,0.0,0.0,0.0,0.0,0.0,0.0,0.0,0.0,1.5405,1.5415,1.5405,1.541,1.5404,1.5402,0.0,0.0,0.0,0.0,0.0,0.0,0.0,0.0,0.0,0.0,0.0,0.0,0.0,0.0,0.0,0.0,0.0,0.0,0.0,0.0,0.0,0.0,0.0,0.0,0.0,0.0,0.0,0.0,0.0,0.0,0.0,0.0,0.0,0.0,0.0,0.0,0.0,0.0,0.0,0.0,0.0,0.0,0.0,0.0,0.0,0.0,0.0,0.0,0.0,0.0,0.0,0.0,0.0,0.0,0.0,0.0,0.0,0.0,0.0,0.0,0.0,0.0,0.0,0.0,0.0,0.0,0.0,0.0,0.0,0.0,0.0,0.0,0.0,0.0,0.0,0.0,0.0,0.0,0.0,0.0,0.0,0.0,0.0,0.0,0.0,0.0,0.0,0.0,0.0,0.0,0.0,0.0,0.0,0.0,0.0,0.0,0.0,0.0,0.0,0.0,0.0,0.0,0.0,0.0,0.0,0.0,0.0,0.0,1.5404,1.542,1.5418,1.5408,1.541,1.5407,0.0,0.0,0.0,0.0,0.0,0.0,0.0,0.0,0.0,0.0,0.0,0.0,0.0,0.0,0.0,0.0,0.0,0.0,0.0,0.0,0.0,0.0,0.0,0.0,0.0,0.0,0.0,0.0,0.0,0.0,0.0,0.0,0.0,0.0,0.0,0.0,0.0,0.0,0.0,0.0,0.0,0.0,0.0,0.0,0.0,0.0,0.0,0.0,0.0,0.0,0.0,0.0,0.0,0.0,0.0,0.0,0.0,0.0,0.0,0.0,0.0,0.0,0.0,0.0,0.0,0.0,0.0,0.0,0.0,0.0,0.0,0.0,0.0,0.0,0.0,0.0,0.0,0.0,0.0,0.0,0.0,0.0,0.0,0.0,0.0,0.0,0.0,0.0,0.0,0.0,0.0,0.0,0.0,0.0,0.0,0.0,0.0,0.0,0.0,0.0,0.0,0.0,0.0,0.0,0.0,0.0,0.0,0.0,0.0,1.5404,1.5403,1.5418,1.5405,1.541,1.5407,0.0,0.0,0.0,0.0,0.0,0.0,0.0,0.0,0.0,0.0,0.0,0.0,0.0,0.0,0.0,0.0,0.0,0.0,0.0,0.0,0.0,0.0,0.0,0.0,0.0,0.0,0.0,0.0,0.0,0.0,0.0,0.0,0.0,0.0,0.0,0.0,0.0,0.0,0.0,0.0,0.0,0.0,0.0,0.0,0.0,0.0,0.0,0.0,0.0,0.0,0.0,0.0,0.0,0.0,0.0,0.0,0.0,0.0,0.0,0.0,0.0,0.0,0.0,0.0,0.0,0.0,0.0,0.0,0.0,0.0,0.0,0.0,0.0,0.0,0.0,0.0,0.0,0.0,0.0,0.0,0.0,0.0,0.0,0.0,0.0,0.0,0.0,0.0,0.0,0.0,0.0,0.0,0.0,0.0,0.0,0.0,0.0,0.0,0.0,0.0,0.0,0.0,0.0,0.0,0.0,0.0,0.0,0.0,0.0,1.5404,0.0,1.5415,0.0,1.541,1.5408,0.0,0.0,0.0,0.0,0.0,0.0,0.0,0.0,0.0,0.0,0.0,0.0,0.0,0.0,0.0,0.0,0.0,0.0,0.0,0.0,0.0,0.0,0.0,0.0,0.0,0.0,0.0,0.0,0.0,0.0,0.0,0.0,0.0,0.0,0.0,0.0,0.0,0.0,0.0,0.0,0.0,0.0,0.0,0.0,0.0,0.0,0.0,0.0,0.0,0.0,0.0,0.0,0.0,0.0,0.0,0.0,0.0,0.0,0.0,0.0,0.0,0.0,0.0,0.0,0.0,0.0,0.0,0.0,0.0,0.0,0.0,0.0,0.0,0.0,0.0,0.0,0.0,0.0,0.0,0.0,0.0,0.0,0.0,0.0,0.0,0.0,0.0,0.0,0.0,0.0,0.0,0.0,0.0,0.0,0.0,0.0,0.0,0.0,0.0,0.0,0.0,0.0,0.0,0.0,0.0,0.0,0.0,0.0,1.5438,1.5448,1.5442,1.5472,1.5421,1.5448,1.5429,0.0,0.0,0.0,0.0,0.0,0.0,0.0,0.0,0.0,0.0,0.0,0.0,0.0,0.0,0.0,0.0,0.0,0.0,0.0,0.0,0.0,0.0,0.0,0.0,0.0,0.0,0.0,0.0,0.0,0.0,0.0,0.0,0.0,0.0,0.0,0.0,0.0,0.0,0.0,0.0,0.0,0.0,0.0,0.0,0.0,0.0,0.0,0.0,0.0,0.0,0.0,0.0,0.0,0.0,0.0,0.0,0.0,0.0,0.0,0.0,0.0,0.0,0.0,0.0,0.0,0.0,0.0,0.0,0.0,0.0,0.0,0.0,0.0,0.0,0.0,0.0,0.0,0.0,0.0,0.0,0.0,0.0,0.0,0.0,0.0,0.0,0.0,0.0,0.0,0.0,0.0,0.0,0.0,0.0,0.0,0.0,0.0,0.0,0.0,0.0,0.0,0.0,0.0,0.0,0.0,0.0,0.0,0.0,0.0,1.63,1.6278,1.6288,1.6293,1.6287,1.6015,0.0,0.0,0.0,0.0,0.0,0.0,0.0,0.0,0.0,0.0,0.0,0.0,0.0,0.0,0.0,0.0,0.0,0.0,0.0,0.0,0.0,0.0,0.0,0.0,0.0,0.0,0.0,0.0,0.0,0.0,0.0,0.0,0.0,0.0,0.0,0.0,0.0,0.0,0.0,0.0,0.0,0.0,0.0,0.0,0.0,0.0,0.0,0.0,0.0,0.0,0.0,0.0,0.0,0.0,0.0,0.0,0.0,0.0,0.0,0.0,0.0,0.0,0.0,0.0,0.0,0.0,0.0,0.0,0.0,0.0,0.0,0.0,0.0,0.0,0.0,0.0,0.0,0.0,0.0,0.0,0.0,0.0,0.0,0.0,0.0,0.0,0.0,0.0,0.0,0.0,0.0,0.0,0.0,0.0,0.0,0.0,0.0,0.0,0.0,0.0,0.0,0.0,0.0,0.0,0.0,0.0,0.0,0.0,0.0,1.7585,1.7331,1.7183,1.7187,1.6872,1.6445,1.5911,0.0,0.0,0.0,0.0,0.0,0.0,0.0,0.0,0.0,0.0,0.0,0.0,0.0,0.0,0.0,0.0,0.0,0.0,0.0,0.0,0.0,0.0,0.0,0.0,0.0,0.0,0.0,0.0,0.0,0.0,0.0,0.0,0.0,0.0,0.0,0.0,0.0,0.0,0.0,0.0,0.0,0.0,0.0,0.0,0.0,0.0,0.0,0.0,0.0,0.0,0.0,0.0,0.0,0.0,0.0,0.0,0.0,0.0,0.0,0.0,0.0,0.0,0.0,0.0,0.0,0.0,0.0,0.0,0.0,0.0,0.0,0.0,0.0,0.0,0.0,0.0,0.0,0.0,0.0,0.0,0.0,0.0,0.0,0.0,0.0,0.0,0.0,0.0,0.0,0.0,0.0,0.0,0.0,0.0,0.0,0.0,0.0,0.0,0.0,0.0,0.0,0.0,0.0,0.0,0.0,0.0,0.0,0.0,1.9237,1.8579,1.8161,1.8063,1.7301,1.6796,0.0,0.0,0.0,0.0,0.0,0.0,0.0,0.0,0.0,0.0,0.0,0.0,0.0,0.0,0.0,0.0,0.0,0.0,0.0,0.0,0.0,0.0,0.0,0.0,0.0,0.0,0.0,0.0,0.0,0.0,0.0,0.0,0.0,0.0,0.0,0.0,0.0,0.0,0.0,0.0,0.0,0.0,0.0,0.0,0.0,0.0,0.0,0.0,0.0,0.0,0.0,0.0,0.0,0.0,0.0,0.0,0.0,0.0,0.0,0.0,0.0,0.0,0.0,0.0,0.0,0.0,0.0,0.0,0.0,0.0,0.0,0.0,0.0,0.0,0.0,0.0,0.0,0.0,0.0,0.0,0.0,0.0,0.0,0.0,0.0,0.0,0.0,0.0,0.0,0.0,0.0,0.0,0.0,0.0,0.0,0.0,0.0,0.0,0.0,0.0,0.0,0.0,0.0,0.0,0.0,0.0,0.0,0.0,0.0,2.0094,2.057,2.0226,1.9015,1.8742,1.8008,0.0,0.0,0.0,0.0,0.0,0.0,0.0,0.0,0.0,0.0,0.0,0.0,0.0,0.0,0.0,0.0,0.0,0.0,0.0,0.0,0.0,0.0,0.0,0.0,0.0,0.0,0.0,0.0,0.0,0.0,0.0,0.0,0.0,0.0,0.0,0.0,0.0,0.0,0.0,0.0,0.0,0.0,0.0,0.0,0.0,0.0,0.0,0.0,0.0,0.0,0.0,0.0,0.0,0.0,0.0,0.0,0.0,0.0,0.0,0.0,0.0,0.0,0.0,0.0,0.0,0.0,0.0,0.0,0.0,0.0,0.0,0.0,0.0,0.0,0.0,0.0,0.0,0.0,0.0,0.0,0.0,0.0,0.0,0.0,0.0,0.0,0.0,0.0,0.0,0.0,0.0,0.0,0.0,0.0,0.0,0.0,0.0,0.0,0.0,0.0,0.0,0.0,0.0,0.0,0.0,0.0,0.0,0.0,1.9289,2.1006,2.1909,2.1881,2.0928,2.0205,1.9394,0.0,0.0,0.0,0.0,0.0,0.0,0.0,0.0,0.0,0.0,0.0,0.0,0.0,0.0,0.0,0.0,0.0,0.0,0.0,0.0,0.0,0.0,0.0,0.0,0.0,0.0,0.0,0.0,0.0,0.0,0.0,0.0,0.0,0.0,0.0,0.0,0.0,0.0,0.0,0.0,0.0,0.0,0.0,0.0,0.0,0.0,0.0,0.0,0.0,0.0,0.0,0.0,0.0,0.0,0.0,0.0,0.0,0.0,0.0,0.0,0.0,0.0,0.0,0.0,0.0,0.0,0.0,0.0,0.0,0.0,0.0,0.0,0.0,0.0,0.0,0.0,0.0,0.0,0.0,0.0,0.0,0.0,0.0,0.0,0.0,0.0,0.0,0.0,0.0,0.0,0.0,0.0,0.0,0.0,0.0,0.0,0.0,0.0,0.0,0.0,0.0,0.0,0.0,0.0,0.0,0.0,0.0,0.0,2.0181,2.1889,2.2776,2.3283,2.3313,2.165,2.0683,0.0,0.0,0.0,0.0,0.0,0.0,0.0,0.0,0.0,0.0,0.0,0.0,0.0,0.0,0.0,0.0,0.0,0.0,0.0,0.0,0.0,0.0,0.0,0.0,0.0,0.0,0.0,0.0,0.0,0.0,0.0,0.0,0.0,0.0,0.0,0.0,0.0,0.0,0.0,0.0,0.0,0.0,0.0,0.0,0.0,0.0,0.0,0.0,0.0,0.0,0.0,0.0,0.0,0.0,0.0,0.0,0.0,0.0,0.0,0.0,0.0,0.0,0.0,0.0,0.0,0.0,0.0,0.0,0.0,0.0,0.0,0.0,0.0,0.0,0.0,0.0,0.0,0.0,0.0,0.0,0.0,0.0,0.0,0.0,0.0,0.0,0.0,0.0,0.0,0.0,0.0,0.0,0.0,0.0,0.0,0.0,0.0,0.0,0.0,0.0,0.0,0.0,0.0,0.0,0.0,0.0,0.0,0.0,2.1076,2.2784,2.3673,2.4453,2.5105,2.2795,2.1247,0.0,0.0,0.0,0.0,0.0,0.0,0.0,0.0,0.0,0.0,0.0,0.0,0.0,0.0,0.0,0.0,0.0,0.0,0.0,0.0,0.0,0.0,0.0,0.0,0.0,0.0,0.0,0.0,0.0,0.0,0.0,0.0,0.0,0.0,0.0,0.0,0.0,0.0,0.0,0.0,0.0,0.0,0.0,0.0,0.0,0.0,0.0,0.0,1.0299,0.0,0.0,0.0,0.0,0.0,0.0,0.0,0.0,0.0,0.0,0.0,0.0,0.0,0.0,0.0,0.0,0.0,0.0,0.0,0.0,0.0,0.0,0.0,0.0,0.0,0.0,0.0,0.0,0.0,0.0,0.0,0.0,0.0,0.0,0.0,0.0,0.0,0.0,0.0,0.0,0.0,0.0,0.0,0.0,0.0,0.0,0.0,0.0,0.0,0.0,0.0,0.0,0.0,0.0,0.0,0.0,0.0,0.0,0.0,2.1352,2.305,2.3945,2.4817,2.5573,2.3569,2.2198,0.0,0.0,0.0,0.0,0.0,0.0,0.0,0.0,0.0,0.0,0.0,0.0,0.0,0.0,0.0,0.0,0.0,0.0,0.0,0.0,0.0,0.0,0.0,0.0,0.0,0.0,0.0,0.0,0.0,0.0,0.0,0.0,0.0,0.0,0.0,0.0,0.0,0.0,0.0,0.0,0.0,0.0,0.0,0.0,0.0,0.0,0.0,0.0,0.0,0.0,0.0,0.0,0.0,0.0,0.0,0.0,0.0,0.0,0.0,0.0,0.0,0.0,0.0,0.0,0.0,0.0,0.0,0.0,0.0,0.0,0.0,0.0,0.0,0.0,0.0,0.0,0.0,0.0,0.0,0.0,0.0,0.0,0.0,0.0,0.0,0.0,0.0,0.0,0.0,0.0,0.0,0.0,0.0,0.0,0.0,0.0,0.0,0.0,0.0,0.0,0.0,0.0,0.0,0.0,0.0,0.0,0.0,1.9749,2.1492,2.3054,2.3961,2.4736,2.5453,2.3935,2.3029,2.2847,0.0,0.0,0.0,0.0,0.0,0.0,0.0,0.0,0.0,0.0,0.0,0.0,0.0,0.0,0.0,0.0,0.0,0.0,0.0,0.0,0.0,0.0,0.0,0.0,0.0,0.0,0.0,0.0,0.0,0.0,0.0,0.0,0.0,0.0,0.0,0.0,0.0,0.0,0.9492,1.078,0.0,0.0,0.0,0.0,0.0,0.0,0.0,0.0,1.1248,0.0,0.0,0.0,0.0,0.0,0.0,0.0,0.0,0.0,0.0,0.0,0.0,0.0,0.0,0.0,0.0,0.0,0.0,0.0,0.0,0.0,0.0,0.0,0.0,0.0,0.0,0.0,0.0,0.0,0.0,0.0,0.0,0.0,0.0,0.0,0.0,0.0,0.0,0.0,0.0,0.0,0.0,0.0,0.0,0.0,0.0,0.0,0.0,0.0,0.0,0.0,0.0,0.0,0.0,0.0,0.0,1.7925,2.0329,2.2072,2.3093,2.3942,2.4479,2.4586,2.362,2.2752,2.1961,0.0,0.0,0.0,0.0,0.0,0.0,0.0,0.0,0.0,0.0,0.0,0.0,0.0,0.0,0.0,0.0,0.0,0.0,0.0,0.0,0.0,0.0,0.0,0.0,0.0,0.0,0.0,0.0,0.0,0.0,0.0,0.0,0.0,0.0,0.0,0.0,0.0,0.0,0.0,1.205,1.2693,0.0,0.0,0.0,0.0,0.0,0.0,0.0,0.0,1.2533,0.0,0.0,0.0,0.0,0.0,0.0,0.0,0.0,0.0,0.0,0.0,0.0,0.0,0.0,0.0,0.0,0.0,0.0,0.0,0.0,0.0,0.0,0.0,0.0,0.0,0.0,0.0,0.0,0.0,0.0,0.0,0.0,0.0,0.0,0.0,0.0,0.0,0.0,0.0,0.0,0.0,0.0,0.0,0.0,0.0,0.0,0.0,0.0,0.0,0.0,0.0,0.0,0.0,0.0,0.0,1.8026,2.0037,2.1547,2.2392,2.2851,2.3251,2.3686,2.2876,2.2223,0.0,0.0,0.0,0.0,0.0,0.0,0.0,0.0,0.0,0.0,0.0,0.0,0.0,0.0,0.0,0.0,0.0,0.0,0.0,0.0,0.0,0.0,0.0,0.0,0.0,0.0,0.0,0.0,0.0,0.0,0.0,0.0,0.0,0.0,0.0,0.0,0.0,0.0,0.0,0.0,1.3008,1.3514,1.3507,0.0,0.0,0.0,0.0,0.0,0.0,1.3183,1.3469,0.0,0.0,0.0,0.0,0.0,0.0,0.0,0.0,0.0,0.0,0.0,0.0,0.0,0.0,0.0,0.0,0.0,0.0,0.0,0.0,0.0,0.0,0.0,0.0,0.0,0.0,0.0,0.0,0.0,0.0,0.0,0.0,0.0,0.0,0.0,0.0,0.0,0.0,0.0,0.0,0.0,0.0,0.0,0.0,0.0,0.0,0.0,0.0,0.0,0.0,0.0,0.0,0.0,0.0,0.0,1.7967,1.9628,2.092,2.1749,2.1799,2.2117,2.2789,2.2168,2.1652,0.0,0.0,0.0,0.0,0.0,0.0,0.0,0.0,0.0,0.0,0.0,0.0,0.0,0.0,0.0,0.0,0.0,0.0,0.0,0.0,0.0,0.0,0.0,0.0,0.0,0.0,0.0,0.0,0.0,0.0,0.0,0.0,0.0,0.0,0.0,0.0,0.0,0.0,0.0,0.0,0.0,1.4354,1.4367,1.5108,0.0,0.0,0.0,0.0,1.3972,1.4435,0.0,0.0,0.0,0.0,0.0,0.0,0.0,0.0,0.0,0.0,0.0,0.0,0.0,0.0,0.0,0.0,0.0,0.0,0.0,0.0,0.0,0.0,0.0,0.0,0.0,0.0,0.0,0.0,0.0,0.0,0.0,0.0,0.0,0.0,0.0,0.0,0.0,0.0,0.0,0.0,0.0,0.0,0.0,0.0,0.0,0.0,0.0,0.0,0.0,0.0,0.0,0.0,0.0,0.0,0.0,0.0,1.7987,1.9609,2.092,2.1749,2.1799,2.1844,2.1942,2.1854,2.1101,0.0,0.0,0.0,0.0,0.0,0.0,0.0,0.0,0.0,0.0,0.0,0.0,0.0,0.0,0.0,0.0,0.0,0.0,0.0,0.0,0.0,0.0,0.0,0.0,0.0,0.0,0.0,0.0,0.0,0.0,0.0,0.0,0.0,0.0,0.0,0.0,0.0,0.0,0.0,0.0,0.0,1.5254,1.5248,1.6006,1.6513,0.0,0.0,1.7527,1.7425,1.7482,0.0,0.0,0.0,0.0,0.0,0.0,0.0,0.0,0.0,0.0,0.0,0.0,0.0,0.0,0.0,0.0,0.0,0.0,0.0,0.0,0.0,0.0,0.0,0.0,0.0,0.0,0.0,0.0,0.0,0.0,0.0,0.0,0.0,0.0,0.0,0.0,0.0,0.0,0.0,0.0,0.0,0.0,0.0,0.0,0.0,0.0,0.0,0.0,0.0,0.0,0.0,0.0,0.0,0.0,0.0,1.8142,1.8667,1.9869,2.0698,2.1041,2.1071,2.1059,2.1065,2.1051,2.0726,0.0,0.0,0.0,0.0,0.0,0.0,0.0,0.0,0.0,0.0,0.0,0.0,0.0,0.0,0.0,0.0,0.0,0.0,0.0,0.0,0.0,0.0,0.0,0.0,0.0,0.0,0.0,0.0,0.0,0.0,0.0,0.0,0.0,0.0,0.0,0.0,0.0,0.0,0.0,0.0,0.0,0.0,1.6795,1.72,0.0,0.0,0.0,1.7997,1.8015,0.0,0.0,0.0,0.0,0.0,0.0,0.0,0.0,0.0,0.0,0.0,0.0,0.0,0.0,0.0,0.0,0.0,0.0,0.0,0.0,0.0,0.0,0.0,0.0,0.0,0.0,0.0,0.0,0.0,0.0,0.0,0.0,0.0,0.0,0.0,0.0,0.0,0.0,0.0,0.0,0.0,0.0,0.0,0.0,0.0,0.0,0.0,0.0,0.0,0.0,0.0,0.0,0.0,0.0,0.0,0.0,0.0,1.9192,2.005,2.0511,2.0504,2.0515,2.0506,2.0516,2.0497,0.0,0.0,0.0,0.0,0.0,0.0,0.0,0.0,0.0,0.0,0.0,0.0,0.0,0.0,0.0,0.0,0.0,0.0,0.0,0.0,0.0,0.0,0.0,0.0,0.0,0.0,0.0,1.0186,0.0,0.0,0.0,0.0,0.0,0.0,0.0,0.0,0.0,0.0,0.0,0.0,0.0,0.0,1.7263,1.7909,1.8178,1.833,0.0,0.0,1.8642,1.8662,1.8659,1.8656,0.0,0.0,0.0,0.0,0.0,0.0,0.0,0.0,0.0,0.0,0.0,0.0,0.0,0.0,0.0,0.0,0.0,0.0,0.0,0.0,0.0,0.0,0.0,0.0,0.0,0.0,0.0,0.0,0.0,0.0,0.0,0.0,0.0,0.0,0.0,0.0,0.0,0.0,0.0,0.0,0.0,0.0,0.0,0.0,0.0,0.0,0.0,0.0,0.0,0.0,0.0,0.0,0.0,0.0,0.0,1.9231,2.005,2.0511,2.0511,2.05,2.0515,2.0503,2.0506,2.0162,0.0,0.0,0.0,0.0,0.0,0.0,0.0,0.0,0.0,0.0,0.0,0.0,0.0,0.0,0.0,0.0,0.0,0.0,0.0,0.0,0.0,0.0,0.0,0.0,0.0,0.0,0.0,0.0,0.0,0.0,0.0,0.0,0.0,0.0,0.0,0.0,0.0,0.0,0.0,0.0,0.0,1.7925,1.7988,1.8704,1.9227,0.0,0.0,2.0419,2.0417,2.0417,2.0435,2.0432,0.0,0.0,0.0,0.0,0.0,0.0,0.0,0.0,0.0,0.0,0.0,0.0,0.0,0.0,0.0,0.0,0.0,0.0,0.0,0.0,0.0,0.0,0.0,0.0,0.0,0.0,0.0,0.0,0.0,0.0,0.0,0.0,0.0,0.0,0.0,0.0,0.0,0.0,0.0,0.0,0.0,0.0,0.0,0.0,0.0,0.0,0.0,0.0,0.0,0.0,0.0,0.0,0.0,1.937,1.9914,2.0313,2.0497,2.0511,2.0515,2.05,2.0511,2.0511,2.0359,0.0,0.0,0.0,0.0,0.0,0.0,0.0,0.0,0.0,0.0,0.0,0.0,0.0,0.0,0.0,0.0,0.0,0.0,0.0,0.0,0.0,0.0,0.0,0.0,0.0,0.0,0.0,0.0,1.198,1.3085,1.4118,0.0,0.0,0.0,0.0,0.0,0.0,0.0,0.0,0.0,0.0,1.8994,1.9531,1.9879,0.0,0.0,2.0378,2.0593,2.0593,2.0593,2.0593,2.0591,2.0607,0.0,0.0,0.0,0.0,0.0,0.0,0.0,0.0,0.0,0.0,0.0,0.0,0.0,0.0,0.0,0.0,0.0,0.0,0.0,0.0,0.0,0.0,0.0,0.0,0.0,0.0,0.0,0.0,0.0,0.0,0.0,0.0,0.0,0.0,0.0,0.0,0.0,0.0,0.0,0.0,0.0,0.0,0.0,0.0,0.0,0.0,0.0,0.0,0.0,0.0,0.0,0.0,1.979,2.0394,2.0478,2.0512,2.0502,2.0502,2.0511,2.0504,2.0504,2.0504,0.0,0.0,0.0,0.0,0.0,0.0,0.0,0.0,0.0,0.0,0.0,0.0,0.0,0.0,0.0,0.0,0.0,0.0,0.0,0.0,0.0,0.0,0.0,0.0,0.0,0.0,0.0,0.0,1.2548,1.3614,1.5047,0.0,0.0,0.0,0.0,0.0,0.0,0.0,0.0,0.0,0.0,1.9906,2.0506,2.0604,2.0596,2.0594,2.0593,2.0593,2.0593,2.0593,2.0593,2.0593,0.0,0.0,0.0,0.0,0.0,0.0,0.0,0.0,0.0,0.0,0.0,0.0,0.0,0.0,0.0,0.0,0.0,0.0,0.0,0.0,0.0,0.0,0.0,0.0,0.0,0.0,0.0,0.0,0.0,0.0,1.7661,0.0,0.0,0.0,0.0,0.0,0.0,0.0,0.0,0.0,0.0,0.0,0.0,0.0,0.0,0.0,0.0,0.0,0.0,0.0,0.0,0.0,0.0,2.0359,2.0394,2.0459,2.0507,2.0507,2.0507,2.0517,2.0506,2.0506,2.0515,2.0508,0.0,0.0,0.0,0.0,0.0,0.0,0.0,0.0,0.0,0.0,0.0,0.0,0.0,0.0,0.0,0.0,0.0,0.0,0.0,0.0,0.0,0.0,0.0,0.0,0.0,0.0,1.2669,1.3398,1.4236,0.0,0.0,0.0,0.0,0.0,0.0,0.0,0.0,0.0,0.0,2.0531,2.0588,2.0603,2.0605,2.0601,2.0594,2.0593,2.0593,2.0593,2.0593,2.0593,0.0,0.0,0.0,0.0,0.0,0.0,0.0,0.0,0.0,0.0,0.0,0.0,0.0,0.0,0.0,0.0,0.0,0.0,0.0,0.0,0.0,0.0,0.0,0.0,0.0,0.0,0.0,1.7728,1.7722,0.0,0.0,0.0,0.0,0.0,0.0,0.0,0.0,0.0,0.0,0.0,2.2218,2.2448,0.0,0.0,0.0,0.0,0.0,0.0,0.0,0.0,0.0,0.0,0.0,0.0,2.0379,2.0394,2.0473,2.0507,2.0507,2.0507,2.0512,2.0512,2.0512,2.0502,2.0515,0.0,0.0,0.0,0.0,0.0,0.0,0.0,0.0,0.0,0.0,0.0,0.0,0.0,0.0,0.0,0.0,0.0,0.0,0.0,0.0,0.0,0.0,0.0,0.0,0.0,1.2912,0.0,0.0,0.0,0.0,0.0,0.0,0.0,0.0,0.0,0.0,0.0,2.0515,2.0516,2.0511,2.0549,2.0601,2.0605,2.0604,0.0,0.0,0.0,0.0,0.0,0.0,0.0,0.0,0.0,0.0,0.0,0.0,0.0,0.0,2.3433,2.315,2.2864,2.2675,2.2686,0.0,0.0,0.0,0.0,0.0,0.0,0.0,0.0,0.0,0.0,0.0,0.0,0.0,0.0,1.9473,0.0,1.9473,0.0,0.0,0.0,0.0,0.0,0.0,0.0,0.0,2.2677,2.304,2.3078,2.3365,2.3346,0.0,2.3059,2.2352,0.0,0.0,0.0,0.0,0.0,0.0,0.0,0.0,2.0379,2.0413,2.0459,2.0507,2.0507,2.0507,2.0507,2.0507,2.0507,2.0512,2.0502,1.9962,1.9523,0.0,0.0,0.0,0.0,0.0,0.0,0.0,0.0,0.0,0.0,0.0,0.0,0.0,0.0,0.0,0.0,0.0,0.0,0.0,0.0,0.0,0.0,0.0,1.3788,0.0,0.0,0.0,0.0,0.0,0.0,0.0,0.0,0.0,2.0385,2.0458,2.0504,2.051,2.0509,2.0623,2.0968,0.0,0.0,0.0,0.0,0.0,0.0,0.0,2.0944,2.0651,2.0593,2.071,2.1003,2.1704,2.2717,2.4159,0.0,0.0,2.4118,2.3751,2.3559,2.3553,2.3313,2.3095,2.3111,2.3111,2.3111,0.0,0.0,0.0,0.0,0.0,0.0,0.0,0.0,2.2808,2.2763,0.0,2.2614,0.0,0.0,0.0,0.0,0.0,2.2658,0.0,0.0,2.3651,2.4014,2.411,2.4885,2.4847,2.4052,2.4003,2.3537,2.2677,2.1866,0.0,0.0,0.0,0.0,0.0,0.0,2.0417,2.0452,2.0536,2.0565,2.0604,2.0565,2.0546,2.0507,2.0507,2.0507,2.0507,2.0478,2.0098,1.9282,1.92,0.0,0.0,0.0,0.0,0.0,0.0,0.0,0.0,0.0,0.0,0.0,0.0,0.0,0.0,0.0,0.0,0.0,0.0,0.0,0.0,1.5284,0.0,0.0,0.0,0.0,0.0,0.0,0.0,0.0,0.0,0.0,2.0466,2.0492,2.0521,2.0558,0.0,0.0,0.0,0.0,2.2207,2.2949,2.3082,2.28,2.2039,2.194,2.1645,2.0827,0.0,0.0,2.184,2.2623,2.3423,2.43,2.5121,2.5705,2.5657,2.4949,2.4461,2.4425,2.3809,2.3235,2.3208,2.3364,2.3319,2.7497,0.0,0.0,0.0,0.0,2.3688,2.4005,2.4543,2.3928,2.3659,2.363,2.2968,0.0,0.0,0.0,0.0,0.0,0.0,2.4465,2.4541,2.5944,2.6612,2.6612,2.6861,2.6842,2.6593,2.5982,2.5256,2.4427,2.3594,2.2487,2.1147,0.0,0.0,0.0,0.0,2.0714,2.1291,2.1351,2.1653,2.226,2.1677,2.107,2.0527,2.0507,2.0483,2.0425,2.0425,2.0303,2.006,1.9512,0.0,0.0,0.0,0.0,0.0,0.0,0.0,0.0,0.0,0.0,0.0,0.0,0.0,0.0,0.0,0.0,0.0,0.0,0.0,1.6932,1.6997,1.7003,0.0,0.0,0.0,0.0,0.0,0.0,0.0,0.0,0.0,2.132,2.0836,2.0706,0.0,0.0,2.174,2.2615,2.2742,2.2847,2.3066,2.3105,0.0,2.2782,2.276,2.2662,2.2428,2.2369,2.2681,2.3519,2.389,2.4319,2.516,2.5512,2.5705,2.5685,2.5527,2.533,2.5286,2.511,2.4974,2.4949,2.4954,2.4935,3.063,2.7685,2.6559,2.6081,2.6081,2.6041,2.6318,2.676,2.6239,2.5806,2.5447,2.49,2.4678,2.4667,2.4637,0.0,0.0,0.0,2.6204,2.6216,2.7224,2.772,2.7714,2.772,2.7701,2.7682,2.7166,2.667,2.6185,2.5313,2.4227,2.2978,0.0,0.0,2.1355,2.1384,2.1656,2.2183,2.2225,2.2469,2.2979,2.2488,2.1823,2.1021,2.0983,2.0798,2.041,2.039,2.0385,2.0394,1.9939,1.9507,0.0,0.0,0.0,0.0,0.0,0.0,0.0,0.0,0.0,0.0,0.0,1.5782,1.578,0.0,0.0,0.0,1.667,1.7183,1.7651,1.7702,0.0,0.0,0.0,0.0,0.0,0.0,0.0,2.0745,2.1562,2.2118,2.2165,2.1752,2.1646,2.2153,2.225,2.2594,2.3497,0.0,2.3719,2.4078,2.412,2.4004,2.3668,2.3606,2.3506,2.3152,2.3111,2.3423,2.4241,2.4417,2.4711,2.5453,2.5687,2.5687,2.5687,2.5687,2.5705,2.5701,2.5703,2.5705,2.5698,2.5701,2.5696,3.3253,3.1647,3.0126,2.9416,2.9301,2.9282,2.932,2.9378,2.9301,2.8765,2.7911,2.7835,2.7765,2.7701,2.7688,0.0,2.7688,2.7746,2.7759,2.7784,2.7854,2.7885,2.7878,2.7904,2.7899,2.7899,2.7835,2.7784,2.7727,2.6918,2.6121,2.5382,2.3783,2.2967,2.2917,2.2883,2.2958,2.3088,2.3087,2.3098,2.3115,2.3098,2.2685,2.1845,2.1809,2.1435,2.0646,2.0529,2.051,2.051,2.0427,2.0034,1.9256,0.0,0.0,0.0,0.0,0.0,0.0,0.0,0.0,0.0,0.0,0.0,0.0,0.0,0.0,0.0,1.7753,0.0,1.7907,1.7972,0.0,0.0,0.0,1.93,1.93,2.072,2.1691,2.1691,0.0,0.0,2.2999,2.3052,2.3127,2.319,2.3134,2.3432,2.4366,2.4478,2.4788,2.5492,2.566,2.541,2.4648,2.4511,2.4273,2.3601,2.3306,2.3696,2.4378,2.4553,2.4868,2.557,2.5687,2.5687,2.5687,2.5687,2.5687,2.5687,2.5687,2.5687,2.5707,2.5698,2.569,3.5198,3.4165,3.3219,3.2096,3.095,3.0904,3.1306,3.1842,3.1164,3.0404,2.9568,2.8905,2.8275,2.7701,2.7656,2.7624,2.7643,2.8251,2.8541,2.8574,2.9222,2.9527,2.9546,2.9527,2.9527,2.9489,2.8907,2.8616,2.8578,2.7784,2.7338,2.7117,2.6121,2.4706,2.2956,2.2883,2.3241,2.3921,2.3915,2.3928,2.3909,2.3928,2.3515,2.272,2.2675,2.2553,2.2294,2.1694,2.1397,2.1372,2.0721,2.0244,2.0025,1.9375,0.0,0.0,0.0,0.0,0.0,0.0,0.0,0.0,0.0,1.7472,1.7485,0.0,1.7722,0.0,1.8311,1.8958,1.9619,2.0235,0.0,0.0,2.137,2.1889,2.1916,2.2263,2.2521,2.25,2.3279,2.3807,2.3813,2.4392,2.4822,2.4888,2.4374,2.4313,2.5162,2.5312,2.5386,2.5625,2.5691,2.5619,2.5429,2.5391,2.5291,2.5123,2.5063,2.516,2.5336,2.5395,2.5453,2.5668,2.5687,2.5687,2.5687,2.5687,2.5687,2.5687,2.5687,2.5687,2.5687,2.5698,2.569,3.6993,3.6192,3.5408,3.4525,3.3616,3.2928,3.289,3.3272,3.2749,3.2046,3.1245,3.0776,3.0285,2.9899,2.9832,2.9832,2.9855,3.0297,3.0491,3.0525,3.0982,3.1213,3.1217,3.1213,3.1229,3.1191,3.0369,2.9984,2.9937,2.8826,2.8281,2.8325,2.7493,2.6243,2.4654,2.4226,2.4277,2.476,2.4781,2.4775,2.4775,2.4761,2.4374,2.3573,2.3527,2.3327,2.2901,2.2469,2.2062,2.1707,2.1165,2.0688,2.0314,1.985,1.9586,0.0,0.0,0.0,0.0,0.0,0.0,0.0,0.0,0.0,0.0,0.0,1.9023,1.9369,2.0177,2.0889,2.137,2.1831,2.2081,2.2081,2.2504,2.2793,2.2793,2.3139,2.3379,2.3388,2.4119,2.4648,2.4675,2.5108,2.5425,2.544,2.5054,2.4981,2.544,2.5571,2.5624,2.5642,2.5679,2.5694,2.5703,2.5703,2.5703,2.5699,2.5693,2.5687,2.5687,2.5687,2.5687,2.5687,2.5687,2.5687,2.5687,2.5687,2.5687,2.5687,2.5687,2.5687,2.5707,2.5698,2.569,3.8442,3.7775,3.6917,3.6479,3.6288,3.489,3.4219,3.4143,3.4091,3.3563,3.2727,3.2638,3.2602,3.2602,3.2602,3.2602,3.2602,3.2585,3.2583,3.2564,3.2585,3.2587,3.2572,3.2568,3.2566,3.2528,3.1806,3.1439,3.1352,2.9937,2.9211,2.9149,2.8356,2.7627,2.7007,2.6167,2.5653,2.5515,2.5517,2.5511,2.5505,2.5503,2.5147,2.4411,2.4358,2.4022,2.3267,2.3113,2.2752,2.2075,2.1861,2.1434,2.068,2.0619,2.0635,0.0,2.0611,0.0,0.0,0.0,0.0,0.0,0.0,0.0,0.0,2.0177,2.0908,2.16,2.235,2.2793,2.2793,2.2889,2.2975,2.2966,2.3062,2.3101,2.3158,2.3802,2.4245,2.4245,2.487,2.5322,2.5351,2.5389,2.5379,2.5387,2.5365,2.5368,2.5473,2.5537,2.559,2.5595,2.5645,2.5693,2.5702,2.5703,2.5703,2.5703,2.57,2.5691,2.5687,2.5687,2.5687,2.5687,2.5687,2.5687,2.5687,2.5687,2.5687,2.5687,2.5687,2.5687,2.5707,2.5698,2.569,3.8725,3.8536,3.7719,3.6976,3.6272,3.5986,3.5491,3.4882,3.4882,3.4387,3.3549,3.2868,3.2602,3.2602,3.253,3.253,3.2514,3.246,3.2443,3.2443,3.2443,3.2443,3.2444,3.2443,3.2424,3.2424,3.2343,3.1958,3.1305,3.107,3.0624,3.0043,2.9206,2.876,2.8685,0.0,0.0,0.0,2.5519,2.5519,2.5507,2.5519,2.5422,2.526,2.524,0.0,2.5008,2.4331,2.3886,2.3712,2.3045,0.0,0.0,0.0,0.0,0.0,0.0,0.0,0.0,0.0,0.0,0.0,2.2274,2.2081,2.2081,2.2235,2.2389,2.2562,2.2697,2.2793,2.2812,2.3456,2.386,2.3879,2.4428,2.4812,2.4822,2.4986,2.5082,2.5082,2.5207,2.5293,2.5313,2.5313,2.5332,2.5379,2.5388,2.5395,2.5422,2.5499,2.5537,2.559,2.5655,2.5687,2.5691,2.5701,2.5703,2.5703,2.5703,2.5701,2.5691,2.5687,2.5687,2.5687,2.5687,2.5687,2.5687,2.5687,2.5687,2.5687,2.5687,2.5687,2.5687,2.5698,2.569,3.9368,0.0,3.8535,3.7946,0.0,3.6654,3.6065,3.5609,3.521,3.4773,3.4318,3.3919,3.3729,3.373,3.3693,3.3674,3.3674,3.3638,3.3638,3.3638,3.3638,3.3657,3.3638,3.3638,3.3638,3.3619,3.3258,3.2912,3.2507,3.174,3.1206,3.0912,3.0062,2.949,2.9187,2.8367,2.7342,2.6102,2.5704,2.5511,2.5511,2.5511,2.5511,2.5511,2.5511,0.0,0.0,0.0,0.0,0.0,0.0,0.0,0.0,2.2835,0.0,2.2793,2.2793,2.2793,2.2793,2.2793,2.2994,2.3417,2.3812,2.3678,2.2851,2.3206,2.3456,2.3456,2.3793,2.4043,2.4043,2.4447,2.4697,2.4716,2.5063,2.5313,2.5313,2.5313,2.5313,2.5313,2.5313,2.5313,2.5313,2.5313,2.5313,2.5351,2.5389,2.5397,2.5412,2.5449,2.5518,2.5604,2.5656,2.5693,2.5705,2.5694,2.5702,2.5703,2.5703,2.5703,2.57,2.5697,2.5693,2.5689,2.5687,2.5687,2.5687,2.5687,2.5687,2.5687,2.5687,2.5687,2.5687,2.5698,2.5687,3.9933,3.9918,3.9254,3.8893,3.8686,3.7318,3.6596,3.6329,0.0,0.0,0.0,3.4908,3.4908,3.4908,3.4908,3.4908,3.4908,3.4908,3.4908,3.4908,3.4908,3.4908,3.4908,3.4908,3.4908,3.487,3.4207,3.3863,3.3743,3.2393,3.1672,3.1531,3.0868,3.0155,2.9418,2.8626,2.7871,2.7155,2.6199,2.5638,2.5511,2.5511,2.5511,2.5511,2.5511,2.5511,2.5511,2.5511,2.5155,2.4482,2.4416,2.4099,2.34,2.3279,2.3234,2.3235,2.3254,2.3254,2.3235,2.3254,2.3543,2.4283,2.4928,2.4736,2.3351,2.3908,2.4322,2.4322,2.4928,2.5293,2.5313,2.5313,2.5313,2.5313,2.5313,2.5313,2.5313,2.5313,2.5313,2.5313,2.5313,2.5313,2.5313,2.5313,2.5313,2.5293,2.5351,2.5379,2.5406,2.5456,2.5524,2.5585,2.5643,2.5671,2.5696,2.5707,2.5694,2.5703,2.5703,2.5703,2.5703,2.5703,2.5699,2.5696,2.5691,2.5691,2.5689,2.5689,2.5687,2.5687,2.5687,2.5687,2.5707,2.5698,2.5687,3.9911,3.9911,3.9778,3.9323,3.87,3.8454,3.7942,3.7125,3.5609,3.4908,3.4908,3.4908,3.4908,3.4908,3.4908,3.4908,3.4908,3.4908,3.4908,3.4908,3.4908,3.4908,3.4908,3.4908,3.4908,3.4889,3.4775,3.4433,3.3842,3.3553,3.2816,3.1661,3.1443,3.1044,3.0307,2.9525,2.905,2.8896,2.734,2.6188,2.553,2.5511,2.5511,2.5511,2.5511,2.5511,2.5511,2.5511,2.5453,2.531,2.5258,2.5164,2.5039,2.4937,2.4947,2.4947,2.4937,2.4937,2.4947,2.4957,2.4995,2.5111,2.5236,2.5187,2.4986,2.5063,2.5139,2.5139,2.5245,2.5313,2.5313,2.5313,2.5313,2.5313,2.5313,2.5313,2.5313,2.5313,2.5322,2.536,2.5313,2.5341,2.5457,2.5418,2.5457,2.537,2.5582,2.5428,2.556,2.5461,2.5518,2.5582,2.5605,2.5656,2.5678,2.5698,2.5691,2.57,2.5703,2.5703,2.5703,2.5703,2.5703,2.5703,2.5703,2.5699,2.5698,2.5693,2.5689,2.5689,2.5689,2.5687,2.5687,2.5698,2.5684,3.9889,3.9889,3.9889,3.9702,3.9323,3.8888,3.8186,3.7353,3.6576,3.5988,3.5571,3.5116,3.4908,3.4908,3.4908,3.4908,3.4908,3.4908,3.4908,3.4908,3.4908,3.4908,3.4908,3.4908,3.4908,3.4908,3.4908,3.4718,3.4432,3.4029,3.3484,3.2828,3.2065,3.1276,3.053,3.0182,2.9766,2.9263,2.758,2.6508,2.6149,2.5724,2.5511,2.5511,2.5511,2.5511,2.5511,2.5511,2.5484,2.5459,2.5412,2.5395,2.5397,2.5389,2.5341,2.5293,2.5313,2.5313,2.5313,2.5313,2.5313,2.5313,2.5313,2.5313,2.5313,2.5313,2.5313,2.5313,2.5313,2.5313,2.5313,2.5313,2.5313,2.5313,2.5313,2.5313,2.5313,2.5313,2.5476,2.5909,2.6005,2.6178,2.6659,2.6697,2.6717,2.6717,2.6708,2.6708,2.6737,2.679,2.6524,2.5751,2.5574,2.563,2.5699,2.5687,2.5705,2.5693,2.5702,2.5703,2.5703,2.5703,2.5703,2.5703,2.5703,2.5703,2.5703,2.5702,2.5699,2.5696,2.5691,2.5687,2.5705,2.5673,2.5652,3.9889,3.987,3.9889,3.9889,3.9854,3.9248,3.8584,3.7959,3.7769,3.7334,3.6689,3.5836,3.5457,3.5457,3.5476,3.5363,3.5211,3.5192,3.5097,3.4908,3.4908,3.4908,3.4908,3.4908,3.4908,3.4908,3.4908,3.4927,3.4906,3.439,3.4091,3.3887,3.248,3.1386,3.0791,3.0666,3.0269,2.9534,2.8083,2.7194,2.6973,2.6381,2.6072,2.6052,2.6083,2.6064,2.6083,2.6036,2.6011,2.5956,2.5781,2.5676,2.5668,2.5485,2.5447,2.5563,2.5591,2.5687,2.587,2.589,2.589,2.589,2.589,2.589,2.589,2.589,2.5687,2.538,2.5313,2.5313,2.5313,2.5313,2.5313,2.5313,2.5495,2.563,2.562,2.5764,2.612,2.6774,2.689,2.7178,2.7698,2.789,2.7813,2.7794,2.7892,2.7893,2.7904,2.7961,2.7368,2.6512,2.5971,2.5949,2.5955,2.5792,2.5712,2.5705,2.5699,2.5703,2.5703,2.5703,2.5703,2.5703,2.5703,2.5703,2.5703,2.5703,2.5703,2.5701,2.5696,2.5707,2.5703,2.5645,2.5617,3.9804,3.9826,3.9867,3.9889,3.987,3.9816,3.9683,3.9532,3.8888,3.8567,3.8338,3.7542,3.7144,3.7163,3.7106,3.6727,3.6102,3.6083,3.5666,3.5022,3.4908,3.4908,3.5003,3.4946,3.4908,3.4927,3.4946,3.4984,3.5001,3.4961,3.4697,3.4043,3.2531,3.1714,3.1584,3.0965,3.054,3.0462,2.9534,2.8664,2.7929,2.7813,2.7774,2.7763,2.7757,2.7758,2.7661,2.7711,2.7663,2.7613,2.6901,2.6506,2.642,2.5765,2.5678,2.6409,2.6486,2.6813,2.7525,2.767,2.7593,2.7659,2.7563,2.7544,2.7554,2.7612,2.6948,2.5813,2.537,2.5447,2.5313,2.538,2.5476,2.5582,2.6072,2.6486,2.6544,2.7178,2.7698,2.7755,2.7755,2.7832,2.8044,2.8121,2.8025,2.8179,2.8209,2.82,2.8182,2.8193,2.8174,2.7735,2.7217,2.6767,2.667,2.6143,2.5837,2.5742,2.5696,2.5702,2.5703,2.5703,2.5703,2.5703,2.5703,2.5703,2.5703,2.5703,2.5703,2.5703,2.5698,2.5705,2.5693,2.5658,2.5617,3.9735,3.9735,3.9777,3.9823,3.9848,3.987,3.9889,3.9851,3.9551,3.9418,3.938,3.9039,3.8338,3.7409,3.739,3.7201,3.6917,3.6898,3.6727,3.6367,3.6386,3.6386,3.6367,3.6386,3.6159,3.5704,3.5666,3.542,3.5096,3.5145,3.4871,3.4153,3.3012,3.2243,3.1768,3.1004,3.0617,3.0578,3.025,2.9873,2.9419,2.8501,2.7989,2.7989,2.7952,2.7952,2.7933,2.7913,2.7893,2.7871,2.7545,2.7363,2.7372,2.7005,2.6986,2.7351,2.7379,2.7514,2.7871,2.7898,2.7898,2.789,2.789,2.7901,2.7892,2.7901,2.7563,2.7003,2.6822,2.6832,2.6832,2.6813,2.6851,2.689,2.7178,2.7371,2.739,2.7678,2.8044,2.8486,2.8602,2.8813,2.9256,2.939,2.939,2.939,2.9371,2.9286,2.9347,2.9398,2.9458,2.939,2.8841,2.7932,2.7179,2.6685,2.6252,2.5849,2.5689,2.5697,2.5703,2.5703,2.5703,2.5703,2.5703,2.5703,2.5703,2.5703,2.5703,2.5703,2.5699,2.5703,2.5693,2.5678,2.564,3.9703,3.9708,3.9708,3.9735,3.9781,3.9804,3.9845,3.9845,3.9845,3.9845,3.9845,3.9826,3.9183,3.8163,3.8052,3.7978,3.7769,3.775,3.7618,3.7409,3.739,3.7371,3.739,3.7371,3.7087,3.6613,3.6538,3.6122,3.5418,3.5286,3.5028,3.4474,3.3744,3.2968,3.2154,3.1352,3.081,3.0617,3.0588,3.055,3.0317,2.9284,2.8686,2.8686,2.8627,2.8578,2.8596,2.8587,2.8585,2.8599,2.8382,2.8219,2.8228,2.8025,2.8005,2.8236,2.8456,2.8571,2.8582,2.8591,2.8591,2.8582,2.8602,2.8582,2.8593,2.8593,2.8591,2.8579,2.8571,2.8467,2.7928,2.789,2.789,2.7909,2.8063,2.8217,2.8236,2.839,2.8852,2.9352,2.9448,2.9679,3.0217,3.0321,3.0263,3.0283,3.0321,3.039,3.0394,3.0381,3.0432,3.0472,3.0007,2.9183,2.7874,2.7395,2.6937,2.6344,2.6091,2.6044,2.5799,2.5703,2.5703,2.5703,2.5703,2.5703,2.5703,2.5703,2.5703,2.5703,2.5699,2.5705,2.5693,2.5701,2.5683,3.9693,3.9693,3.9708,3.9689,3.9712,3.9712,3.9712,3.9712,3.9731,3.9712,3.9712,3.9731,3.9675,3.9505,3.9561,3.9342,3.8679,3.8622,3.8243,3.7599,3.7523,3.7428,3.739,3.739,3.7409,3.7371,3.7353,3.6938,3.6177,3.5624,3.534,3.5276,3.4539,3.3809,3.3033,3.2116,3.1362,3.0743,3.0588,3.051,3.0472,3.0334,3.0207,3.0248,3.0274,3.0166,3.0194,3.0267,3.0237,3.0244,2.9467,2.9044,2.8997,2.8362,2.8332,2.9006,2.9794,3.0225,3.0198,3.0129,3.0148,3.0206,3.0071,3.0217,3.0044,3.0044,3.0052,3.0225,3.0052,2.9544,2.8352,2.8217,2.8121,2.8121,2.864,2.8986,2.9063,2.966,3.0206,3.0263,3.0217,3.0244,3.0379,3.0398,3.0398,3.0398,3.0398,3.039,3.0421,3.0466,3.0479,3.05,3.0434,3.0225,2.9392,2.8573,2.7785,2.7172,2.6844,2.6741,2.6124,2.5703,2.5742,2.5723,2.5723,2.5723,2.5703,2.5703,2.5703,2.5703,2.5703,2.5705,2.5693,2.5701,2.5664,3.9645,3.9645,3.9674,3.9698,3.9722,3.9693,3.9717,3.9708,3.9703,3.9708,3.9708,3.9708,3.9708,3.9712,3.9754,3.9607,3.9365,3.9346,3.9176,3.8871,3.8893,3.8893,3.8918,3.8937,3.8656,3.8281,3.8226,3.7546,3.6424,3.6176,3.5863,3.5325,3.4623,3.4094,3.3666,3.2443,3.1574,3.1272,3.0809,3.049,3.0449,3.0428,3.0417,3.0444,3.0402,3.0402,3.0402,3.039,3.0398,3.0398,3.0083,2.9929,2.989,2.966,2.9621,2.991,3.0225,3.0398,3.0398,3.0398,3.0398,3.0398,3.0398,3.0398,3.0398,3.0398,3.0398,3.0398,3.0398,3.0025,2.9737,2.9506,2.9506,2.9544,2.9737,2.991,2.9967,3.0217,3.0398,3.0398,3.0398,3.0398,3.0398,3.0398,3.0398,3.0398,3.0398,3.0398,3.041,3.0447,3.049,3.05,3.055,3.0516,3.0261,2.9467,2.8718,2.8111,2.7729,2.7727,2.7349,2.6714,2.6641,2.6504,2.6269,2.5781,2.5781,2.5703,2.5703,2.5703,2.5703,2.5705,2.5693,2.5704,2.5668,3.962,3.962,3.9645,3.9669,3.9669,3.9665,3.9689,3.9661,3.9656,3.9656,3.9661,3.9661,3.9661,3.9661,3.9661,3.9661,3.9661,3.9665,3.9708,3.9708,3.9708,3.9712,3.9758,3.9781,3.9561,3.9056,3.8814,3.8135,3.7167,3.6752,3.6312,3.5797,3.502,3.4513,3.4113,3.2841,3.2011,3.1626,3.0893,3.0458,3.0398,3.0406,3.0394,3.039,3.0398,3.0398,3.0398,3.0398,3.0398,3.0398,3.0398,3.0398,3.0398,3.0398,3.0398,3.0398,3.0398,3.0398,3.0398,3.0398,3.0398,3.0398,3.0398,3.0398,3.0398,3.0398,3.0398,3.0398,3.0398,3.0398,3.0398,3.0359,3.0398,3.0398,3.0398,3.0398,3.0398,3.0379,3.0398,3.0398,3.0398,3.0398,3.0398,3.0398,3.0398,3.0398,3.0398,3.039,3.0402,3.0447,3.049,3.05,3.0559,3.0595,3.0485,3.0028,2.9492,2.8909,2.8634,2.8636,2.8379,2.7785,2.7422,2.7266,2.6816,2.6191,2.584,2.5742,2.5703,2.5703,2.5697,2.5703,2.5696,2.5687,2.5671,3.9658,3.9695,3.9614,3.9752,3.9733,3.9758,3.9658,3.962,3.962,3.962,3.9602,3.9602,3.962,3.962,3.9602,3.962,3.9739,3.9811,3.976,3.9708,3.9689,3.9708,3.9731,3.9758,3.9762,3.9694,3.9138,3.8801,3.8518,3.7294,3.6626,3.6492,3.5748,3.5033,3.4345,3.3467,3.2601,3.1815,3.0987,3.0475,3.0386,3.0402,3.041,3.0398,3.0398,3.0398,3.0398,3.0398,3.0398,3.0398,3.0398,3.0398,3.0398,3.0398,3.0398,3.0398,3.0398,3.0398,3.0398,3.0398,3.0398,3.0398,3.0398,3.0398,3.0398,3.0398,3.0398,3.0398,3.0398,3.0398,3.0398,3.0398,3.0398,3.0398,3.0398,3.0398,3.0398,3.0398,3.0398,3.0398,3.0398,3.0398,3.0398,3.0398,3.0398,3.0398,3.039,3.0402,3.0406,3.0458,3.049,3.051,3.0559,3.0597,3.0632,3.0568,3.0127,2.9705,2.9572,2.9445,2.906,2.8545,2.8376,2.8144,2.7246,2.6602,2.6133,2.6016,2.5742,2.5698,2.5691,2.5703,2.5693,2.5681,2.5668,4.0422,4.0497,4.1041,4.0929,4.044,4.0416,4.0134,3.962,3.962,3.962,3.962,3.962,3.962,3.962,3.962,3.9877,4.0384,4.0453,4.0171,3.9763,3.9669,3.9674,3.9679,3.9722,3.975,3.9785,3.9707,3.9333,3.8708,3.7792,3.7113,3.6577,3.583,3.5353,3.5053,3.4263,3.3397,3.2531,3.1711,3.1037,3.0479,3.039,3.0398,3.0398,3.0398,3.0398,3.0398,3.0398,3.0398,3.0398,3.0398,3.0398,3.0398,3.0398,3.0398,3.0398,3.0398,3.0398,3.0398,3.0398,3.0398,3.0398,3.0398,3.0398,3.0398,3.0398,3.0398,3.0398,3.0398,3.0398,3.0398,3.0398,3.0398,3.0398,3.0398,3.0398,3.0398,3.0398,3.0398,3.0398,3.0398,3.0398,3.0398,3.0398,3.0398,3.039,3.0402,3.0386,3.0398,3.046,3.0481,3.0491,3.0559,3.0607,3.0623,3.0629,3.0416,3.0212,3.0161,3.01,2.9715,2.942,2.9252,2.8769,2.7851,2.7109,2.6641,2.625,2.5996,2.5735,2.5689,2.5698,2.5704,2.5675,2.5668,4.0959,4.1259,4.1766,4.171,4.121,4.0967,4.0516,4.0009,3.9733,3.962,3.962,3.962,3.962,3.962,3.962,4.0046,4.0741,4.0797,4.0703,4.044,4.0121,3.994,3.9726,3.9712,3.9703,3.9758,3.987,3.9688,3.92,3.8499,3.7769,3.7012,3.6238,3.5705,3.5422,3.4634,3.3897,3.3295,3.2275,3.1448,3.0948,3.0564,3.0398,3.0398,3.0398,3.0398,3.0398,3.0398,3.0398,3.0398,3.0398,3.0398,3.0398,3.0398,3.0398,3.0398,3.0398,3.0398,3.0398,3.0398,3.0398,3.0398,3.0398,3.0398,3.0398,3.0398,3.0398,3.0398,3.0398,3.0398,3.0398,3.0379,3.0379,3.0359,3.0398,3.0398,3.0398,3.0398,3.0398,3.0398,3.0398,3.0398,3.0398,3.0398,3.0398,3.039,3.0394,3.0428,3.0439,3.049,3.0491,3.053,3.0569,3.0588,3.0615,3.0621,3.0645,3.062,3.0631,3.057,3.0388,3.0172,3.0,2.9453,2.8672,2.7793,2.7246,2.6699,2.6328,2.607,2.5769,2.5701,2.569,2.5707,2.5678,4.1293,4.193,4.2096,4.2179,4.1972,4.1355,4.0942,4.0628,4.0046,3.9714,3.9639,3.962,3.962,3.962,3.962,4.0084,4.0778,4.0966,4.1304,4.1511,4.1154,4.0478,3.9714,3.9669,3.9698,3.9708,3.9758,3.9807,3.9721,3.9068,3.8461,3.7597,3.688,3.6238,3.5446,3.4614,3.4295,3.3891,3.2679,3.1948,3.1641,3.0936,3.0456,3.0417,3.0398,3.0398,3.0398,3.0398,3.0398,3.0398,3.0398,3.0398,3.0398,3.0398,3.0398,3.0398,3.0398,3.0398,3.0398,3.0398,3.0398,3.0398,3.0398,3.0398,3.0398,3.0398,3.0398,3.0398,3.0398,3.0379,3.0379,3.0336,3.0297,3.0309,3.0348,3.0379,3.0398,3.0398,3.0379,3.0398,3.0398,3.0398,3.0398,3.0398,3.0398,3.039,3.0394,3.0447,3.0499,3.0519,3.055,3.0559,3.0588,3.0598,3.0606,3.0613,3.0637,3.0649,3.0724,3.0755,3.079,3.0654,3.0554,3.0019,2.9434,2.8574,2.7871,2.7344,2.6718,2.6266,2.6026,2.5802,2.5696,2.571,2.5697,4.252,4.2782,4.3409,4.3381,4.2912,4.264,4.186,4.0854,4.0591,4.0121,3.9733,3.962,3.9596,3.962,3.9614,4.0328,4.1278,4.1597,4.1755,4.1916,4.183,4.0872,3.9846,3.9669,3.9693,3.9698,3.975,3.98,3.9832,3.9195,3.846,3.7695,3.6996,3.6194,3.5436,3.5182,3.4768,3.4276,3.3853,3.2852,3.1872,3.1545,3.1025,3.0436,3.0417,3.0417,3.0398,3.0398,3.0398,3.0398,3.0398,3.0398,3.0398,3.0398,3.0398,3.0398,3.0398,3.0398,3.0398,3.0398,3.0398,3.0398,3.0398,3.0398,3.0398,3.0398,3.0398,3.0398,3.0398,3.0398,3.0355,3.0381,3.0362,3.0299,3.0471,3.0426,3.033,3.0323,3.0316,3.0316,3.0359,3.0379,3.0398,3.0398,3.0398,3.039,3.0436,3.0469,3.049,3.0559,3.0588,3.0588,3.0598,3.0598,3.0616,3.0615,3.0602,3.0607,3.0665,3.0745,3.0782,3.0788,3.0751,3.0586,3.0,2.9219,2.8613,2.8066,2.738,2.6772,2.6358,2.6173,2.5852,2.5746,2.571,4.3162,4.3535,4.408,4.4053,4.3614,4.3259,4.2576,4.1686,4.0956,4.0476,4.0008,3.9633,3.9502,3.952,3.952,4.0195,4.1293,4.1405,4.16,4.189,4.1597,4.076,3.9846,3.9645,3.9669,3.9669,3.9698,3.975,3.9743,3.9375,3.8836,3.8137,3.7371,3.6635,3.5917,3.5499,3.5201,3.473,3.4397,3.3641,3.2814,3.2372,3.1756,3.1141,3.0948,3.0833,3.0475,3.0398,3.0398,3.0398,3.0398,3.0398,3.0398,3.0398,3.0398,3.0398,3.0398,3.0398,3.0398,3.0398,3.0398,3.0398,3.0398,3.0398,3.0398,3.0398,3.0398,3.0348,3.0655,3.0854,3.0913,3.1111,3.1249,3.1346,3.1255,3.0997,3.0414,3.0318,3.0311,3.0304,3.0316,3.0367,3.0398,3.0417,3.041,3.0414,3.0447,3.0479,3.05,3.0579,3.0617,3.0617,3.0617,3.0617,3.0607,3.0606,3.0621,3.0599,3.0665,3.0745,3.0778,3.0846,3.0845,3.0739,3.0351,2.9922,2.9335,2.8805,2.833,2.7721,2.7095,2.6642,2.6437,2.6253,2.6139,4.3457,4.4184,4.4244,4.4285,4.4136,4.3453,4.3071,4.2697,4.1409,4.0726,4.0408,3.9754,3.9418,3.9418,3.9444,3.9866,4.0643,4.0745,4.1127,4.1293,4.1001,4.0209,3.9665,3.9577,3.962,3.9602,3.9669,3.9693,3.9703,3.9762,3.9394,3.8607,3.7928,3.7238,3.6389,3.5741,3.5436,3.522,3.4762,3.4295,3.3853,3.3314,3.266,3.1968,3.1833,3.1525,3.1044,3.0814,3.0794,3.0706,3.0494,3.0398,3.0398,3.0398,3.0398,3.0398,3.0398,3.0398,3.0398,3.0398,3.0494,3.059,3.0609,3.0602,3.0802,3.0936,3.0943,3.0912,3.129,3.1629,3.1755,3.2254,3.2374,3.2314,3.2419,3.1835,3.0939,3.0535,3.0542,3.0529,3.0599,3.0605,3.0636,3.0667,3.0737,3.1368,3.1248,3.1185,3.109,3.1004,3.0859,3.0617,3.0617,3.0617,3.0598,3.0607,3.0604,3.0626,3.0691,3.0764,3.0778,3.0824,3.0841,3.0735,3.0545,3.0312,2.9961,2.9509,2.9072,2.8615,2.7971,2.7613,2.7351,2.7212,2.7082,4.3887,4.4055,4.4055,4.4116,4.4177,4.4009,4.3573,4.2911,4.195,4.1147,4.0531,3.9746,3.9391,3.9391,3.941,3.984,4.0456,4.0512,4.0763,4.0707,4.008,3.9668,3.9469,3.9527,3.9577,3.9602,3.962,3.9645,3.9693,3.9665,3.9418,3.8734,3.8039,3.7204,3.653,3.5848,3.535,3.536,3.5229,3.4834,3.4353,3.4083,3.3526,3.2737,3.2602,3.2545,3.2429,3.2372,3.2372,3.2083,3.1237,3.0609,3.059,3.0533,3.0571,3.059,3.0513,3.0475,3.0436,3.0571,3.0725,3.1359,3.1436,3.1698,3.2333,3.225,3.2295,3.2327,3.242,3.2455,3.2526,3.2496,3.2683,3.2728,3.2689,3.2534,3.2145,3.2069,3.2015,3.2063,3.2086,3.2256,3.2263,3.218,3.2225,3.2389,3.2251,3.2111,3.1873,3.1584,3.1381,3.1178,3.0878,3.0917,3.083,3.0771,3.0604,3.0618,3.0704,3.0778,3.0789,3.0794,3.0833,3.0866,3.0876,3.0624,3.0351,3.0,2.9529,2.9171,2.8869,2.8511,2.8232,2.8109,2.7823,4.4005,4.4005,4.4005,4.4055,4.4085,4.4085,4.3651,4.2843,4.2042,4.1259,4.044,3.9602,3.9275,3.9275,3.9293,3.9508,3.9815,3.9954,3.9935,3.9888,3.9541,3.9436,3.9399,3.9451,3.9502,3.9502,3.952,3.9546,3.9596,3.9588,3.9472,3.9154,3.8412,3.7755,3.6975,3.6203,3.571,3.5388,3.5412,3.521,3.4891,3.4795,3.4391,3.3545,3.3141,3.2891,3.2852,3.2872,3.2872,3.2679,3.2064,3.1583,3.1583,3.1564,3.1545,3.1583,3.1583,3.1583,3.1583,3.1602,3.1795,3.2205,3.227,3.2481,3.2775,3.2897,3.2837,3.2891,3.3077,3.3337,3.3617,3.3652,3.3582,3.3582,3.3564,3.3563,3.3487,3.3044,3.2661,3.2691,3.2622,3.2699,3.2823,3.3081,3.2987,3.2807,3.281,3.269,3.2654,3.2405,3.2309,3.2048,3.1497,3.1245,3.1149,3.0945,3.0632,3.0626,3.0683,3.0755,3.0794,3.0798,3.082,3.086,3.0873,3.0917,3.0644,3.0312,3.0156,3.0093,2.9851,2.9394,2.9074,2.8931,2.8525,4.3974,4.3974,4.4005,4.4005,4.4005,4.4005,4.354,4.2742,4.1924,4.1155,4.0327,3.9491,3.9129,3.9101,3.9129,3.9101,3.9147,3.9212,3.9332,3.9303,3.933,3.9301,3.9301,3.9346,3.9328,3.9346,3.9418,3.9444,3.9476,3.9489,3.9526,3.951,3.8987,3.8148,3.7451,3.6822,3.6045,3.54,3.5364,3.5407,3.5397,3.5378,3.5007,3.4416,3.3878,3.3519,3.3519,3.348,3.3365,3.3263,3.3282,3.3282,3.3224,3.2949,3.2891,3.2833,3.2686,3.2615,3.2577,3.2712,3.2788,3.3019,3.3102,3.321,3.3325,3.3437,3.3398,3.3467,3.3729,3.4196,3.4774,3.4604,3.462,3.4653,3.473,3.4788,3.4563,3.3657,3.3253,3.3182,3.3443,3.3605,3.3532,3.3647,3.3421,3.3276,3.3318,3.3307,3.3291,3.3235,3.314,3.2792,3.2242,3.1671,3.1507,3.1429,3.1078,3.0715,3.0727,3.075,3.0812,3.0804,3.081,3.0813,3.0849,3.0875,3.0898,3.0703,3.0684,3.0898,3.0712,3.0174,2.9913,2.9751,2.9324,4.3929,4.3929,4.3974,4.4005,4.4005,4.4005,4.3503,4.2742,4.1887,4.1126,4.0308,3.951,3.9101,3.9101,3.9101,3.9101,3.9082,3.9129,3.9129,3.9129,3.9156,3.9156,3.9175,3.9202,3.9156,3.9202,3.9275,3.9373,3.9418,3.9451,3.9508,3.94,3.8977,3.8294,3.7583,3.6805,3.6186,3.549,3.5377,3.5398,3.5412,3.5441,3.5402,3.5081,3.4779,3.4726,3.4789,3.4832,3.4889,3.4908,3.4889,3.4851,3.4539,3.364,3.3167,3.3109,3.3154,3.3204,3.3177,3.3004,3.325,3.3676,3.3901,3.4242,3.4591,3.4718,3.4464,3.4533,3.4543,3.4737,3.479,3.4749,3.4727,3.4722,3.4703,3.4706,3.4632,3.443,3.4207,3.4149,3.4391,3.4516,3.4369,3.4316,3.4338,3.4351,3.4449,3.4299,3.4121,3.4028,3.3914,3.3488,3.2966,3.2396,3.1894,3.1816,3.1592,3.0998,3.0847,3.0807,3.0827,3.0803,3.0793,3.0801,3.0821,3.0831,3.0859,3.0898,3.0918,3.0918,3.0868,3.0819,3.054,3.0242,3.0377,4.3412,4.3851,4.3883,4.3915,4.3823,4.3465,4.2866,4.2069,4.1301,4.0494,3.9788,3.9287,3.9101,3.9101,3.9101,3.9101,3.9101,3.9101,3.9101,3.9101,3.9101,3.9101,3.9101,3.9101,3.9101,3.9129,3.9202,3.9275,3.9301,3.9399,3.9476,3.9458,3.9246,3.8754,3.8031,3.7356,3.6594,3.5957,3.5506,3.532,3.535,3.5398,3.5383,3.5364,3.535,3.533,3.5315,3.5315,3.5296,3.5277,3.5296,3.532,3.5051,3.4683,3.4117,3.4093,3.4059,3.4103,3.4127,3.4108,3.4342,3.4623,3.4661,3.4799,3.5073,3.5083,3.5072,3.5001,3.4908,3.4769,3.4706,3.4623,3.4599,3.4551,3.4555,3.4558,3.4561,3.4645,3.4689,3.4771,3.4718,3.4754,3.4973,3.5018,3.5232,3.5383,3.5488,3.5245,3.4901,3.4781,3.4629,3.4408,3.3924,3.3267,3.2745,3.2522,3.2213,3.1601,3.1239,3.1193,3.1034,3.1086,3.0925,3.0802,3.0804,3.0979,3.084,3.0879,3.0898,3.0915,3.0888,3.0858,3.0816,3.0788,3.079,4.2846,4.3686,4.3738,4.366,4.342,4.2894,4.2106,4.123,4.064,3.9927,3.9129,3.9101,3.9101,3.9101,3.9101,3.9101,3.9101,3.9101,3.9101,3.9101,3.9101,3.9101,3.9101,3.9101,3.9101,3.9101,3.9129,3.9129,3.9183,3.9301,3.9399,3.9458,3.9583,3.9265,3.8493,3.7671,3.7129,3.6367,3.5651,3.5261,3.5289,3.53,3.53,3.5285,3.5266,3.527,3.5239,3.5239,3.5239,3.5239,3.5258,3.5258,3.5261,3.5245,3.5242,3.5239,3.527,3.5251,3.5193,3.5155,3.5009,3.5095,3.5155,3.5124,3.507,3.5019,3.4908,3.4811,3.4749,3.4666,3.4602,3.4517,3.4469,3.4423,3.4404,3.4409,3.445,3.4517,3.4583,3.4649,3.4772,3.487,3.5001,3.5126,3.5209,3.5339,3.5446,3.5541,3.5244,3.5338,3.5264,3.5287,3.493,3.4234,3.3731,3.3402,3.2958,3.2319,3.2104,3.2034,3.1736,3.1501,3.1345,3.132,3.1239,3.1357,3.1116,3.0892,3.0898,3.0916,3.0907,3.088,3.0819,3.0791,3.0794,4.2554,4.3373,4.3461,4.3143,4.2603,4.2433,4.1544,4.0381,4.0219,3.9767,3.9007,3.9045,3.9101,3.9101,3.9101,3.9101,3.9101,3.9101,3.9101,3.9101,3.9101,3.9101,3.9101,3.9101,3.9101,3.9101,3.9101,3.9101,3.9129,3.9202,3.9301,3.9399,3.9433,3.9175,3.8606,3.7929,3.7011,3.6273,3.5511,3.5193,3.5277,3.5289,3.5254,3.5223,3.5209,3.5193,3.5143,3.5126,3.5126,3.5108,3.5127,3.5127,3.511,3.511,3.5092,3.5073,3.5089,3.5122,3.5141,3.5143,3.5126,3.5091,3.5056,3.502,3.4983,3.4908,3.4791,3.4728,3.4645,3.458,3.4517,3.445,3.4427,3.4404,3.4381,3.4363,3.4386,3.445,3.4495,3.4561,3.4668,3.4791,3.4908,3.5038,3.5143,3.5277,3.5383,3.5482,3.5566,3.5596,3.5631,3.5577,3.553,3.4911,3.4621,3.4311,3.378,3.3103,3.2958,3.286,3.2469,3.2171,3.2227,3.2168,3.2036,3.1792,3.158,3.1339,3.1054,3.0916,3.0907,3.0862,3.0801,3.0791,3.0794,4.0962,4.2414,4.254,4.2428,4.2024,4.1247,4.0556,4.0007,3.9552,3.9243,3.9005,3.8979,3.9007,3.9017,3.9073,3.9101,3.9101,3.9101,3.9101,3.9101,3.9101,3.9101,3.9101,3.9101,3.9101,3.9101,3.9101,3.9101,3.9129,3.9156,3.9256,3.9283,3.9432,3.9402,3.8888,3.829,3.7605,3.6744,3.578,3.5148,3.5162,3.5176,3.5176,3.5145,3.5145,3.5091,3.5056,3.5038,3.502,3.5001,3.4964,3.4964,3.4945,3.4927,3.4927,3.4907,3.4908,3.4945,3.5001,3.5001,3.4983,3.4946,3.4888,3.4887,3.483,3.4751,3.4668,3.4583,3.4517,3.4473,3.4427,3.4363,3.4316,3.4335,3.4335,3.4311,3.4316,3.4386,3.445,3.4495,3.4617,3.4896,3.5113,3.5249,3.5284,3.5209,3.5324,3.5417,3.5515,3.5572,3.5639,3.5684,3.5626,3.5452,3.5317,3.5123,3.464,3.41,3.3877,3.3664,3.3151,3.2934,3.3052,3.2999,3.2828,3.2532,3.2154,3.1649,3.1248,3.1053,3.0907,3.0903,3.0877,3.0791,3.0794,3.9491,4.0906,4.1306,4.1379,4.1107,3.9993,3.9542,3.9401,3.8946,3.8762,3.8851,3.8862,3.8921,3.8979,3.9036,3.9073,3.9073,3.9101,3.9101,3.9101,3.9101,3.9101,3.9101,3.9101,3.9101,3.9101,3.9101,3.9101,3.9129,3.9156,3.9183,3.9192,3.9309,3.9395,3.9264,3.8625,3.7792,3.6677,3.5552,3.5021,3.502,3.5057,3.5038,3.5001,3.5001,3.5001,3.4964,3.4946,3.4927,3.485,3.485,3.4811,3.4791,3.4752,3.4751,3.4728,3.4728,3.473,3.4791,3.4811,3.4831,3.481,3.4749,3.4724,3.4645,3.458,3.4539,3.4495,3.4409,3.4381,3.4335,3.4293,3.4269,3.4245,3.424,3.4216,3.4277,3.4507,3.4782,3.5011,3.5192,3.5396,3.556,3.5605,3.5496,3.5257,3.5242,3.5377,3.546,3.5579,3.5628,3.5673,3.5684,3.5646,3.5626,3.5491,3.5143,3.4979,3.4758,3.4594,3.4168,3.3964,3.3999,3.3872,3.3641,3.3273,3.2904,3.2148,3.1443,3.1464,3.1399,3.1099,3.0975,3.0866,3.0794,3.8575,3.8812,3.9777,3.982,3.9301,3.9247,3.8898,3.854,3.8455,3.8528,3.8689,3.8822,3.8862,3.8921,3.895,3.9026,3.9026,3.9092,3.9073,3.9101,3.9101,3.9101,3.9101,3.9101,3.9101,3.9101,3.9101,3.9101,3.9101,3.9101,3.9156,3.921,3.9237,3.9309,3.9137,3.8615,3.7582,3.6494,3.5432,3.4925,3.4869,3.487,3.487,3.4831,3.4831,3.4812,3.4809,3.4809,3.4769,3.4708,3.4708,3.4668,3.4626,3.4607,3.4583,3.4561,3.4539,3.452,3.4561,3.4687,3.4769,3.4749,3.4687,3.458,3.4495,3.445,3.4409,3.4404,3.434,3.4316,3.4269,3.4282,3.4426,3.4537,3.468,3.4829,3.4859,3.482,3.5114,3.5493,3.5787,3.6032,3.6252,3.6356,3.6196,3.5949,3.5567,3.5665,3.5518,3.5566,3.5596,3.5631,3.5673,3.5684,3.5684,3.5549,3.5414,3.5394,3.5289,3.5338,3.532,3.5175,3.4805,3.4692,3.4418,3.4041,3.3765,3.3445,3.2998,3.2305,3.1927,3.1762,3.1287,3.0967,3.0872,3.7364,3.7439,3.7998,3.8386,3.8738,3.8402,3.8186,3.8108,3.8138,3.8271,3.8469,3.8572,3.8683,3.8762,3.8851,3.891,3.8939,3.9007,3.9036,3.9064,3.9073,3.9101,3.9101,3.9101,3.9101,3.9101,3.9101,3.9101,3.9101,3.9101,3.9101,3.9129,3.9156,3.921,3.9021,3.8506,3.7536,3.6653,3.5769,3.5192,3.4708,3.471,3.4691,3.467,3.4689,3.4647,3.4623,3.4623,3.4561,3.4539,3.4517,3.4517,3.4476,3.4473,3.4473,3.445,3.4427,3.4427,3.4404,3.4514,3.4539,3.4558,3.4514,3.445,3.4386,3.4363,3.4358,3.4335,3.4349,3.4375,3.4296,3.4705,3.507,3.5126,3.5274,3.546,3.5547,3.5491,3.5805,3.6334,3.656,3.6746,3.6964,3.7144,3.6931,3.6673,3.6264,3.5933,3.5883,3.5714,3.5784,3.5736,3.5739,3.5704,3.5704,3.5704,3.5704,3.5704,3.5704,3.5715,3.5716,3.5669,3.5359,3.5297,3.5266,3.5003,3.4886,3.4987,3.4415,3.334,3.2807,3.2563,3.197,3.1282,3.1211,3.6719,3.6702,3.6846,3.7365,3.8026,3.7735,3.7649,3.7739,3.7828,3.8002,3.8223,3.8368,3.8465,3.8578,3.867,3.8743,3.8822,3.891,3.8921,3.8979,3.9007,3.9045,3.9045,3.9045,3.9045,3.9073,3.9092,3.9092,3.9045,3.9045,3.9017,3.9064,3.9073,3.9101,3.8961,3.8401,3.7653,3.6858,3.6067,3.525,3.4607,3.4517,3.4517,3.4539,3.4539,3.4539,3.4517,3.4495,3.4431,3.4409,3.4386,3.4381,3.434,3.434,3.434,3.4358,3.4358,3.4358,3.4358,3.4404,3.4386,3.4404,3.4386,3.4363,3.434,3.433,3.4344,3.4753,3.4667,3.4661,3.481,3.5535,3.5832,3.5906,3.6073,3.624,3.6329,3.6342,3.6771,3.7193,3.7384,3.761,3.8051,3.8233,3.7766,3.747,3.705,3.6766,3.6723,3.6483,3.6138,3.6021,3.5875,3.5789,3.5704,3.5742,3.5762,3.5704,3.5704,3.5704,3.5706,3.5698,3.5708,3.5581,3.5613,3.5833,3.5758,3.5529,3.4886,3.4062,3.3589,3.3085,3.2848,3.226,3.2037,3.6702,3.6719,3.6684,3.6823,3.7132,3.7238,3.7372,3.7429,3.7577,3.7739,3.8002,3.8171,3.8256,3.8322,3.8433,3.8559,3.8689,3.878,3.8822,3.8862,3.8939,3.8892,3.8921,3.8979,3.9007,3.9007,3.9007,3.9007,3.8979,3.895,3.8921,3.8921,3.895,3.895,3.8933,3.8229,3.7433,3.6636,3.5892,3.5188,3.4604,3.4405,3.4316,3.4358,3.4363,3.4363,3.4363,3.4363,3.434,3.4316,3.4316,3.4293,3.4245,3.4245,3.4221,3.424,3.424,3.424,3.4258,3.4335,3.4414,3.4391,3.4405,3.4535,3.4357,3.4407,3.476,3.5411,3.546,3.5813,3.6222,3.6612,3.663,3.6742,3.6928,3.7195,3.7296,3.741,3.7797,3.8078,3.8284,3.8544,3.9124,3.9368,3.8731,3.8269,3.7832,3.7613,3.7482,3.7243,3.6826,3.6742,3.6578,3.6524,3.6439,3.5974,3.582,3.5762,3.5704,3.5704,3.5706,3.5698,3.5718,3.5737,3.5799,3.5872,3.5928,3.5914,3.5302,3.4725,3.3976,3.3495,3.3375,3.3177,3.282,3.6444,3.6444,3.6544,3.6626,3.669,3.6987,3.7126,3.7164,3.7337,3.7522,3.7649,3.7828,3.7985,3.8054,3.8171,3.8285,3.8437,3.8559,3.8634,3.8732,3.8792,3.8881,3.891,3.891,3.8939,3.8939,3.8921,3.8921,3.8921,3.891,3.891,3.891,3.8851,3.8881,3.8884,3.8533,3.8126,3.735,3.6564,3.5777,3.5006,3.4451,3.4161,3.4185,3.4173,3.4197,3.4221,3.424,3.4245,3.4245,3.4245,3.4221,3.4197,3.4216,3.4216,3.4216,3.4234,3.4494,3.4829,3.5064,3.4785,3.4673,3.4803,3.5058,3.5052,3.5609,3.598,3.6185,3.6278,3.6519,3.6612,3.7225,3.7448,3.7652,3.7894,3.8348,3.8569,3.8648,3.8876,3.9002,3.9171,3.9175,3.9529,3.9689,3.9239,3.9085,3.8728,3.8246,3.8041,3.7882,3.7596,3.7649,3.759,3.7479,3.729,3.6806,3.6535,3.6555,3.6149,3.5704,3.5706,3.6008,3.5854,3.596,3.5924,3.5892,3.5933,3.5935,3.5877,3.5405,3.4693,3.4276,3.4254,3.3841,3.3272,3.6284,3.6301,3.6385,3.6444,3.6485,3.6731,3.6908,3.7027,3.7203,3.7317,3.7392,3.7522,3.7631,3.7757,3.7898,3.8036,3.8174,3.8303,3.8415,3.8546,3.8621,3.8683,3.8743,3.8822,3.8851,3.8851,3.8881,3.8881,3.8862,3.8851,3.8822,3.881,3.8792,3.8792,3.8803,3.8693,3.8361,3.7642,3.6924,3.6288,3.5449,3.4774,3.4375,3.4185,3.4099,3.4092,3.4129,3.4154,3.4148,3.4197,3.4216,3.4216,3.4216,3.4216,3.4216,3.4216,3.4574,3.4909,3.5318,3.5843,3.5609,3.533,3.5665,3.585,3.5943,3.6259,3.6705,3.6946,3.7076,3.7299,3.7522,3.8135,3.8228,3.8432,3.859,3.8998,3.9136,3.9178,3.9275,3.9439,3.9552,3.9631,3.9684,3.9712,3.9592,3.9615,3.9604,3.9126,3.8657,3.8539,3.843,3.8485,3.8344,3.8078,3.7909,3.7638,3.7425,3.7367,3.6903,3.6361,3.6674,3.7082,3.6619,3.6222,3.6398,3.6424,3.6046,3.5935,3.6054,3.5932,3.5489,3.523,3.5152,3.468,3.4095,3.6301,3.6284,3.6284,3.6284,3.6343,3.6585,3.6806,3.697,3.6987,3.7105,3.7259,3.7317,3.7392,3.7429,3.7595,3.7757,3.7916,3.8018,3.8153,3.8271,3.8401,3.8446,3.851,3.864,3.8701,3.8743,3.8743,3.8713,3.8773,3.8762,3.8719,3.8738,3.8719,3.8719,3.8738,3.8646,3.8334,3.7904,3.7437,3.6675,3.5735,3.5246,3.4733,3.4377,3.4142,3.4136,3.4173,3.4179,3.4173,3.4197,3.4216,3.4216,3.4216,3.4216,3.4216,3.4481,3.5088,3.538,3.595,3.653,3.6827,3.6705,3.6816,3.6816,3.6816,3.7002,3.7485,3.7782,3.7949,3.8395,3.8804,3.8859,3.8915,3.8971,3.8971,3.9156,3.9229,3.9309,3.9388,3.9476,3.9552,3.9607,3.9684,3.9712,3.9781,3.9878,3.9869,3.9891,3.9522,3.9353,3.9273,3.9315,3.9084,3.86,3.8419,3.847,3.8295,3.8237,3.7947,3.756,3.7912,3.7934,3.7482,3.7153,3.7136,3.7047,3.6908,3.6662,3.6426,3.6283,3.6348,3.5854,3.5678,3.5698,3.5344,3.6276,3.6284,3.6284,3.6284,3.6284,3.6402,3.6568,3.6766,3.6766,3.6846,3.6904,3.7066,3.7126,3.7143,3.7374,3.754,3.7667,3.7774,3.7915,3.8052,3.8153,3.8252,3.8336,3.8433,3.8515,3.8528,3.8528,3.8559,3.8621,3.864,3.8707,3.8707,3.8689,3.8689,3.8707,3.8707,3.8505,3.8279,3.7886,3.7098,3.6215,3.5678,3.501,3.4444,3.4136,3.4129,3.4154,3.4161,3.4173,3.4197,3.4197,3.4216,3.4216,3.4234,3.4327,3.507,3.5504,3.5913,3.6965,3.7429,3.77,3.8116,3.8247,3.7986,3.7912,3.7949,3.8358,3.8488,3.8562,3.8859,3.899,3.9045,3.9101,3.9129,3.9175,3.9229,3.9301,3.9399,3.9469,3.9546,3.9577,3.9607,3.9684,3.9708,3.9777,3.9933,4.0077,4.0157,4.0176,3.9991,3.9935,3.9962,3.992,3.9489,3.9514,3.9572,3.9301,3.9069,3.8837,3.8578,3.8485,3.8421,3.819,3.8034,3.7907,3.7923,3.7971,3.7661,3.7285,3.7436,3.746,3.6774,3.6225,3.6166,3.6049,3.6165,3.6276,3.6293,3.6276,3.6284,3.6284,3.6402,3.6544,3.6602,3.6643,3.6684,3.6846,3.6926,3.6948,3.7126,3.7317,3.7374,3.7522,3.7631,3.7739,3.7897,3.7984,3.8104,3.8204,3.8285,3.8336,3.8368,3.8415,3.8446,3.8528,3.8596,3.8609,3.8621,3.867,3.8689,3.8707,3.8738,3.8566,3.8247,3.7642,3.6925,3.6186,3.5399,3.4666,3.4351,3.4154,3.4142,3.4148,3.4173,3.4197,3.4216,3.4216,3.4327,3.4494,3.4791,3.5535,3.6322,3.6861,3.7634,3.8172,3.8618,3.8934,3.9082,3.8804,3.8674,3.8674,3.8859,3.899,3.9027,3.9082,3.9082,3.9101,3.9129,3.9175,3.9202,3.9256,3.9373,3.9469,3.952,3.9596,3.9626,3.9631,3.9661,3.9684,3.9754,3.9911,4.0036,4.0118,4.0215,4.0226,4.0265,4.0352,4.0467,4.0424,4.0468,4.0346,4.0113,3.9881,3.9843,3.9584,3.927,3.9226,3.9277,3.8974,3.859,3.8603,3.8599,3.8498,3.828,3.8415,3.84,3.7848,3.7087,3.642,3.6284,3.5865,3.6062,3.6148,3.6251,3.6284,3.6284,3.6301,3.6266,3.634,3.6492,3.6626,3.6702,3.6725,3.6788,3.6948,3.7048,3.7147,3.7299,3.7374,3.7392,3.7595,3.7739,3.7828,3.7933,3.8052,3.8189,3.8256,3.8238,3.835,3.8401,3.8483,3.851,3.8517,3.8566,3.864,3.8689,3.8719,3.8737,3.8637,3.829,3.7674,3.7007,3.6311,3.5435,3.4829,3.4327,3.4234,3.4216,3.4216,3.4216,3.4216,3.4216,3.4624,3.5144,3.5535,3.6117,3.7028,3.7623,3.8154,3.8637,3.8878,3.9064,3.9082,3.9027,3.899,3.8971,3.9064,3.9101,3.9101,3.9101,3.9101,3.9129,3.9156,3.9202,3.9256,3.9328,3.9425,3.9495,3.9546,3.9596,3.962,3.9631,3.9684,3.9708,3.9735,3.9889,3.9994,4.0077,4.0234,4.0364,4.0543,4.0654,4.0612,4.0687,4.0707,4.0623,4.0694,4.0616,4.0551,4.0486,4.0084,4.0225,4.049,4.0041,3.9551,3.9213,3.9091,3.922,3.9312,3.9199,3.9113,3.8829,3.8141,3.7321,3.6967,3.4423,3.513,3.5882,3.6251,3.6284,3.6284,3.6249,3.6249,3.5721,3.5808,3.6316,3.6468,3.6509,3.6522,3.669,3.6851,3.7009,3.7048,3.7164,3.7279,3.7429,3.7485,3.754,3.7703,3.781,3.7863,3.7951,3.8088,3.8153,3.8271,3.8336,3.8415,3.8455,3.8504,3.8559,3.864,3.8732,3.8851,3.8826,3.8541,3.7942,3.7598,3.7039,3.6017,3.52,3.4791,3.4587,3.4271,3.4234,3.4216,3.4216,3.455,3.5163,3.5962,3.6668,3.7262,3.7671,3.8172,3.8599,3.8915,3.9045,3.9101,3.9101,3.9101,3.9082,3.9101,3.9101,3.9101,3.9101,3.9101,3.9129,3.9156,3.9202,3.9256,3.9328,3.9418,3.9532,3.9658,3.9665,3.9708,3.9733,3.9782,3.9854,3.9844,3.98,3.9867,3.9954,4.0095,4.0308,4.0482,4.0801,4.088,4.0622,4.0654,4.0733,4.0778,4.079,4.0803,4.0699,4.073,4.0812,4.077,4.0723,4.0796,4.0551,4.0123,4.0043,4.0457,4.0477,4.0117,3.9878,3.9608,3.9351,3.8668,3.8316,3.3524,3.4177,3.4814,3.517,3.5236,3.5246,3.5287,3.5249,3.4881,3.4915,3.5352,3.5711,3.5959,3.6121,3.6411,3.6667,3.6811,3.6869,3.6948,3.7066,3.7182,3.7241,3.7337,3.7449,3.7522,3.7613,3.7721,3.7863,3.7931,3.8036,3.8138,3.8234,3.8328,3.8392,3.846,3.8572,3.8713,3.8851,3.8881,3.8662,3.8201,3.7932,3.7634,3.6649,3.6129,3.5609,3.5089,3.4773,3.4773,3.4959,3.5182,3.5516,3.6129,3.6779,3.7373,3.7819,3.8209,3.8637,3.8952,3.9101,3.9101,3.9101,3.9101,3.9101,3.9101,3.9101,3.9101,3.9101,3.9101,3.9101,3.9156,3.9183,3.9301,3.9373,3.95,3.9626,4.0139,4.0659,4.0797,4.0947,4.0973,4.1023,4.1073,4.1146,4.1118,4.1192,4.1111,4.1,4.1045,4.09,4.1131,4.1236,4.1081,4.0781,4.07,4.0765,4.079,4.0803,4.1001,4.0889,4.0942,4.0917,4.0887,4.0921,4.094,4.0896,4.0969,4.1094,4.1101,4.0742,4.0562,4.0424,4.0132,3.9897,3.9683,3.278,3.322,3.3615,3.383,3.3877,3.3932,3.4031,3.4105,3.4014,3.3945,3.4076,3.4611,3.5019,3.5561,3.6,3.6353,3.6626,3.6667,3.6748,3.6829,3.6908,3.6987,3.7087,3.7164,3.7317,3.7429,3.754,3.7595,3.765,3.7792,3.7933,3.8034,3.8135,3.8201,3.8378,3.8499,3.8573,3.8755,3.8851,3.8939,3.8692,3.8377,3.8042,3.7652,3.7206,3.6463,3.5925,3.5646,3.5646,3.5925,3.6296,3.663,3.7021,3.7578,3.7894,3.8339,3.8655,3.8934,3.9101,3.9101,3.9101,3.9101,3.9101,3.9101,3.9101,3.912,3.912,3.9314,3.9314,3.9277,3.9332,3.9461,3.9597,3.9836,4.0001,4.012,4.0884,4.1548,4.1736,4.1916,4.1969,4.1995,4.209,4.2184,4.227,4.2385,4.245,4.2458,4.2351,4.2041,4.1953,4.1951,4.1824,4.1459,4.1195,4.1248,4.1467,4.1628,4.1846,4.1396,4.113,4.1296,4.1276,4.096,4.0999,4.1104,4.11,4.1109,4.1099,4.1132,4.097,4.0776,4.0776,4.062,4.0815,3.1331,3.232,3.3136,3.3539,3.3646,3.3761,3.3917,3.3837,3.3309,3.3106,3.3179,3.3317,3.396,3.5221,3.5341,3.5728,3.6312,3.6474,3.6602,3.6742,3.6766,3.6766,3.6829,3.6987,3.7143,3.7259,3.7354,3.7392,3.7449,3.7577,3.7685,3.781,3.7946,3.8065,3.8201,3.831,3.848,3.8664,3.8792,3.8881,3.8979,3.873,3.8488,3.8116,3.7745,3.7151,3.6705,3.65,3.6463,3.6705,3.7188,3.7559,3.7875,3.8284,3.8599,3.8674,3.9008,3.9045,3.9101,3.9101,3.9101,3.9101,3.912,3.9175,3.9212,3.9268,3.95,4.0077,4.0077,3.9955,4.0001,4.0315,4.0525,4.1049,4.1365,4.144,4.1841,4.2074,4.2198,4.2254,4.228,4.2359,4.2479,4.2548,4.2591,4.2707,4.2791,4.2815,4.2955,4.2854,4.2808,4.2776,4.2696,4.2755,4.2729,4.2491,4.2609,4.2744,4.2683,4.2302,4.2043,4.1966,4.1829,4.1688,4.1342,4.1266,4.1245,4.1378,4.1166,4.1188,4.1128,4.1052,4.1111,4.1108,4.1108]},{"header":{"parameterUnit":"m.s-1","parameterCategory":1,"la1":31.0,"la2":29.5877,"lo1":-88.7671,"lo2":-86.6584,"dy":0.0162,"dx":0.0185,"nx":115,"ny":88,"refTime":"2023-06-02T06:00:00:Z","depth":0,"parameterNumber":3,"parameterNumberName":"V-component_of_WINDS"},"data":[0.0,0.0,0.0,0.0,0.0,0.0,0.0,0.0,0.0,0.0,0.0,0.0,0.0,0.0,0.0,0.0,0.0,0.0,0.0,0.0,0.0,0.0,0.0,0.0,0.0,0.0,0.0,0.0,0.0,0.0,0.0,0.0,0.0,0.0,0.0,0.0,0.0,0.0,0.0,0.0,0.0,0.0,0.0,0.0,0.0,0.0,0.0,0.0,0.0,0.0,0.0,0.0,0.0,0.0,0.0,0.0,0.0,0.0,0.0,0.0,0.0,0.0,0.0,0.0,0.0,0.0,0.0,0.0,0.0,0.0,0.0,0.0,0.0,0.0,0.0,0.0,0.0,0.0,0.0,0.0,0.0,0.0,0.0,0.0,0.0,0.0,0.0,0.0,0.0,0.0,0.0,0.0,0.0,0.0,0.0,0.0,0.0,0.0,0.0,0.0,0.0,0.0,0.0,0.0,0.0,0.0,0.0,0.0,0.0,0.0,0.0,0.0,0.0,0.0,0.0,0.0,0.0,0.0,0.0,0.0,0.0,0.0,0.0,0.0,0.0,0.0,0.0,0.0,0.0,0.0,0.0,0.0,0.0,0.0,0.0,0.0,0.0,0.0,0.0,0.0,0.0,0.0,0.0,0.0,0.0,0.0,0.0,0.0,0.0,0.0,0.0,0.0,0.0,0.0,0.0,0.0,0.0,0.0,0.0,0.0,0.0,0.0,0.0,0.0,0.0,0.0,0.0,0.0,0.0,0.0,0.0,0.0,0.0,0.0,0.0,0.0,0.0,0.0,0.0,0.0,0.0,0.0,0.0,0.0,0.0,0.0,0.0,0.0,0.0,0.0,0.0,0.0,0.0,0.0,0.0,0.0,0.0,0.0,0.0,0.0,0.0,0.0,0.0,0.0,0.0,0.0,0.0,0.0,0.0,0.0,0.0,0.0,0.0,0.0,0.0,0.0,0.0,0.0,0.0,0.0,0.0,0.0,0.0,0.0,0.0,0.0,0.0,0.0,0.0,0.0,0.0,0.0,0.0,0.0,0.0,0.0,0.0,0.0,0.0,0.0,0.0,0.0,0.0,0.0,0.0,0.0,0.0,0.0,0.0,0.0,0.0,0.0,0.0,0.0,0.0,0.0,0.0,0.0,0.0,0.0,0.0,0.0,0.0,0.0,0.0,0.0,0.0,0.0,0.0,0.0,0.0,0.0,0.0,0.0,0.0,0.0,0.0,0.0,0.0,0.0,0.0,0.0,0.0,0.0,0.0,0.0,0.0,0.0,0.0,0.0,0.0,0.0,0.0,0.0,0.0,0.0,0.0,0.0,0.0,0.0,0.0,0.0,0.0,0.0,0.0,0.0,0.0,0.0,0.0,0.0,0.0,0.0,0.0,0.0,0.0,0.0,0.0,0.0,0.0,0.0,0.0,0.0,0.0,0.0,0.0,0.0,0.0,0.0,0.0,0.0,0.0,0.0,0.0,0.0,0.0,0.0,0.0,0.0,0.0,0.0,0.0,0.0,0.0,0.0,0.0,0.0,0.0,0.0,0.0,0.0,0.0,0.0,0.0,0.0,0.0,0.0,0.0,0.0,0.0,0.0,0.0,0.0,0.0,0.0,0.0,0.0,0.0,0.0,0.0,0.0,0.0,0.0,0.0,0.0,0.0,0.0,0.0,0.0,0.0,0.0,0.0,0.0,0.0,0.0,0.0,0.0,0.0,0.0,0.0,0.0,0.0,0.0,0.0,0.0,0.0,0.0,0.0,0.0,0.0,0.0,0.0,0.0,0.0,0.0,0.0,0.0,0.0,0.0,0.0,0.0,0.0,0.0,0.0,0.0,0.0,0.0,0.0,0.0,0.0,0.0,0.0,0.0,0.0,0.0,0.0,0.0,0.0,0.0,0.0,0.0,0.0,0.0,0.0,0.0,0.0,0.0,0.0,0.0,0.0,0.0,0.0,0.0,0.0,0.0,0.0,0.0,0.0,0.0,0.0,0.0,0.0,0.0,0.0,0.0,0.0,0.0,0.0,0.0,0.0,0.0,0.0,0.0,0.0,0.0,0.0,0.0,0.0,0.0,0.0,0.0,0.0,0.0,0.0,0.0,0.0,0.0,0.0,0.0,0.0,0.0,0.0,0.0,0.0,0.0,0.0,0.0,0.0,0.0,0.0,0.0,0.0,0.0,0.0,0.0,0.0,0.0,0.0,0.0,0.0,0.0,0.0,0.0,0.0,0.0,0.0,0.0,0.0,0.0,0.0,0.0,0.0,0.0,0.0,0.0,0.0,0.0,0.0,0.0,0.0,0.0,0.0,0.0,0.0,0.0,0.0,0.0,0.0,0.0,0.0,0.0,0.0,0.0,0.0,0.0,0.0,0.0,0.0,0.0,0.0,0.0,0.0,0.0,0.0,0.0,0.0,0.0,0.0,0.0,0.0,0.0,0.0,0.0,0.0,0.0,0.0,0.0,0.0,0.0,0.0,0.0,0.0,0.0,0.0,0.0,0.0,0.0,0.0,0.0,0.0,0.0,0.0,0.0,0.0,0.0,0.0,0.0,0.0,0.0,0.0,0.0,0.0,0.0,0.0,0.0,0.0,0.0,0.0,0.0,0.0,0.0,0.0,0.0,0.0,0.0,0.0,0.0,0.0,0.0,0.0,0.0,0.0,0.0,0.0,0.0,0.0,0.0,0.0,0.0,0.0,0.0,0.0,0.0,0.0,0.0,0.0,0.0,0.0,0.0,0.0,0.0,0.0,0.0,0.0,0.0,0.0,0.0,0.0,0.0,0.0,0.0,0.0,0.0,0.0,0.0,0.0,0.0,0.0,0.0,0.0,0.0,0.0,0.0,0.0,0.0,0.0,0.0,0.0,0.0,0.0,0.0,0.0,0.0,0.0,0.0,0.0,0.0,0.0,0.0,0.0,0.0,0.0,0.0,0.0,0.0,0.0,0.0,0.0,0.0,0.0,0.0,0.0,0.0,0.0,0.0,0.0,0.0,0.0,0.0,0.0,0.0,0.0,0.0,0.0,0.0,0.0,0.0,0.0,0.0,0.0,0.0,0.0,0.0,0.0,0.0,0.0,0.0,0.0,0.0,0.0,0.0,0.0,0.0,0.0,0.0,0.0,0.0,0.0,0.0,0.0,0.0,0.0,0.0,0.0,0.0,0.0,0.0,0.0,0.0,0.0,0.0,0.0,0.0,0.0,0.0,0.0,0.0,0.0,0.0,0.0,0.0,0.0,0.0,0.0,0.0,0.0,0.0,0.0,0.0,0.0,0.0,0.0,0.0,0.0,0.0,0.0,0.0,0.0,0.0,0.0,0.0,0.0,0.0,0.0,0.0,0.0,0.0,0.0,0.0,0.0,0.0,0.0,0.0,0.0,0.0,0.0,0.0,0.0,0.0,0.0,0.0,0.0,0.0,0.0,0.0,0.0,0.0,0.0,0.0,0.0,0.0,0.0,0.0,0.0,0.0,0.0,0.0,0.0,0.0,0.0,0.0,0.0,0.0,0.0,0.0,0.0,0.0,0.0,0.0,0.0,0.0,0.0,0.0,0.0,0.0,0.0,0.0,0.0,0.0,0.0,0.0,0.0,0.0,0.0,0.0,0.0,0.0,0.0,0.0,0.0,0.0,0.0,0.0,0.0,0.0,0.0,0.0,0.0,0.0,0.0,0.0,0.0,0.0,0.0,0.0,0.0,0.0,0.0,0.0,0.0,0.0,0.0,0.0,0.0,0.0,0.0,0.0,0.0,0.0,0.0,0.0,0.0,0.0,0.0,0.0,0.0,0.0,0.0,0.0,0.0,0.0,0.0,0.0,0.0,0.0,0.0,0.0,0.0,0.0,0.0,0.0,0.0,0.0,0.0,0.0,0.0,0.0,0.0,0.0,0.0,0.0,0.0,0.0,0.0,0.0,0.0,0.0,0.0,0.0,0.0,0.0,0.0,0.0,0.0,0.0,0.0,0.0,0.0,0.0,0.0,0.0,0.0,0.0,0.0,0.0,0.0,0.0,0.0,0.0,0.0,0.0,0.0,0.0,0.0,0.0,0.0,0.0,0.0,0.0,0.0,0.0,0.0,0.0,0.0,0.0,0.0,0.0,0.0,0.0,0.0,0.0,0.0,0.0,0.0,0.0,0.0,0.0,0.0,0.0,0.0,0.0,0.0,0.0,0.0,0.0,0.0,0.0,0.0,0.0,0.0,0.0,0.0,0.0,0.0,0.0,0.0,0.0,0.0,0.0,0.0,0.0,0.0,0.0,0.0,0.0,0.0,0.0,0.0472,0.0,0.0,0.0,0.0,0.0,0.0,0.0,0.0,0.0,0.0,0.0,0.0,0.0,0.0,0.0,0.0,0.0,0.0,0.0,0.0,0.0,0.0,0.0,0.0,0.0,0.0,0.0,0.0,0.0,0.0,0.0,0.0,0.0,0.0,0.0,0.0,0.0,0.0,0.0,0.0,0.0,0.0,0.0,0.0,0.0,0.0,0.0,0.0,0.0,0.0,0.0,0.0,0.0,0.0,0.0,0.0,0.0,0.0,0.0,0.0,0.0,0.0,0.0,0.0,0.0,0.0,0.0,0.0,0.0,0.0,0.0,0.0,0.0,0.0,0.0,0.0,0.0,0.0,0.0,0.0,0.0,0.0,0.0,0.0,0.0,0.0,0.0,0.0,0.0,0.0,0.0,0.0,0.0,0.0,0.0,0.0,0.0,0.0,0.0,0.0,0.0,0.0,0.0,0.0,0.0,0.0,0.0,0.0,0.0,0.0,-0.0653,-0.0467,-0.0156,0.0153,0.0474,0.0,0.0,0.0,0.0,0.0,0.0,0.0,0.0,0.0,0.0,0.0,0.0,0.0,0.0,0.0,0.0,0.0,0.0,0.0,0.0,0.0,0.0,0.0,0.0,0.0,0.0,0.0,0.0,0.0,0.0,0.0,0.0,0.0,0.0,0.0,0.0,0.0,0.0,0.0,0.0,0.0,0.0,0.0,0.0,0.0,0.0,0.0,0.0,0.0,0.0,0.0,0.0,0.0,0.0,0.0,0.0,0.0,0.0,0.0,0.0,0.0,0.0,0.0,0.0,0.0,0.0,0.0,0.0,0.0,0.0,0.0,0.0,0.0,0.0,0.0,0.0,0.0,0.0,0.0,0.0,0.0,0.0,0.0,0.0,0.0,0.0,0.0,0.0,0.0,0.0,0.0,0.0,0.0,0.0,0.0,0.0,0.0,0.0,0.0,0.0,0.0,0.0,0.0,0.0,0.0,0.0,0.0,0.0,0.0,0.0,0.0,0.0,-0.0168,0.0165,0.0473,0.0,0.0,0.0,0.0,0.0,0.0,0.0,0.0,0.0,0.0,0.0,0.0,0.0,0.0,0.0,0.0,0.0,0.0,0.0,0.0,0.0,0.0,0.0,0.0,0.0,0.0,0.0,0.0,0.0,0.0,0.0,0.0,0.0,0.0,0.0,0.0,0.0,0.0,0.0,0.0,0.0,0.0,0.0,0.0,0.0,0.0,0.0,0.0,0.0,0.0,0.0,0.0,0.0,0.0,0.0,0.0,0.0,0.0,0.0,0.0,0.0,0.0,0.0,0.0,0.0,0.0,0.0,0.0,0.0,0.0,0.0,0.0,0.0,0.0,0.0,0.0,0.0,0.0,0.0,0.0,0.0,0.0,0.0,0.0,0.0,0.0,0.0,0.0,0.0,0.0,0.0,0.0,0.0,0.0,0.0,0.0,0.0,0.0,0.0,0.0,0.0,0.0,0.0,0.0,0.0,0.0,0.0,0.0,0.0,0.0,-0.0707,-0.0505,-0.0168,0.0,0.0467,0.0,0.0,0.0,0.0,0.0,0.0,0.0,0.0,0.0,0.0,0.0,0.0,0.0,0.0,0.0,0.0,0.0,0.0,0.0,0.0,0.0,0.0,0.0,0.0,0.0,0.0,0.0,0.0,0.0,0.0,0.0,0.0,0.0,0.0,0.0,0.0,0.0,0.0,0.0,0.0,0.0,0.0,0.0,0.0,0.0,0.0,0.0,0.0,0.0,0.0,0.0,0.0,0.0,0.0,0.0,0.0,0.0,0.0,0.0,0.0,0.0,0.0,0.0,0.0,0.0,0.0,0.0,0.0,0.0,0.0,0.0,0.0,0.0,0.0,0.0,0.0,0.0,0.0,0.0,0.0,0.0,0.0,0.0,0.0,0.0,0.0,0.0,0.0,0.0,0.0,0.0,0.0,0.0,0.0,0.0,0.0,0.0,0.0,0.0,0.0,0.0,0.0,0.0,0.0,0.0,0.0,0.0,0.0,0.0,0.0,-0.0707,-0.0504,0.0034,0.0336,0.0,0.0,0.0,0.0,0.0,0.0,0.0,0.0,0.0,0.0,0.0,0.0,0.0,0.0,0.0,0.0,0.0,0.0,0.0,0.0,0.0,0.0,0.0,0.0,0.0,0.0,0.0,0.0,0.0,0.0,0.0,0.0,0.0,0.0,0.0,0.0,0.0,0.0,0.0,0.0,0.0,0.0,0.0,0.0,0.0,0.0,0.0,0.0,0.0,0.0,0.0,0.0,0.0,0.0,0.0,0.0,0.0,0.0,0.0,0.0,0.0,0.0,0.0,0.0,0.0,0.0,0.0,0.0,0.0,0.0,0.0,0.0,0.0,0.0,0.0,0.0,0.0,0.0,0.0,0.0,0.0,0.0,0.0,0.0,0.0,0.0,0.0,0.0,0.0,0.0,0.0,0.0,0.0,0.0,0.0,0.0,0.0,0.0,0.0,0.0,0.0,0.0,0.0,0.0,0.0,0.0,0.0,0.0,0.0,0.0,-0.0875,-0.0673,-0.0403,0.0101,0.0437,0.0504,0.0,0.0,0.0,0.0,0.0,0.0,0.0,0.0,0.0,0.0,0.0,0.0,0.0,0.0,0.0,0.0,0.0,0.0,0.0,0.0,0.0,0.0,0.0,0.0,0.0,0.0,0.0,0.0,0.0,0.0,0.0,0.0,0.0,0.0,0.0,0.0,0.0,0.0,0.0,0.0,0.0,0.0,0.0,0.0,0.0,0.0,0.0,0.0,0.0,0.0,0.0,0.0,0.0,0.0,0.0,0.0,0.0,0.0,0.0,0.0,0.0,0.0,0.0,0.0,0.0,0.0,0.0,0.0,0.0,0.0,0.0,0.0,0.0,0.0,0.0,0.0,0.0,0.0,0.0,0.0,0.0,0.0,0.0,0.0,0.0,0.0,0.0,0.0,0.0,0.0,0.0,0.0,0.0,0.0,0.0,0.0,0.0,0.0,0.0,0.0,0.0,0.0,0.0,0.0,0.0,0.0,0.0,0.0,-0.1179,-0.0943,-0.0606,-0.0235,0.0067,0.0303,0.0,0.0,0.0,0.0,0.0,0.0,0.0,0.0,0.0,0.0,0.0,0.0,0.0,0.0,0.0,0.0,0.0,0.0,0.0,0.0,0.0,0.0,0.0,0.0,0.0,0.0,0.0,0.0,0.0,0.0,0.0,0.0,0.0,0.0,0.0,0.0,0.0,0.0,0.0,0.0,0.0,0.0,0.0,0.0,0.0,0.0,0.0,0.0,0.0,0.0,0.0,0.0,0.0,0.0,0.0,0.0,0.0,0.0,0.0,0.0,0.0,0.0,0.0,0.0,0.0,0.0,0.0,0.0,0.0,0.0,0.0,0.0,0.0,0.0,0.0,0.0,0.0,0.0,0.0,0.0,0.0,0.0,0.0,0.0,0.0,0.0,0.0,0.0,0.0,0.0,0.0,0.0,0.0,0.0,0.0,0.0,0.0,0.0,0.0,0.0,0.0,0.0,0.0,0.0,0.0,0.0,0.0,0.0,0.0,-0.1179,-0.0908,-0.0606,-0.0403,-0.0,0.0303,0.0,0.0,0.0,0.0,0.0,0.0,0.0,0.0,0.0,0.0,0.0,0.0,0.0,0.0,0.0,0.0,0.0,0.0,0.0,0.0,0.0,0.0,0.0,0.0,0.0,0.0,0.0,0.0,0.0,0.0,0.0,0.0,0.0,0.0,0.0,0.0,0.0,0.0,0.0,0.0,0.0,0.0,0.0,0.0,0.0,0.0,0.0,0.0,0.0,0.0,0.0,0.0,0.0,0.0,0.0,0.0,0.0,0.0,0.0,0.0,0.0,0.0,0.0,0.0,0.0,0.0,0.0,0.0,0.0,0.0,0.0,0.0,0.0,0.0,0.0,0.0,0.0,0.0,0.0,0.0,0.0,0.0,0.0,0.0,0.0,0.0,0.0,0.0,0.0,0.0,0.0,0.0,0.0,0.0,0.0,0.0,0.0,0.0,0.0,0.0,0.0,0.0,0.0,0.0,0.0,0.0,0.0,0.0,0.0,-0.1179,0.0,-0.0673,0.0,-0.0101,0.0269,0.0,0.0,0.0,0.0,0.0,0.0,0.0,0.0,0.0,0.0,0.0,0.0,0.0,0.0,0.0,0.0,0.0,0.0,0.0,0.0,0.0,0.0,0.0,0.0,0.0,0.0,0.0,0.0,0.0,0.0,0.0,0.0,0.0,0.0,0.0,0.0,0.0,0.0,0.0,0.0,0.0,0.0,0.0,0.0,0.0,0.0,0.0,0.0,0.0,0.0,0.0,0.0,0.0,0.0,0.0,0.0,0.0,0.0,0.0,0.0,0.0,0.0,0.0,0.0,0.0,0.0,0.0,0.0,0.0,0.0,0.0,0.0,0.0,0.0,0.0,0.0,0.0,0.0,0.0,0.0,0.0,0.0,0.0,0.0,0.0,0.0,0.0,0.0,0.0,0.0,0.0,0.0,0.0,0.0,0.0,0.0,0.0,0.0,0.0,0.0,0.0,0.0,0.0,0.0,0.0,0.0,0.0,0.0,-0.1249,-0.1114,-0.0911,-0.0709,-0.0505,-0.0169,0.0168,0.0,0.0,0.0,0.0,0.0,0.0,0.0,0.0,0.0,0.0,0.0,0.0,0.0,0.0,0.0,0.0,0.0,0.0,0.0,0.0,0.0,0.0,0.0,0.0,0.0,0.0,0.0,0.0,0.0,0.0,0.0,0.0,0.0,0.0,0.0,0.0,0.0,0.0,0.0,0.0,0.0,0.0,0.0,0.0,0.0,0.0,0.0,0.0,0.0,0.0,0.0,0.0,0.0,0.0,0.0,0.0,0.0,0.0,0.0,0.0,0.0,0.0,0.0,0.0,0.0,0.0,0.0,0.0,0.0,0.0,0.0,0.0,0.0,0.0,0.0,0.0,0.0,0.0,0.0,0.0,0.0,0.0,0.0,0.0,0.0,0.0,0.0,0.0,0.0,0.0,0.0,0.0,0.0,0.0,0.0,0.0,0.0,0.0,0.0,0.0,0.0,0.0,0.0,0.0,0.0,0.0,0.0,0.0,0.0,-0.1247,-0.0996,-0.0818,-0.0711,-0.0249,0.0175,0.0,0.0,0.0,0.0,0.0,0.0,0.0,0.0,0.0,0.0,0.0,0.0,0.0,0.0,0.0,0.0,0.0,0.0,0.0,0.0,0.0,0.0,0.0,0.0,0.0,0.0,0.0,0.0,0.0,0.0,0.0,0.0,0.0,0.0,0.0,0.0,0.0,0.0,0.0,0.0,0.0,0.0,0.0,0.0,0.0,0.0,0.0,0.0,0.0,0.0,0.0,0.0,0.0,0.0,0.0,0.0,0.0,0.0,0.0,0.0,0.0,0.0,0.0,0.0,0.0,0.0,0.0,0.0,0.0,0.0,0.0,0.0,0.0,0.0,0.0,0.0,0.0,0.0,0.0,0.0,0.0,0.0,0.0,0.0,0.0,0.0,0.0,0.0,0.0,0.0,0.0,0.0,0.0,0.0,0.0,0.0,0.0,0.0,0.0,0.0,0.0,0.0,0.0,0.0,0.0,0.0,0.0,0.0,0.0,-0.1345,-0.106,-0.0901,-0.0826,-0.0295,0.0144,0.0486,0.0,0.0,0.0,0.0,0.0,0.0,0.0,0.0,0.0,0.0,0.0,0.0,0.0,0.0,0.0,0.0,0.0,0.0,0.0,0.0,0.0,0.0,0.0,0.0,0.0,0.0,0.0,0.0,0.0,0.0,0.0,0.0,0.0,0.0,0.0,0.0,0.0,0.0,0.0,0.0,0.0,0.0,0.0,0.0,0.0,0.0,0.0,0.0,0.0,0.0,0.0,0.0,0.0,0.0,0.0,0.0,0.0,0.0,0.0,0.0,0.0,0.0,0.0,0.0,0.0,0.0,0.0,0.0,0.0,0.0,0.0,0.0,0.0,0.0,0.0,0.0,0.0,0.0,0.0,0.0,0.0,0.0,0.0,0.0,0.0,0.0,0.0,0.0,0.0,0.0,0.0,0.0,0.0,0.0,0.0,0.0,0.0,0.0,0.0,0.0,0.0,0.0,0.0,0.0,0.0,0.0,0.0,0.0,-0.1514,-0.1136,-0.0912,-0.0907,-0.034,0.0147,0.0,0.0,0.0,0.0,0.0,0.0,0.0,0.0,0.0,0.0,0.0,0.0,0.0,0.0,0.0,0.0,0.0,0.0,0.0,0.0,0.0,0.0,0.0,0.0,0.0,0.0,0.0,0.0,0.0,0.0,0.0,0.0,0.0,0.0,0.0,0.0,0.0,0.0,0.0,0.0,0.0,0.0,0.0,0.0,0.0,0.0,0.0,0.0,0.0,0.0,0.0,0.0,0.0,0.0,0.0,0.0,0.0,0.0,0.0,0.0,0.0,0.0,0.0,0.0,0.0,0.0,0.0,0.0,0.0,0.0,0.0,0.0,0.0,0.0,0.0,0.0,0.0,0.0,0.0,0.0,0.0,0.0,0.0,0.0,0.0,0.0,0.0,0.0,0.0,0.0,0.0,0.0,0.0,0.0,0.0,0.0,0.0,0.0,0.0,0.0,0.0,0.0,0.0,0.0,0.0,0.0,0.0,0.0,0.0,-0.1581,-0.1213,-0.106,-0.1038,-0.0532,0.0,0.0,0.0,0.0,0.0,0.0,0.0,0.0,0.0,0.0,0.0,0.0,0.0,0.0,0.0,0.0,0.0,0.0,0.0,0.0,0.0,0.0,0.0,0.0,0.0,0.0,0.0,0.0,0.0,0.0,0.0,0.0,0.0,0.0,0.0,0.0,0.0,0.0,0.0,0.0,0.0,0.0,0.0,0.0,0.0,0.0,0.0,0.0,0.0,0.0,0.0,0.0,0.0,0.0,0.0,0.0,0.0,0.0,0.0,0.0,0.0,0.0,0.0,0.0,0.0,0.0,0.0,0.0,0.0,0.0,0.0,0.0,0.0,0.0,0.0,0.0,0.0,0.0,0.0,0.0,0.0,0.0,0.0,0.0,0.0,0.0,0.0,0.0,0.0,0.0,0.0,0.0,0.0,0.0,0.0,0.0,0.0,0.0,0.0,0.0,0.0,0.0,0.0,0.0,0.0,0.0,0.0,0.0,0.0,-0.1603,-0.1699,-0.1388,-0.1195,-0.1097,-0.0617,-0.0085,0.0,0.0,0.0,0.0,0.0,0.0,0.0,0.0,0.0,0.0,0.0,0.0,0.0,0.0,0.0,0.0,0.0,0.0,0.0,0.0,0.0,0.0,0.0,0.0,0.0,0.0,0.0,0.0,0.0,0.0,0.0,0.0,0.0,0.0,0.0,0.0,0.0,0.0,0.0,0.0,0.0,0.0,0.0,0.0,0.0,0.0,0.0,0.0,0.0,0.0,0.0,0.0,0.0,0.0,0.0,0.0,0.0,0.0,0.0,0.0,0.0,0.0,0.0,0.0,0.0,0.0,0.0,0.0,0.0,0.0,0.0,0.0,0.0,0.0,0.0,0.0,0.0,0.0,0.0,0.0,0.0,0.0,0.0,0.0,0.0,0.0,0.0,0.0,0.0,0.0,0.0,0.0,0.0,0.0,0.0,0.0,0.0,0.0,0.0,0.0,0.0,0.0,0.0,0.0,0.0,0.0,0.0,0.0,-0.1721,-0.1915,-0.1593,-0.1322,-0.112,-0.0661,-0.018,0.0,0.0,0.0,0.0,0.0,0.0,0.0,0.0,0.0,0.0,0.0,0.0,0.0,0.0,0.0,0.0,0.0,0.0,0.0,0.0,0.0,0.0,0.0,0.0,0.0,0.0,0.0,0.0,0.0,0.0,0.0,0.0,0.0,0.0,0.0,0.0,0.0,0.0,0.0,0.0,0.0,0.0,0.0,0.0,0.0,0.0,0.0,0.0,0.0,0.0,0.0,0.0,0.0,0.0,0.0,0.0,0.0,0.0,0.0,0.0,0.0,0.0,0.0,0.0,0.0,0.0,0.0,0.0,0.0,0.0,0.0,0.0,0.0,0.0,0.0,0.0,0.0,0.0,0.0,0.0,0.0,0.0,0.0,0.0,0.0,0.0,0.0,0.0,0.0,0.0,0.0,0.0,0.0,0.0,0.0,0.0,0.0,0.0,0.0,0.0,0.0,0.0,0.0,0.0,0.0,0.0,0.0,0.0,-0.1798,-0.1993,-0.1655,-0.1389,-0.1261,-0.0896,-0.0371,0.0,0.0,0.0,0.0,0.0,0.0,0.0,0.0,0.0,0.0,0.0,0.0,0.0,0.0,0.0,0.0,0.0,0.0,0.0,0.0,0.0,0.0,0.0,0.0,0.0,0.0,0.0,0.0,0.0,0.0,0.0,0.0,0.0,0.0,0.0,0.0,0.0,0.0,0.0,0.0,0.0,0.0,0.0,0.0,0.0,0.0,0.0,0.0,0.0517,0.0,0.0,0.0,0.0,0.0,0.0,0.0,0.0,0.0,0.0,0.0,0.0,0.0,0.0,0.0,0.0,0.0,0.0,0.0,0.0,0.0,0.0,0.0,0.0,0.0,0.0,0.0,0.0,0.0,0.0,0.0,0.0,0.0,0.0,0.0,0.0,0.0,0.0,0.0,0.0,0.0,0.0,0.0,0.0,0.0,0.0,0.0,0.0,0.0,0.0,0.0,0.0,0.0,0.0,0.0,0.0,0.0,0.0,0.0,-0.1774,-0.1865,-0.1674,-0.1518,-0.1284,-0.1081,-0.063,0.0,0.0,0.0,0.0,0.0,0.0,0.0,0.0,0.0,0.0,0.0,0.0,0.0,0.0,0.0,0.0,0.0,0.0,0.0,0.0,0.0,0.0,0.0,0.0,0.0,0.0,0.0,0.0,0.0,0.0,0.0,0.0,0.0,0.0,0.0,0.0,0.0,0.0,0.0,0.0,0.0,0.0,0.0,0.0,0.0,0.0,0.0,0.0,0.0,0.0,0.0,0.0,0.0,0.0,0.0,0.0,0.0,0.0,0.0,0.0,0.0,0.0,0.0,0.0,0.0,0.0,0.0,0.0,0.0,0.0,0.0,0.0,0.0,0.0,0.0,0.0,0.0,0.0,0.0,0.0,0.0,0.0,0.0,0.0,0.0,0.0,0.0,0.0,0.0,0.0,0.0,0.0,0.0,0.0,0.0,0.0,0.0,0.0,0.0,0.0,0.0,0.0,0.0,0.0,0.0,0.0,0.0,-0.1728,-0.1739,-0.1814,-0.1728,-0.1567,-0.1334,-0.1202,-0.0905,-0.0449,0.0,0.0,0.0,0.0,0.0,0.0,0.0,0.0,0.0,0.0,0.0,0.0,0.0,0.0,0.0,0.0,0.0,0.0,0.0,0.0,0.0,0.0,0.0,0.0,0.0,0.0,0.0,0.0,0.0,0.0,0.0,0.0,0.0,0.0,0.0,0.0,0.0,0.0,-0.0104,0.0165,0.0,0.0,0.0,0.0,0.0,0.0,0.0,0.0,0.0688,0.0,0.0,0.0,0.0,0.0,0.0,0.0,0.0,0.0,0.0,0.0,0.0,0.0,0.0,0.0,0.0,0.0,0.0,0.0,0.0,0.0,0.0,0.0,0.0,0.0,0.0,0.0,0.0,0.0,0.0,0.0,0.0,0.0,0.0,0.0,0.0,0.0,0.0,0.0,0.0,0.0,0.0,0.0,0.0,0.0,0.0,0.0,0.0,0.0,0.0,0.0,0.0,0.0,0.0,0.0,0.0,-0.1726,-0.1823,-0.1834,-0.1817,-0.1727,-0.1604,-0.145,-0.1238,-0.0993,-0.0719,0.0,0.0,0.0,0.0,0.0,0.0,0.0,0.0,0.0,0.0,0.0,0.0,0.0,0.0,0.0,0.0,0.0,0.0,0.0,0.0,0.0,0.0,0.0,0.0,0.0,0.0,0.0,0.0,0.0,0.0,0.0,0.0,0.0,0.0,0.0,0.0,0.0,0.0,0.0,0.0079,0.0222,0.0,0.0,0.0,0.0,0.0,0.0,0.0,0.0,0.0794,0.0,0.0,0.0,0.0,0.0,0.0,0.0,0.0,0.0,0.0,0.0,0.0,0.0,0.0,0.0,0.0,0.0,0.0,0.0,0.0,0.0,0.0,0.0,0.0,0.0,0.0,0.0,0.0,0.0,0.0,0.0,0.0,0.0,0.0,0.0,0.0,0.0,0.0,0.0,0.0,0.0,0.0,0.0,0.0,0.0,0.0,0.0,0.0,0.0,0.0,0.0,0.0,0.0,0.0,0.0,-0.1696,-0.1797,-0.179,-0.1762,-0.1648,-0.1524,-0.1449,-0.1249,-0.1019,0.0,0.0,0.0,0.0,0.0,0.0,0.0,0.0,0.0,0.0,0.0,0.0,0.0,0.0,0.0,0.0,0.0,0.0,0.0,0.0,0.0,0.0,0.0,0.0,0.0,0.0,0.0,0.0,0.0,0.0,0.0,0.0,0.0,0.0,0.0,0.0,0.0,0.0,0.0,0.0,0.0,0.0236,0.0472,0.0,0.0,0.0,0.0,0.0,0.0,0.072,0.0853,0.0,0.0,0.0,0.0,0.0,0.0,0.0,0.0,0.0,0.0,0.0,0.0,0.0,0.0,0.0,0.0,0.0,0.0,0.0,0.0,0.0,0.0,0.0,0.0,0.0,0.0,0.0,0.0,0.0,0.0,0.0,0.0,0.0,0.0,0.0,0.0,0.0,0.0,0.0,0.0,0.0,0.0,0.0,0.0,0.0,0.0,0.0,0.0,0.0,0.0,0.0,0.0,0.0,0.0,0.0,-0.1691,-0.176,-0.1784,-0.1712,-0.1572,-0.1498,-0.1394,-0.1307,-0.1087,0.0,0.0,0.0,0.0,0.0,0.0,0.0,0.0,0.0,0.0,0.0,0.0,0.0,0.0,0.0,0.0,0.0,0.0,0.0,0.0,0.0,0.0,0.0,0.0,0.0,0.0,0.0,0.0,0.0,0.0,0.0,0.0,0.0,0.0,0.0,0.0,0.0,0.0,0.0,0.0,0.0,0.0219,0.047,0.0528,0.0,0.0,0.0,0.0,0.058,0.0725,0.0,0.0,0.0,0.0,0.0,0.0,0.0,0.0,0.0,0.0,0.0,0.0,0.0,0.0,0.0,0.0,0.0,0.0,0.0,0.0,0.0,0.0,0.0,0.0,0.0,0.0,0.0,0.0,0.0,0.0,0.0,0.0,0.0,0.0,0.0,0.0,0.0,0.0,0.0,0.0,0.0,0.0,0.0,0.0,0.0,0.0,0.0,0.0,0.0,0.0,0.0,0.0,0.0,0.0,0.0,0.0,-0.1692,-0.1759,-0.1784,-0.1712,-0.1572,-0.148,-0.1486,-0.1337,-0.1152,0.0,0.0,0.0,0.0,0.0,0.0,0.0,0.0,0.0,0.0,0.0,0.0,0.0,0.0,0.0,0.0,0.0,0.0,0.0,0.0,0.0,0.0,0.0,0.0,0.0,0.0,0.0,0.0,0.0,0.0,0.0,0.0,0.0,0.0,0.0,0.0,0.0,0.0,0.0,0.0,0.0,0.0,0.0433,0.0559,0.0577,0.0,0.0,0.065,0.0761,0.0801,0.0,0.0,0.0,0.0,0.0,0.0,0.0,0.0,0.0,0.0,0.0,0.0,0.0,0.0,0.0,0.0,0.0,0.0,0.0,0.0,0.0,0.0,0.0,0.0,0.0,0.0,0.0,0.0,0.0,0.0,0.0,0.0,0.0,0.0,0.0,0.0,0.0,0.0,0.0,0.0,0.0,0.0,0.0,0.0,0.0,0.0,0.0,0.0,0.0,0.0,0.0,0.0,0.0,0.0,0.0,-0.1907,-0.1962,-0.1913,-0.1856,-0.1748,-0.1612,-0.1519,-0.1427,-0.1334,-0.1222,0.0,0.0,0.0,0.0,0.0,0.0,0.0,0.0,0.0,0.0,0.0,0.0,0.0,0.0,0.0,0.0,0.0,0.0,0.0,0.0,0.0,0.0,0.0,0.0,0.0,0.0,0.0,0.0,0.0,0.0,0.0,0.0,0.0,0.0,0.0,0.0,0.0,0.0,0.0,0.0,0.0,0.0,0.0257,0.0488,0.0,0.0,0.0,0.0628,0.0668,0.0,0.0,0.0,0.0,0.0,0.0,0.0,0.0,0.0,0.0,0.0,0.0,0.0,0.0,0.0,0.0,0.0,0.0,0.0,0.0,0.0,0.0,0.0,0.0,0.0,0.0,0.0,0.0,0.0,0.0,0.0,0.0,0.0,0.0,0.0,0.0,0.0,0.0,0.0,0.0,0.0,0.0,0.0,0.0,0.0,0.0,0.0,0.0,0.0,0.0,0.0,0.0,0.0,0.0,0.0,0.0,0.0,-0.2187,-0.2063,-0.1975,-0.1839,-0.1705,-0.1569,-0.1435,-0.1433,0.0,0.0,0.0,0.0,0.0,0.0,0.0,0.0,0.0,0.0,0.0,0.0,0.0,0.0,0.0,0.0,0.0,0.0,0.0,0.0,0.0,0.0,0.0,0.0,0.0,0.0,0.0,-0.1341,0.0,0.0,0.0,0.0,0.0,0.0,0.0,0.0,0.0,0.0,0.0,0.0,0.0,0.0,-0.0301,0.0156,0.0436,0.06,0.0,0.0,0.061,0.0611,0.0692,0.0774,0.0,0.0,0.0,0.0,0.0,0.0,0.0,0.0,0.0,0.0,0.0,0.0,0.0,0.0,0.0,0.0,0.0,0.0,0.0,0.0,0.0,0.0,0.0,0.0,0.0,0.0,0.0,0.0,0.0,0.0,0.0,0.0,0.0,0.0,0.0,0.0,0.0,0.0,0.0,0.0,0.0,0.0,0.0,0.0,0.0,0.0,0.0,0.0,0.0,0.0,0.0,0.0,0.0,0.0,0.0,-0.2191,-0.2063,-0.1975,-0.1975,-0.1884,-0.1705,-0.1614,-0.1569,-0.1454,0.0,0.0,0.0,0.0,0.0,0.0,0.0,0.0,0.0,0.0,0.0,0.0,0.0,0.0,0.0,0.0,0.0,0.0,0.0,0.0,0.0,0.0,0.0,0.0,0.0,0.0,0.0,0.0,0.0,0.0,0.0,0.0,0.0,0.0,0.0,0.0,0.0,0.0,0.0,0.0,0.0,-0.0391,0.0118,0.049,0.0671,0.0,0.0,0.0668,0.0713,0.0713,0.0758,0.0847,0.0,0.0,0.0,0.0,0.0,0.0,0.0,0.0,0.0,0.0,0.0,0.0,0.0,0.0,0.0,0.0,0.0,0.0,0.0,0.0,0.0,0.0,0.0,0.0,0.0,0.0,0.0,0.0,0.0,0.0,0.0,0.0,0.0,0.0,0.0,0.0,0.0,0.0,0.0,0.0,0.0,0.0,0.0,0.0,0.0,0.0,0.0,0.0,0.0,0.0,0.0,0.0,0.0,-0.2507,-0.2401,-0.218,-0.2109,-0.1975,-0.193,-0.1884,-0.1749,-0.1749,-0.1692,0.0,0.0,0.0,0.0,0.0,0.0,0.0,0.0,0.0,0.0,0.0,0.0,0.0,0.0,0.0,0.0,0.0,0.0,0.0,0.0,0.0,0.0,0.0,0.0,0.0,0.0,0.0,0.0,-0.1764,-0.216,-0.2489,0.0,0.0,0.0,0.0,0.0,0.0,0.0,0.0,0.0,0.0,-0.0622,-0.0128,0.039,0.0,0.0,0.0712,0.0719,0.0719,0.0719,0.0719,0.0764,0.0855,0.0,0.0,0.0,0.0,0.0,0.0,0.0,0.0,0.0,0.0,0.0,0.0,0.0,0.0,0.0,0.0,0.0,0.0,0.0,0.0,0.0,0.0,0.0,0.0,0.0,0.0,0.0,0.0,0.0,0.0,0.0,0.0,0.0,0.0,0.0,0.0,0.0,0.0,0.0,0.0,0.0,0.0,0.0,0.0,0.0,0.0,0.0,0.0,0.0,0.0,0.0,0.0,-0.2605,-0.2504,-0.2288,-0.2156,-0.2064,-0.2064,-0.1975,-0.1839,-0.1839,-0.1839,0.0,0.0,0.0,0.0,0.0,0.0,0.0,0.0,0.0,0.0,0.0,0.0,0.0,0.0,0.0,0.0,0.0,0.0,0.0,0.0,0.0,0.0,0.0,0.0,0.0,0.0,0.0,0.0,-0.1931,-0.2309,-0.2383,0.0,0.0,0.0,0.0,0.0,0.0,0.0,0.0,0.0,0.0,-0.0782,-0.0268,0.027,0.0629,0.0674,0.0719,0.0719,0.0719,0.0719,0.0719,0.0719,0.0,0.0,0.0,0.0,0.0,0.0,0.0,0.0,0.0,0.0,0.0,0.0,0.0,0.0,0.0,0.0,0.0,0.0,0.0,0.0,0.0,0.0,0.0,0.0,0.0,0.0,0.0,0.0,0.0,0.0,-0.3313,0.0,0.0,0.0,0.0,0.0,0.0,0.0,0.0,0.0,0.0,0.0,0.0,0.0,0.0,0.0,0.0,0.0,0.0,0.0,0.0,0.0,0.0,-0.2771,-0.2504,-0.2286,-0.2201,-0.2201,-0.2201,-0.2111,-0.202,-0.202,-0.193,-0.1794,0.0,0.0,0.0,0.0,0.0,0.0,0.0,0.0,0.0,0.0,0.0,0.0,0.0,0.0,0.0,0.0,0.0,0.0,0.0,0.0,0.0,0.0,0.0,0.0,0.0,0.0,-0.1471,-0.2182,-0.2606,0.0,0.0,0.0,0.0,0.0,0.0,0.0,0.0,0.0,0.0,-0.1211,-0.0854,-0.0315,0.0135,0.045,0.0674,0.0719,0.0719,0.0719,0.0719,0.0719,0.0,0.0,0.0,0.0,0.0,0.0,0.0,0.0,0.0,0.0,0.0,0.0,0.0,0.0,0.0,0.0,0.0,0.0,0.0,0.0,0.0,0.0,0.0,0.0,0.0,0.0,0.0,-0.3046,-0.3085,0.0,0.0,0.0,0.0,0.0,0.0,0.0,0.0,0.0,0.0,0.0,-0.4723,-0.4771,0.0,0.0,0.0,0.0,0.0,0.0,0.0,0.0,0.0,0.0,0.0,0.0,-0.2773,-0.2504,-0.2333,-0.2201,-0.2201,-0.2201,-0.2156,-0.2156,-0.2156,-0.2064,-0.193,0.0,0.0,0.0,0.0,0.0,0.0,0.0,0.0,0.0,0.0,0.0,0.0,0.0,0.0,0.0,0.0,0.0,0.0,0.0,0.0,0.0,0.0,0.0,0.0,0.0,-0.1872,0.0,0.0,0.0,0.0,0.0,0.0,0.0,0.0,0.0,0.0,0.0,-0.1705,-0.1435,-0.121,-0.0852,-0.0405,-0.0045,0.027,0.0,0.0,0.0,0.0,0.0,0.0,0.0,0.0,0.0,0.0,0.0,0.0,0.0,0.0,0.1433,0.1568,0.1449,0.1337,0.1487,0.0,0.0,0.0,0.0,0.0,0.0,0.0,0.0,0.0,0.0,0.0,0.0,0.0,0.0,-0.339,0.0,-0.3609,0.0,0.0,0.0,0.0,0.0,0.0,0.0,0.0,-0.482,-0.4897,-0.4905,-0.4966,-0.4962,0.0,-0.4901,-0.4751,0.0,0.0,0.0,0.0,0.0,0.0,0.0,0.0,-0.2773,-0.2506,-0.2286,-0.2201,-0.2201,-0.2201,-0.2201,-0.2201,-0.2201,-0.2156,-0.2064,-0.1966,-0.1837,0.0,0.0,0.0,0.0,0.0,0.0,0.0,0.0,0.0,0.0,0.0,0.0,0.0,0.0,0.0,0.0,0.0,0.0,0.0,0.0,0.0,0.0,0.0,-0.2215,0.0,0.0,0.0,0.0,0.0,0.0,0.0,0.0,0.0,-0.2413,-0.2105,-0.1839,-0.1524,-0.1254,-0.0945,-0.0595,0.0,0.0,0.0,0.0,0.0,0.0,0.0,0.0731,0.0721,0.0719,0.0723,0.0733,0.0805,0.0893,0.1002,0.0,0.0,0.1422,0.1349,0.1286,0.1389,0.1477,0.1514,0.1565,0.1565,0.1565,0.0,0.0,0.0,0.0,0.0,0.0,0.0,0.0,-0.3817,-0.3963,0.0,-0.4344,0.0,0.0,0.0,0.0,0.0,-0.4816,0.0,0.0,-0.5027,-0.5104,-0.5125,-0.5233,-0.5225,-0.5113,-0.5157,-0.5003,-0.482,-0.4598,0.0,0.0,0.0,0.0,0.0,0.0,-0.2779,-0.2511,-0.2294,-0.2207,-0.2211,-0.2207,-0.2205,-0.2201,-0.2201,-0.2201,-0.2201,-0.2107,-0.1979,-0.1899,-0.1722,0.0,0.0,0.0,0.0,0.0,0.0,0.0,0.0,0.0,0.0,0.0,0.0,0.0,0.0,0.0,0.0,0.0,0.0,0.0,0.0,-0.2626,0.0,0.0,0.0,0.0,0.0,0.0,0.0,0.0,0.0,0.0,-0.2558,-0.2335,-0.2066,-0.1663,0.0,0.0,0.0,0.0,-0.0048,-0.005,0.0403,0.0746,0.0721,0.0766,0.0803,0.0727,0.0,0.0,0.081,0.079,0.0818,0.0902,0.0877,0.0954,0.1176,0.1253,0.1228,0.1173,0.1352,0.1472,0.1267,0.1276,0.1375,-0.522,0.0,0.0,0.0,0.0,-0.423,-0.4341,-0.4438,-0.4435,-0.4492,-0.454,-0.4569,0.0,0.0,0.0,0.0,0.0,0.0,-0.5144,-0.516,-0.5515,-0.5657,-0.5657,-0.5709,-0.5705,-0.5653,-0.5523,-0.5368,-0.5136,-0.5015,-0.4677,-0.4111,0.0,0.0,0.0,0.0,-0.2773,-0.2567,-0.2386,-0.2324,-0.234,-0.2278,-0.2261,-0.2203,-0.2201,-0.2243,-0.2237,-0.2237,-0.2268,-0.233,-0.2137,0.0,0.0,0.0,0.0,0.0,0.0,0.0,0.0,0.0,0.0,0.0,0.0,0.0,0.0,0.0,0.0,0.0,0.0,0.0,-0.2834,-0.2921,-0.2998,0.0,0.0,0.0,0.0,0.0,0.0,0.0,0.0,0.0,-0.2807,-0.242,-0.2176,0.0,0.0,-0.1282,-0.0987,-0.0744,-0.0449,-0.0151,0.005,0.0,0.0696,0.0795,0.0791,0.0783,0.0781,0.0792,0.0873,0.0886,0.0902,0.0879,0.0891,0.0954,0.0953,0.1003,0.1051,0.1159,0.1151,0.1145,0.1253,0.1144,0.1143,-0.6093,-0.5381,-0.4922,-0.4716,-0.4716,-0.4826,-0.4937,-0.502,-0.5041,-0.5016,-0.5119,-0.5066,-0.5077,-0.5131,-0.5181,0.0,0.0,0.0,-0.551,-0.5453,-0.5787,-0.5892,-0.6017,-0.5892,-0.5888,-0.5884,-0.5774,-0.5669,-0.5506,-0.5381,-0.5039,-0.4518,0.0,0.0,-0.3382,-0.3196,-0.2947,-0.2675,-0.2483,-0.2411,-0.2415,-0.2413,-0.239,-0.2349,-0.2344,-0.2416,-0.237,-0.2368,-0.2413,-0.2504,-0.236,-0.2352,0.0,0.0,0.0,0.0,0.0,0.0,0.0,0.0,0.0,0.0,0.0,-0.2359,-0.2499,0.0,0.0,0.0,-0.2864,-0.2991,-0.3033,-0.3082,0.0,0.0,0.0,0.0,0.0,0.0,0.0,-0.3239,-0.3319,-0.3305,-0.3115,-0.2815,-0.2562,-0.2426,-0.2044,-0.1679,-0.1334,0.0,-0.0725,-0.042,-0.021,0.0052,0.0413,0.0567,0.0667,0.0758,0.0807,0.0818,0.0899,0.0906,0.0863,0.0889,0.0897,0.0897,0.0897,0.0897,0.0954,0.1066,0.101,0.0954,0.1122,0.1066,0.1178,-0.6917,-0.6583,-0.5924,-0.5585,-0.5563,-0.5559,-0.5567,-0.5577,-0.5563,-0.5657,-0.5742,-0.5726,-0.5775,-0.5888,-0.5949,0.0,-0.5949,-0.5961,-0.59,-0.5779,-0.5921,-0.6055,-0.618,-0.6059,-0.5994,-0.5994,-0.5917,-0.5969,-0.5957,-0.5722,-0.5433,-0.5049,-0.4677,-0.4153,-0.363,-0.3471,-0.3227,-0.2835,-0.2681,-0.2581,-0.2429,-0.2581,-0.2585,-0.2537,-0.2678,-0.2679,-0.2535,-0.2521,-0.2518,-0.2518,-0.2553,-0.2549,-0.2621,0.0,0.0,0.0,0.0,0.0,0.0,0.0,0.0,0.0,0.0,0.0,0.0,0.0,0.0,0.0,-0.313,0.0,-0.3158,-0.3129,0.0,0.0,0.0,-0.336,-0.336,-0.3514,-0.363,-0.363,0.0,0.0,-0.3488,-0.3394,-0.3147,-0.2642,-0.2432,-0.2205,-0.1811,-0.1283,-0.092,-0.089,-0.0448,-0.0111,-0.0,0.0214,0.0477,0.0773,0.0814,0.0827,0.0905,0.0911,0.0868,0.0893,0.0897,0.0897,0.0897,0.0897,0.0897,0.0897,0.0897,0.0897,0.0898,0.1122,0.129,-0.7723,-0.7418,-0.6985,-0.653,-0.6086,-0.6217,-0.6298,-0.6406,-0.6411,-0.6324,-0.6218,-0.6144,-0.601,-0.5888,-0.6005,-0.6061,-0.6065,-0.6392,-0.6524,-0.6466,-0.6612,-0.6681,-0.6686,-0.6681,-0.6681,-0.6673,-0.6409,-0.6279,-0.627,-0.5969,-0.5624,-0.5332,-0.5137,-0.4523,-0.3636,-0.3471,-0.3318,-0.3096,-0.2989,-0.2885,-0.2883,-0.2885,-0.2887,-0.279,-0.2834,-0.2869,-0.2886,-0.2808,-0.2817,-0.2861,-0.2866,-0.289,-0.2903,-0.2896,0.0,0.0,0.0,0.0,0.0,0.0,0.0,0.0,0.0,-0.2924,-0.2965,0.0,-0.3085,0.0,-0.3229,-0.3385,-0.3459,-0.3568,0.0,0.0,-0.3768,-0.386,-0.3815,-0.3875,-0.387,-0.3765,-0.3843,-0.3877,-0.3718,-0.3809,-0.371,-0.3387,-0.2939,-0.2609,-0.2367,-0.1992,-0.1497,-0.1007,-0.0785,-0.0559,-0.0111,0.0,0.0276,0.0822,0.0875,0.0879,0.0885,0.0887,0.0889,0.0896,0.0897,0.0897,0.0897,0.0897,0.0897,0.0897,0.0897,0.0897,0.0897,0.1122,0.129,-0.8286,-0.8023,-0.7769,-0.7417,-0.6992,-0.6849,-0.6841,-0.6921,-0.7036,-0.6958,-0.6784,-0.6823,-0.6783,-0.6628,-0.675,-0.675,-0.6824,-0.6995,-0.7109,-0.7047,-0.7153,-0.7278,-0.7351,-0.7278,-0.721,-0.7201,-0.6941,-0.6785,-0.6637,-0.6325,-0.5883,-0.557,-0.5344,-0.4805,-0.3905,-0.3729,-0.352,-0.3315,-0.3153,-0.3042,-0.3042,-0.315,-0.3101,-0.3051,-0.3097,-0.3123,-0.3066,-0.3058,-0.3003,-0.3002,-0.3069,-0.3092,-0.3081,-0.3144,-0.319,0.0,0.0,0.0,0.0,0.0,0.0,0.0,0.0,0.0,0.0,0.0,-0.3354,-0.3415,-0.3558,-0.3683,-0.3768,-0.3849,-0.3894,-0.3894,-0.3968,-0.4019,-0.4019,-0.408,-0.407,-0.4019,-0.4144,-0.418,-0.4019,-0.4033,-0.4027,-0.3802,-0.3465,-0.3123,-0.273,-0.2406,-0.2017,-0.1456,-0.1121,-0.0673,-0.0112,0.0,0.0112,0.0449,0.0729,0.0897,0.0897,0.0897,0.0897,0.0897,0.0897,0.0897,0.0897,0.0897,0.0897,0.0897,0.0897,0.0897,0.0898,0.1122,0.129,-0.8787,-0.8461,-0.8269,-0.8171,-0.8128,-0.7575,-0.7352,-0.7335,-0.748,-0.7518,-0.7405,-0.7535,-0.7602,-0.7602,-0.7602,-0.7602,-0.7602,-0.7673,-0.7597,-0.7593,-0.7673,-0.7748,-0.7895,-0.7744,-0.7668,-0.7659,-0.7489,-0.7258,-0.7022,-0.6637,-0.6209,-0.5732,-0.5512,-0.5058,-0.4277,-0.4086,-0.3834,-0.3416,-0.3246,-0.3132,-0.3188,-0.3357,-0.3366,-0.3268,-0.3369,-0.3376,-0.327,-0.3248,-0.3147,-0.3053,-0.317,-0.3251,-0.3275,-0.3404,-0.3546,0.0,-0.3681,0.0,0.0,0.0,0.0,0.0,0.0,0.0,0.0,-0.3558,-0.3687,-0.3809,-0.3941,-0.4019,-0.4019,-0.4036,-0.3999,-0.405,-0.4066,-0.4073,-0.4083,-0.4143,-0.422,-0.422,-0.4385,-0.4408,-0.4242,-0.4249,-0.419,-0.4021,-0.3904,-0.3622,-0.3128,-0.274,-0.2408,-0.2127,-0.14,-0.0729,-0.028,0.0,0.0,0.0,0.0393,0.0785,0.0897,0.0897,0.0897,0.0897,0.0897,0.0897,0.0897,0.0897,0.0897,0.0897,0.0897,0.0897,0.0898,0.1122,0.129,-0.9208,-0.9074,-0.8708,-0.8452,-0.8374,-0.8225,-0.8112,-0.7973,-0.7973,-0.786,-0.7668,-0.7664,-0.7602,-0.7602,-0.7735,-0.7735,-0.7806,-0.7943,-0.8014,-0.8014,-0.8014,-0.8014,-0.8089,-0.8014,-0.8009,-0.8009,-0.7765,-0.7525,-0.7227,-0.703,-0.6509,-0.584,-0.5743,-0.5266,-0.4543,0.0,0.0,0.0,-0.353,-0.353,-0.3471,-0.353,-0.3516,-0.355,-0.3547,0.0,-0.3515,-0.342,-0.3357,-0.3333,-0.3444,0.0,0.0,0.0,0.0,0.0,0.0,0.0,0.0,0.0,0.0,0.0,-0.3927,-0.3894,-0.3894,-0.3921,-0.3948,-0.3978,-0.4002,-0.4019,-0.4022,-0.4083,-0.4153,-0.4157,-0.4307,-0.4375,-0.4433,-0.4406,-0.4423,-0.4423,-0.4501,-0.446,-0.4463,-0.4463,-0.4353,-0.419,-0.4135,-0.3965,-0.3516,-0.3074,-0.274,-0.2408,-0.1569,-0.0897,-0.0785,-0.0336,0.0,0.0,0.0056,0.0336,0.0785,0.0897,0.0897,0.0897,0.0897,0.0897,0.0897,0.0897,0.0897,0.0897,0.0897,0.0897,0.0897,0.1122,0.129,-0.9542,0.0,-0.9163,-0.8935,0.0,-0.8631,-0.8575,-0.8549,-0.8372,-0.8268,-0.8239,-0.8143,-0.8098,-0.8176,-0.8245,-0.824,-0.824,-0.8387,-0.8387,-0.8387,-0.8387,-0.8392,-0.8387,-0.8387,-0.8387,-0.8382,-0.8215,-0.7902,-0.758,-0.7255,-0.6776,-0.6079,-0.5844,-0.5399,-0.4623,-0.4303,-0.4025,-0.3727,-0.3613,-0.3585,-0.3585,-0.3585,-0.3585,-0.3585,-0.3585,0.0,0.0,0.0,0.0,0.0,0.0,0.0,0.0,-0.377,0.0,-0.4019,-0.4019,-0.4019,-0.4019,-0.4019,-0.4003,-0.4076,-0.4199,-0.4175,-0.4029,-0.404,-0.4083,-0.4083,-0.4195,-0.4239,-0.4239,-0.4311,-0.4355,-0.4358,-0.4419,-0.4463,-0.4463,-0.4463,-0.4463,-0.4463,-0.4463,-0.4463,-0.4463,-0.4463,-0.4463,-0.4356,-0.4249,-0.4079,-0.3855,-0.3463,-0.3077,-0.2465,-0.185,-0.1234,-0.0954,-0.0673,-0.028,0.0,0.0,0.0,0.0393,0.0561,0.0729,0.0841,0.0897,0.0897,0.0897,0.0897,0.0897,0.0897,0.0897,0.0897,0.0897,0.1122,0.1346,-0.9864,-0.9676,-0.9515,-0.9427,-0.9288,-0.8959,-0.8955,-0.9058,0.0,0.0,0.0,-0.8703,-0.8703,-0.8703,-0.8703,-0.8703,-0.8703,-0.8703,-0.8703,-0.8703,-0.8703,-0.8703,-0.8703,-0.8703,-0.8703,-0.8694,-0.8529,-0.8208,-0.7868,-0.7553,-0.7022,-0.6272,-0.6,-0.5453,-0.4659,-0.4151,-0.3917,-0.3816,-0.374,-0.366,-0.3585,-0.3585,-0.3585,-0.3585,-0.3585,-0.3585,-0.3585,-0.3585,-0.3591,-0.3604,-0.3649,-0.3655,-0.3706,-0.3843,-0.3992,-0.4097,-0.41,-0.41,-0.4097,-0.41,-0.4151,-0.4227,-0.4395,-0.4362,-0.4117,-0.4216,-0.4234,-0.4234,-0.4395,-0.446,-0.4463,-0.4463,-0.4463,-0.4463,-0.4463,-0.4463,-0.4463,-0.4463,-0.4463,-0.4463,-0.4463,-0.4463,-0.4463,-0.4463,-0.4463,-0.446,-0.4356,-0.419,-0.4024,-0.3691,-0.319,-0.2464,-0.2018,-0.1626,-0.1178,-0.0898,-0.0673,0.0,0.0,0.0,0.0,0.0168,0.0449,0.0617,0.0785,0.0785,0.0841,0.0841,0.0897,0.0897,0.0897,0.0897,0.0898,0.1122,0.1346,-0.9951,-0.9951,-0.9918,-0.9804,-0.9559,-0.9498,-0.9372,-0.9256,-0.8796,-0.8703,-0.8703,-0.8703,-0.8703,-0.8703,-0.8703,-0.8703,-0.8703,-0.8703,-0.8703,-0.8703,-0.8703,-0.8703,-0.8703,-0.8703,-0.8703,-0.8699,-0.867,-0.8426,-0.8047,-0.7823,-0.7275,-0.6513,-0.6112,-0.5474,-0.4665,-0.4215,-0.4083,-0.4061,-0.3903,-0.368,-0.3588,-0.3585,-0.3585,-0.3585,-0.3585,-0.3585,-0.3585,-0.3585,-0.3577,-0.3613,-0.3831,-0.3929,-0.3966,-0.4229,-0.4399,-0.4399,-0.4453,-0.4453,-0.4399,-0.4457,-0.4464,-0.4484,-0.445,-0.4498,-0.4406,-0.4419,-0.4433,-0.4433,-0.4508,-0.4463,-0.4463,-0.4463,-0.4463,-0.4463,-0.4463,-0.4463,-0.4463,-0.4463,-0.4522,-0.4529,-0.4463,-0.4525,-0.4546,-0.4539,-0.4546,-0.4473,-0.4511,-0.4369,-0.4048,-0.3522,-0.3077,-0.2689,-0.224,-0.185,-0.1514,-0.1122,-0.0785,-0.0393,-0.0168,0.0,0.0,0.0,0.0,0.0,0.0,0.0449,0.0505,0.0729,0.0841,0.0841,0.0841,0.0897,0.0897,0.1122,0.1402,-1.0038,-1.0038,-1.0038,-0.9899,-0.9804,-0.9696,-0.9521,-0.9313,-0.9119,-0.8973,-0.8869,-0.8755,-0.8703,-0.8703,-0.8703,-0.8703,-0.8703,-0.8703,-0.8703,-0.8703,-0.8703,-0.8703,-0.8703,-0.8703,-0.8703,-0.8703,-0.8703,-0.8576,-0.8266,-0.7934,-0.7423,-0.6754,-0.587,-0.5164,-0.4631,-0.4309,-0.4183,-0.4113,-0.3876,-0.3785,-0.3675,-0.3615,-0.3585,-0.3585,-0.3585,-0.3585,-0.3585,-0.3585,-0.3638,-0.3805,-0.3855,-0.3965,-0.4079,-0.4249,-0.4411,-0.446,-0.4463,-0.4463,-0.4463,-0.4463,-0.4463,-0.4463,-0.4463,-0.4463,-0.4463,-0.4463,-0.4463,-0.4463,-0.4463,-0.4463,-0.4463,-0.4463,-0.4463,-0.4463,-0.4463,-0.4463,-0.4463,-0.4463,-0.4549,-0.4568,-0.4585,-0.4616,-0.4701,-0.4707,-0.4711,-0.4711,-0.4649,-0.4529,-0.4235,-0.3884,-0.3374,-0.2934,-0.2575,-0.2186,-0.1797,-0.1346,-0.0954,-0.0729,-0.028,0.0,0.0,0.0,0.0,0.0,0.0,0.0168,0.0,0.028,0.0449,0.0617,0.0785,0.0897,0.0954,0.1233,0.1625,-1.0038,-1.0033,-1.0038,-1.0038,-0.9937,-0.9786,-0.962,-0.9464,-0.9417,-0.9308,-0.9148,-0.8935,-0.8841,-0.8841,-0.8845,-0.8817,-0.8779,-0.8774,-0.8751,-0.8703,-0.8703,-0.8703,-0.8703,-0.8703,-0.8703,-0.8703,-0.8703,-0.8627,-0.838,-0.8019,-0.748,-0.6741,-0.5654,-0.4971,-0.4602,-0.4378,-0.4254,-0.4151,-0.3947,-0.3822,-0.3851,-0.3708,-0.3664,-0.3661,-0.3724,-0.3721,-0.3724,-0.3775,-0.3945,-0.4169,-0.4026,-0.4067,-0.4238,-0.4265,-0.4373,-0.4507,-0.457,-0.4587,-0.4562,-0.4565,-0.4565,-0.4565,-0.4565,-0.4565,-0.4565,-0.4565,-0.4587,-0.4532,-0.4463,-0.4463,-0.4463,-0.4463,-0.4463,-0.4463,-0.4553,-0.4577,-0.4518,-0.4601,-0.4606,-0.4721,-0.4741,-0.4792,-0.4884,-0.4918,-0.4904,-0.4901,-0.4793,-0.4668,-0.4482,-0.4241,-0.3846,-0.3314,-0.2902,-0.2556,-0.2043,-0.1577,-0.1235,-0.0954,-0.0449,0.0,0.0,0.0,0.0,0.0,0.0,0.0,0.0,0.0,0.0,0.0336,0.0617,0.0898,0.101,0.14,0.1847,-1.0294,-1.0207,-1.0125,-1.0038,-1.0033,-0.9927,-0.9894,-0.9856,-0.9696,-0.9527,-0.9559,-0.936,-0.9261,-0.9266,-0.9252,-0.9157,-0.9001,-0.8996,-0.8892,-0.8732,-0.8703,-0.8703,-0.8727,-0.8713,-0.8703,-0.8708,-0.8713,-0.8641,-0.8403,-0.8152,-0.7454,-0.6233,-0.559,-0.5023,-0.4579,-0.4352,-0.4292,-0.4281,-0.4151,-0.4028,-0.3925,-0.3909,-0.3903,-0.384,-0.4025,-0.4148,-0.4134,-0.4327,-0.4505,-0.4683,-0.4562,-0.4436,-0.448,-0.4485,-0.4528,-0.4657,-0.467,-0.4728,-0.4853,-0.4817,-0.4803,-0.4877,-0.486,-0.4857,-0.4797,-0.4807,-0.4752,-0.4551,-0.4473,-0.4487,-0.4463,-0.4532,-0.4549,-0.4511,-0.4656,-0.467,-0.468,-0.4792,-0.4884,-0.4894,-0.4894,-0.4908,-0.4945,-0.4958,-0.4942,-0.4969,-0.491,-0.4846,-0.4716,-0.4528,-0.4273,-0.3898,-0.3342,-0.2813,-0.2392,-0.1885,-0.1467,-0.1011,-0.0617,-0.028,0.0,0.0,0.0,0.0,0.0,0.0,0.0,0.0,0.0,0.0,0.0505,0.0954,0.1234,0.1513,0.1847,-1.0554,-1.0554,-1.0472,-1.0299,-1.012,-1.0033,-1.0038,-1.0028,-0.9861,-0.9828,-0.9819,-0.9734,-0.9559,-0.9327,-0.9322,-0.9275,-0.9204,-0.92,-0.9157,-0.9067,-0.9072,-0.9072,-0.9067,-0.9072,-0.9015,-0.8902,-0.8892,-0.8749,-0.8345,-0.7872,-0.7095,-0.6176,-0.5673,-0.5179,-0.4535,-0.4357,-0.4303,-0.4298,-0.4251,-0.4265,-0.4266,-0.4196,-0.4058,-0.4058,-0.4302,-0.4427,-0.4549,-0.4546,-0.4668,-0.4914,-0.4733,-0.464,-0.4703,-0.4762,-0.4758,-0.4823,-0.4889,-0.4913,-0.4914,-0.4982,-0.4982,-0.4918,-0.4918,-0.4857,-0.4793,-0.4857,-0.486,-0.4883,-0.479,-0.4731,-0.4731,-0.4728,-0.4735,-0.4741,-0.4792,-0.4826,-0.483,-0.488,-0.4945,-0.5023,-0.5043,-0.5081,-0.5159,-0.5182,-0.5182,-0.5182,-0.5179,-0.5098,-0.4977,-0.4788,-0.4534,-0.4327,-0.3733,-0.3121,-0.2617,-0.2217,-0.1721,-0.1242,-0.0841,-0.0561,0.0,0.0,0.0,0.0,0.0,0.0,0.0,0.0,0.0,0.0,0.0449,0.101,0.1234,0.1514,0.1793,-1.0824,-1.0733,-1.0733,-1.0554,-1.0381,-1.0294,-1.0212,-1.0212,-1.0212,-1.0212,-1.0212,-1.0207,-1.0042,-0.9692,-0.9576,-0.9469,-0.9417,-0.9412,-0.9379,-0.9327,-0.9322,-0.9318,-0.9322,-0.9318,-0.9247,-0.9129,-0.911,-0.8839,-0.834,-0.75,-0.6809,-0.6156,-0.5798,-0.5222,-0.4591,-0.4406,-0.433,-0.4303,-0.4367,-0.4498,-0.4599,-0.4507,-0.4415,-0.4415,-0.4534,-0.4718,-0.4849,-0.4784,-0.4912,-0.5171,-0.4941,-0.4849,-0.4914,-0.4942,-0.4938,-0.4979,-0.5082,-0.5102,-0.504,-0.5106,-0.5106,-0.504,-0.5043,-0.504,-0.4977,-0.4977,-0.5106,-0.5168,-0.5102,-0.502,-0.4925,-0.4918,-0.4918,-0.4921,-0.4948,-0.4975,-0.4979,-0.5006,-0.5087,-0.5176,-0.5192,-0.5233,-0.5328,-0.5415,-0.5404,-0.5408,-0.5415,-0.5359,-0.5223,-0.4948,-0.4752,-0.4622,-0.4151,-0.3519,-0.293,-0.2397,-0.2002,-0.1496,-0.1082,-0.0739,-0.0281,0.0,0.0,0.0,0.0,0.0,0.0,0.0,0.0,0.0,0.0449,0.0954,0.1234,0.1459,0.174,-1.1008,-1.1008,-1.0733,-1.0727,-1.0641,-1.0641,-1.0641,-1.0641,-1.0646,-1.0641,-1.0641,-1.0646,-1.0631,-1.0585,-1.0139,-0.9809,-0.9644,-0.963,-0.9535,-0.9374,-0.9356,-0.9332,-0.9322,-0.9322,-0.9327,-0.9318,-0.9313,-0.8953,-0.8352,-0.741,-0.663,-0.622,-0.578,-0.5279,-0.479,-0.4442,-0.4338,-0.4389,-0.4503,-0.4628,-0.4622,-0.4872,-0.492,-0.4791,-0.4998,-0.5048,-0.512,-0.5269,-0.5332,-0.5401,-0.5196,-0.5121,-0.5048,-0.4937,-0.4996,-0.5114,-0.5254,-0.5397,-0.5325,-0.538,-0.5384,-0.5394,-0.537,-0.5328,-0.5298,-0.5298,-0.5367,-0.5397,-0.5367,-0.5209,-0.4999,-0.4975,-0.4958,-0.4958,-0.505,-0.5111,-0.5125,-0.523,-0.5394,-0.5404,-0.5328,-0.5401,-0.5425,-0.5428,-0.5428,-0.5428,-0.5428,-0.5359,-0.5296,-0.503,-0.4827,-0.4694,-0.4345,-0.3845,-0.3414,-0.2814,-0.2187,-0.1721,-0.1289,-0.0934,-0.0684,0.0,0.0,0.0,0.0,0.0,0.0,0.0,0.0,0.0,0.0,0.0954,0.1234,0.1459,0.1738,-1.1181,-1.1181,-1.1003,-1.0916,-1.0829,-1.0636,-1.0549,-1.0733,-1.0824,-1.0733,-1.0733,-1.0733,-1.0733,-1.0641,-1.0559,-1.0428,-1.0272,-1.0267,-1.0223,-1.0234,-1.0149,-1.0149,-0.9974,-0.9979,-0.9817,-0.9545,-0.9442,-0.9101,-0.8325,-0.7442,-0.6809,-0.6388,-0.5872,-0.5476,-0.5182,-0.4776,-0.4648,-0.4813,-0.4742,-0.4761,-0.4891,-0.5024,-0.509,-0.5163,-0.5292,-0.5292,-0.5292,-0.5359,-0.5428,-0.5428,-0.5304,-0.5277,-0.527,-0.523,-0.5223,-0.5274,-0.5397,-0.5428,-0.5428,-0.5428,-0.5428,-0.5428,-0.5428,-0.5428,-0.5428,-0.5428,-0.5428,-0.5428,-0.5428,-0.5294,-0.5243,-0.5203,-0.5203,-0.5209,-0.5243,-0.5274,-0.5284,-0.5328,-0.5428,-0.5428,-0.5428,-0.5428,-0.5428,-0.5428,-0.5428,-0.5428,-0.5428,-0.5428,-0.5362,-0.5027,-0.4761,-0.4694,-0.4361,-0.3882,-0.3716,-0.3097,-0.2513,-0.2027,-0.1575,-0.1211,-0.0895,-0.0525,0.0,0.0,0.0,0.0,0.0,0.0,0.0,0.0,0.0,0.0954,0.1234,0.1403,0.1682,-1.1267,-1.1267,-1.1181,-1.1094,-1.1094,-1.0814,-1.0727,-1.0906,-1.0997,-1.0997,-1.0906,-1.0906,-1.0906,-1.0906,-1.0906,-1.0906,-1.0906,-1.0814,-1.0733,-1.0733,-1.0733,-1.0641,-1.0467,-1.0381,-1.0139,-0.9828,-0.9587,-0.9155,-0.8581,-0.7645,-0.7058,-0.6634,-0.6096,-0.5698,-0.5479,-0.5275,-0.5142,-0.508,-0.4962,-0.496,-0.5087,-0.5156,-0.5223,-0.5359,-0.5428,-0.5428,-0.5428,-0.5428,-0.5428,-0.5428,-0.5428,-0.5428,-0.5428,-0.5428,-0.5428,-0.5428,-0.5428,-0.5428,-0.5428,-0.5428,-0.5428,-0.5428,-0.5428,-0.5428,-0.5428,-0.5428,-0.5428,-0.5428,-0.5428,-0.5428,-0.5428,-0.5422,-0.5428,-0.5428,-0.5428,-0.5428,-0.5428,-0.5425,-0.5428,-0.5428,-0.5428,-0.5428,-0.5428,-0.5428,-0.5428,-0.5428,-0.5428,-0.5359,-0.5292,-0.5027,-0.4761,-0.4694,-0.4431,-0.4028,-0.3811,-0.3355,-0.284,-0.2339,-0.1814,-0.1438,-0.1053,-0.0667,0.0,0.0,0.0,0.0,0.0,0.0,0.0,0.0,0.0561,0.101,0.1178,0.1346,0.1626,-1.1278,-1.1289,-1.1359,-1.1305,-1.13,-1.1213,-1.1278,-1.1267,-1.1267,-1.1267,-1.1262,-1.1262,-1.1267,-1.1267,-1.1262,-1.1267,-1.1207,-1.0947,-1.084,-1.0733,-1.0727,-1.0733,-1.0646,-1.0467,-1.0376,-1.0173,-0.9577,-0.9226,-0.8893,-0.8012,-0.7285,-0.6846,-0.6464,-0.602,-0.5517,-0.5676,-0.5529,-0.5253,-0.5116,-0.51,-0.5153,-0.5292,-0.5362,-0.5428,-0.5428,-0.5428,-0.5428,-0.5428,-0.5428,-0.5428,-0.5428,-0.5428,-0.5428,-0.5428,-0.5428,-0.5428,-0.5428,-0.5428,-0.5428,-0.5428,-0.5428,-0.5428,-0.5428,-0.5428,-0.5428,-0.5428,-0.5428,-0.5428,-0.5428,-0.5428,-0.5428,-0.5428,-0.5428,-0.5428,-0.5428,-0.5428,-0.5428,-0.5428,-0.5428,-0.5428,-0.5428,-0.5428,-0.5428,-0.5428,-0.5428,-0.5428,-0.5359,-0.5292,-0.5156,-0.496,-0.4761,-0.4628,-0.4431,-0.4164,-0.3897,-0.3618,-0.3166,-0.2664,-0.2133,-0.1672,-0.1142,-0.0747,-0.0433,0.0,0.0,0.0,0.0,0.0,0.0,0.0505,0.0785,0.101,0.1234,0.1458,0.1682,-1.1591,-1.1612,-1.1768,-1.1736,-1.1596,-1.1398,-1.1319,-1.1267,-1.1267,-1.1267,-1.1267,-1.1267,-1.1267,-1.1267,-1.1267,-1.1435,-1.158,-1.1409,-1.1329,-1.1121,-1.1094,-1.1003,-1.0911,-1.0829,-1.0651,-1.0289,-0.9716,-0.9352,-0.8937,-0.8292,-0.7635,-0.7027,-0.656,-0.6234,-0.6023,-0.6119,-0.5964,-0.559,-0.552,-0.5403,-0.5306,-0.5359,-0.5428,-0.5428,-0.5428,-0.5428,-0.5428,-0.5428,-0.5428,-0.5428,-0.5428,-0.5428,-0.5428,-0.5428,-0.5428,-0.5428,-0.5428,-0.5428,-0.5428,-0.5428,-0.5428,-0.5428,-0.5428,-0.5428,-0.5428,-0.5428,-0.5428,-0.5428,-0.5428,-0.5428,-0.5428,-0.5428,-0.5428,-0.5428,-0.5428,-0.5428,-0.5428,-0.5428,-0.5428,-0.5428,-0.5428,-0.5428,-0.5428,-0.5428,-0.5428,-0.5359,-0.5292,-0.5153,-0.5087,-0.4824,-0.4691,-0.4625,-0.4431,-0.4233,-0.3964,-0.3761,-0.3398,-0.2909,-0.2374,-0.1841,-0.1362,-0.0899,-0.0574,0.0,0.0,0.0,0.0,0.0,0.0,0.0618,0.0841,0.1122,0.1403,0.157,0.1682,-1.1842,-1.1928,-1.2075,-1.2059,-1.1817,-1.1457,-1.1331,-1.1472,-1.13,-1.1267,-1.1267,-1.1267,-1.1267,-1.1267,-1.1267,-1.1483,-1.1682,-1.1698,-1.1671,-1.1596,-1.1505,-1.1358,-1.111,-1.1013,-1.0824,-1.0467,-1.0033,-0.9712,-0.9321,-0.8623,-0.8028,-0.7446,-0.6716,-0.6376,-0.6405,-0.6263,-0.6053,-0.5871,-0.5691,-0.5545,-0.5457,-0.5389,-0.5428,-0.5428,-0.5428,-0.5428,-0.5428,-0.5428,-0.5428,-0.5428,-0.5428,-0.5428,-0.5428,-0.5428,-0.5428,-0.5428,-0.5428,-0.5428,-0.5428,-0.5428,-0.5428,-0.5428,-0.5428,-0.5428,-0.5428,-0.5428,-0.5428,-0.5428,-0.5428,-0.5428,-0.5428,-0.5425,-0.5425,-0.5422,-0.5428,-0.5428,-0.5428,-0.5428,-0.5428,-0.5428,-0.5428,-0.5428,-0.5428,-0.5428,-0.5428,-0.5359,-0.5223,-0.5024,-0.4957,-0.4761,-0.4625,-0.4495,-0.4364,-0.4231,-0.403,-0.3828,-0.3627,-0.3151,-0.2613,-0.2138,-0.1593,-0.1185,0.0,0.0,0.0,0.0,0.0,0.0,0.0172,0.0455,0.0787,0.1066,0.129,0.1347,0.1514,-1.2231,-1.242,-1.227,-1.2194,-1.2135,-1.1663,-1.1547,-1.165,-1.1483,-1.1294,-1.1273,-1.1267,-1.1267,-1.1267,-1.1267,-1.1494,-1.1693,-1.1747,-1.1844,-1.1903,-1.1801,-1.1607,-1.1294,-1.1094,-1.0916,-1.0733,-1.0467,-1.0202,-0.9904,-0.9199,-0.8527,-0.7992,-0.7002,-0.639,-0.649,-0.6259,-0.6047,-0.5976,-0.5762,-0.5633,-0.5579,-0.5525,-0.5439,-0.5432,-0.5428,-0.5428,-0.5428,-0.5428,-0.5428,-0.5428,-0.5428,-0.5428,-0.5428,-0.5428,-0.5428,-0.5428,-0.5428,-0.5428,-0.5428,-0.5428,-0.5428,-0.5428,-0.5428,-0.5428,-0.5428,-0.5428,-0.5428,-0.5428,-0.5428,-0.5425,-0.5425,-0.5554,-0.5547,-0.5481,-0.5488,-0.5425,-0.5428,-0.5428,-0.5425,-0.5428,-0.5428,-0.5428,-0.5428,-0.5428,-0.5428,-0.5359,-0.5223,-0.5027,-0.4831,-0.4697,-0.4498,-0.4431,-0.4367,-0.43,-0.4097,-0.3894,-0.3694,-0.3424,-0.2891,-0.2285,-0.1748,-0.1338,-0.0867,0.0,0.0,0.0,0.0,0.0,0.0175,0.0401,0.0682,0.0957,0.1178,0.1291,0.1515,-1.2898,-1.2978,-1.3064,-1.2953,-1.2609,-1.2428,-1.2102,-1.1715,-1.1639,-1.1505,-1.13,-1.1267,-1.1354,-1.1267,-1.1359,-1.1564,-1.1934,-1.2026,-1.1973,-1.2118,-1.1995,-1.172,-1.1332,-1.1094,-1.1008,-1.0916,-1.0651,-1.0386,-1.0024,-0.9591,-0.8968,-0.8098,-0.7527,-0.6953,-0.6648,-0.6521,-0.6287,-0.6044,-0.5969,-0.5793,-0.562,-0.5562,-0.5471,-0.5435,-0.5432,-0.5432,-0.5428,-0.5428,-0.5428,-0.5428,-0.5428,-0.5428,-0.5428,-0.5428,-0.5428,-0.5428,-0.5428,-0.5428,-0.5428,-0.5428,-0.5428,-0.5428,-0.5428,-0.5428,-0.5428,-0.5428,-0.5428,-0.5428,-0.5428,-0.5428,-0.5557,-0.5631,-0.5627,-0.5752,-0.5785,-0.5708,-0.569,-0.562,-0.555,-0.555,-0.5422,-0.5425,-0.5428,-0.5428,-0.5428,-0.5359,-0.5093,-0.4894,-0.4761,-0.4567,-0.4367,-0.4367,-0.43,-0.43,-0.4167,-0.403,-0.3825,-0.3623,-0.3088,-0.242,-0.1883,-0.1412,-0.0805,0.0,0.0,0.0,0.0,0.0,0.0418,0.0526,0.069,0.0971,0.1185,0.1349,0.1629,-1.3402,-1.3518,-1.3476,-1.3363,-1.3126,-1.3019,-1.2713,-1.2348,-1.2132,-1.1894,-1.1756,-1.1646,-1.1607,-1.1613,-1.1613,-1.1811,-1.2231,-1.2265,-1.2224,-1.221,-1.2026,-1.1688,-1.1332,-1.1181,-1.1094,-1.1094,-1.0916,-1.0651,-1.0371,-1.0,-0.9413,-0.8805,-0.8114,-0.7537,-0.7144,-0.674,-0.6524,-0.628,-0.6143,-0.5932,-0.5786,-0.5708,-0.5599,-0.5491,-0.5457,-0.5437,-0.5442,-0.5428,-0.5428,-0.5428,-0.5428,-0.5428,-0.5428,-0.5428,-0.5428,-0.5428,-0.5428,-0.5428,-0.5428,-0.5428,-0.5428,-0.5428,-0.5428,-0.5428,-0.5428,-0.5428,-0.5428,-0.5488,-0.5543,-0.5649,-0.5869,-0.5977,-0.6287,-0.6591,-0.6643,-0.6447,-0.5981,-0.5756,-0.5686,-0.5617,-0.555,-0.5491,-0.5428,-0.5432,-0.5362,-0.5226,-0.5027,-0.4827,-0.4694,-0.4434,-0.4303,-0.4303,-0.4303,-0.4303,-0.4233,-0.4097,-0.3828,-0.3689,-0.3088,-0.242,-0.195,-0.1414,-0.0942,-0.0402,-0.0199,0.0065,0.0192,0.044,0.0742,0.0847,0.0887,0.0989,0.1212,0.1376,0.1656,-1.3702,-1.3931,-1.3738,-1.3539,-1.3494,-1.3389,-1.3168,-1.3054,-1.266,-1.2354,-1.2258,-1.2059,-1.1957,-1.1957,-1.1871,-1.2093,-1.2426,-1.236,-1.2378,-1.2231,-1.2048,-1.1625,-1.1467,-1.1348,-1.1267,-1.1262,-1.1094,-1.1008,-1.0824,-1.0376,-1.0005,-0.9447,-0.8669,-0.8085,-0.7569,-0.7028,-0.6648,-0.6528,-0.6208,-0.6047,-0.5969,-0.5874,-0.5759,-0.5637,-0.5613,-0.5559,-0.5474,-0.5433,-0.543,-0.5483,-0.5446,-0.5428,-0.5428,-0.5428,-0.5428,-0.5428,-0.5428,-0.5428,-0.5428,-0.5428,-0.5446,-0.5463,-0.5466,-0.5396,-0.55,-0.5525,-0.5595,-0.5659,-0.587,-0.6076,-0.6244,-0.6635,-0.7103,-0.746,-0.7783,-0.7277,-0.6435,-0.6074,-0.5937,-0.5796,-0.574,-0.5603,-0.554,-0.5476,-0.542,-0.532,-0.5089,-0.4869,-0.4716,-0.4495,-0.4406,-0.4303,-0.4303,-0.4303,-0.43,-0.4233,-0.3961,-0.3625,-0.3023,-0.2421,-0.195,-0.1481,-0.1077,-0.0671,-0.0333,-0.0066,0.0065,0.0386,0.0761,0.0999,0.0977,0.1145,0.1314,0.1367,0.1597,-1.4154,-1.4208,-1.4208,-1.4016,-1.3823,-1.3771,-1.353,-1.3222,-1.2825,-1.258,-1.2392,-1.2152,-1.2043,-1.2043,-1.2049,-1.218,-1.2369,-1.2386,-1.2365,-1.2348,-1.2063,-1.1939,-1.1785,-1.1521,-1.1348,-1.1262,-1.1267,-1.1181,-1.1008,-1.0814,-1.0378,-0.9747,-0.922,-0.8504,-0.7848,-0.7293,-0.6791,-0.6633,-0.6371,-0.6142,-0.6057,-0.601,-0.5911,-0.5772,-0.5749,-0.5739,-0.5718,-0.5708,-0.5708,-0.5657,-0.5508,-0.5466,-0.5463,-0.5452,-0.5459,-0.5463,-0.5449,-0.5442,-0.5435,-0.5459,-0.5487,-0.56,-0.5614,-0.5589,-0.5701,-0.5832,-0.5913,-0.6064,-0.6302,-0.6529,-0.6766,-0.7279,-0.7771,-0.816,-0.8075,-0.7886,-0.7495,-0.7036,-0.6732,-0.6596,-0.6382,-0.6124,-0.598,-0.5892,-0.5755,-0.5493,-0.5252,-0.5014,-0.4763,-0.4579,-0.448,-0.4382,-0.4271,-0.4276,-0.4333,-0.4188,-0.3961,-0.3692,-0.3092,-0.249,-0.2085,-0.1681,-0.1279,-0.0876,-0.0404,-0.02,-0.0,0.0065,0.0387,0.07,0.1008,0.1182,0.1294,0.1412,0.1641,-1.4298,-1.4298,-1.4298,-1.4208,-1.4112,-1.4112,-1.3868,-1.3508,-1.3256,-1.3009,-1.2751,-1.2486,-1.2289,-1.2289,-1.2295,-1.2457,-1.2458,-1.2406,-1.24,-1.229,-1.2089,-1.1963,-1.1952,-1.178,-1.1607,-1.1607,-1.1613,-1.1527,-1.1354,-1.1165,-1.0854,-1.0308,-0.9666,-0.9064,-0.8367,-0.7695,-0.7184,-0.6799,-0.6563,-0.6367,-0.6152,-0.6135,-0.6064,-0.5915,-0.5844,-0.58,-0.5793,-0.5796,-0.5796,-0.5762,-0.5654,-0.5569,-0.5569,-0.5566,-0.5562,-0.5569,-0.5569,-0.5569,-0.5569,-0.5572,-0.5606,-0.5751,-0.5835,-0.5874,-0.6001,-0.6097,-0.6309,-0.6542,-0.6805,-0.7086,-0.7453,-0.8001,-0.8529,-0.8763,-0.868,-0.8524,-0.8427,-0.7857,-0.7166,-0.7023,-0.6785,-0.6504,-0.638,-0.6281,-0.6039,-0.5711,-0.5343,-0.5104,-0.4953,-0.4771,-0.4613,-0.4504,-0.4357,-0.4322,-0.4308,-0.4211,-0.3897,-0.3625,-0.3293,-0.2758,-0.2288,-0.1951,-0.1548,-0.1078,-0.0606,-0.027,-0.0067,-0.0,0.0,0.0525,0.0847,0.1091,0.1269,0.139,0.1682,-1.4394,-1.4394,-1.4298,-1.4298,-1.4298,-1.4298,-1.4147,-1.3888,-1.3622,-1.3273,-1.3103,-1.2831,-1.2619,-1.2705,-1.2619,-1.2705,-1.2625,-1.2552,-1.2496,-1.2392,-1.2307,-1.2203,-1.2203,-1.2123,-1.2118,-1.2123,-1.1957,-1.1871,-1.1693,-1.151,-1.1241,-1.0864,-1.0174,-0.9511,-0.8991,-0.8248,-0.7497,-0.7042,-0.6714,-0.6483,-0.6321,-0.6318,-0.6173,-0.6146,-0.605,-0.6061,-0.6061,-0.6054,-0.6033,-0.594,-0.5943,-0.5943,-0.5933,-0.581,-0.58,-0.5789,-0.5837,-0.5898,-0.5891,-0.5915,-0.5929,-0.5971,-0.606,-0.623,-0.6252,-0.6499,-0.6795,-0.7037,-0.74,-0.7816,-0.8429,-0.8788,-0.9195,-0.9448,-0.9387,-0.9322,-0.918,-0.8392,-0.7907,-0.7432,-0.7338,-0.7143,-0.6822,-0.654,-0.627,-0.5867,-0.5501,-0.5201,-0.505,-0.4893,-0.4731,-0.4682,-0.4531,-0.4381,-0.4428,-0.4277,-0.3954,-0.3703,-0.3433,-0.3029,-0.256,-0.2154,-0.1749,-0.1278,-0.0808,-0.0472,0.0,0.0,0.0,0.0,0.0804,0.112,0.1306,0.1429,0.1729,-1.4592,-1.4592,-1.4394,-1.4298,-1.4298,-1.4298,-1.4135,-1.3888,-1.361,-1.3363,-1.3097,-1.2837,-1.2705,-1.2705,-1.2705,-1.2705,-1.2699,-1.2619,-1.2619,-1.2619,-1.2534,-1.2534,-1.254,-1.2454,-1.2534,-1.2454,-1.2289,-1.2037,-1.1957,-1.178,-1.1516,-1.1112,-1.0444,-0.9814,-0.9196,-0.8412,-0.7774,-0.7382,-0.6957,-0.6641,-0.6563,-0.6409,-0.6402,-0.6423,-0.6446,-0.6515,-0.6605,-0.6692,-0.6703,-0.6707,-0.6703,-0.6695,-0.6557,-0.6159,-0.5923,-0.5913,-0.5995,-0.6154,-0.6299,-0.6266,-0.6538,-0.6699,-0.6667,-0.6656,-0.6802,-0.7064,-0.7326,-0.7656,-0.8134,-0.8661,-0.9241,-0.9392,-0.9549,-0.9711,-0.9706,-0.9625,-0.9523,-0.9225,-0.8767,-0.8435,-0.8098,-0.7731,-0.7305,-0.6982,-0.6675,-0.6289,-0.5842,-0.5432,-0.5176,-0.501,-0.4842,-0.4781,-0.4706,-0.4553,-0.4482,-0.433,-0.4089,-0.3806,-0.3583,-0.3238,-0.2833,-0.2424,-0.2018,-0.1547,-0.1076,-0.074,0.0,0.0,0.0,0.0,0.0808,0.1144,0.1267,0.1386,0.1791,-1.4842,-1.4885,-1.479,-1.4694,-1.4663,-1.4438,-1.4135,-1.3872,-1.3519,-1.3157,-1.2928,-1.2765,-1.2705,-1.2705,-1.2705,-1.2705,-1.2705,-1.2705,-1.2705,-1.2705,-1.2705,-1.2705,-1.2705,-1.2705,-1.2705,-1.2619,-1.2454,-1.2289,-1.2203,-1.1952,-1.1693,-1.1408,-1.0792,-1.0293,-0.9659,-0.9055,-0.828,-0.7725,-0.7305,-0.6945,-0.6791,-0.6641,-0.6718,-0.6714,-0.6791,-0.6788,-0.6865,-0.6865,-0.6861,-0.6857,-0.6861,-0.6945,-0.6893,-0.6742,-0.6477,-0.6396,-0.6466,-0.6552,-0.6634,-0.663,-0.6753,-0.7044,-0.7052,-0.7159,-0.7375,-0.7698,-0.8016,-0.8322,-0.8703,-0.9316,-0.9625,-0.9846,-1.0003,-1.0235,-1.0154,-1.0073,-0.9992,-0.9771,-0.9539,-0.9236,-0.8737,-0.8263,-0.7833,-0.7443,-0.7088,-0.6718,-0.6257,-0.5819,-0.5372,-0.5121,-0.4944,-0.4836,-0.4768,-0.4675,-0.4602,-0.4498,-0.4312,-0.402,-0.3766,-0.3485,-0.3125,-0.2788,-0.2366,-0.1884,-0.148,-0.1014,0.0,0.0,0.0,0.0405,0.0809,0.1145,0.1211,0.1412,0.1748,-1.5278,-1.5363,-1.5274,-1.514,-1.5057,-1.4665,-1.4191,-1.3795,-1.3401,-1.3069,-1.2808,-1.2705,-1.2705,-1.2705,-1.2705,-1.2705,-1.2705,-1.2705,-1.2705,-1.2705,-1.2705,-1.2705,-1.2705,-1.2705,-1.2705,-1.2705,-1.2619,-1.2619,-1.2448,-1.2203,-1.1952,-1.1688,-1.1257,-1.0797,-1.0134,-0.9567,-0.8828,-0.8312,-0.7659,-0.7334,-0.7099,-0.6942,-0.6942,-0.7019,-0.7015,-0.7096,-0.7249,-0.7249,-0.7249,-0.7249,-0.7253,-0.7253,-0.7334,-0.7411,-0.733,-0.7249,-0.7096,-0.7092,-0.708,-0.7073,-0.7202,-0.746,-0.7553,-0.7787,-0.7936,-0.8246,-0.8703,-0.9084,-0.9392,-0.9695,-0.9922,-1.0143,-1.0374,-1.0524,-1.0519,-1.0438,-1.0368,-1.0143,-0.9916,-0.9609,-0.9155,-0.8775,-0.8322,-0.7868,-0.7484,-0.6949,-0.649,-0.5948,-0.5582,-0.536,-0.5192,-0.5038,-0.4909,-0.4811,-0.4741,-0.4694,-0.4485,-0.4255,-0.4084,-0.3862,-0.3546,-0.3172,-0.2742,-0.2327,-0.1774,-0.1369,-0.1019,-0.0607,-0.0135,0.0337,0.0809,0.1078,0.1144,0.1344,0.1681,-1.6016,-1.6001,-1.5818,-1.549,-1.5086,-1.4922,-1.4508,-1.3806,-1.3555,-1.3306,-1.3052,-1.2875,-1.2705,-1.2705,-1.2705,-1.2705,-1.2705,-1.2705,-1.2705,-1.2705,-1.2705,-1.2705,-1.2705,-1.2705,-1.2705,-1.2705,-1.2705,-1.2705,-1.2619,-1.2454,-1.2203,-1.1952,-1.1494,-1.1048,-1.0616,-0.9897,-0.9228,-0.8876,-0.8198,-0.7561,-0.7257,-0.7099,-0.7173,-0.7326,-0.7484,-0.7561,-0.7791,-0.7868,-0.7868,-0.7944,-0.7949,-0.7949,-0.8025,-0.8025,-0.8102,-0.8097,-0.794,-0.7706,-0.771,-0.7791,-0.7868,-0.8021,-0.8174,-0.8327,-0.8479,-0.8703,-0.916,-0.9468,-0.9771,-0.9997,-1.0143,-1.0368,-1.0443,-1.0519,-1.0594,-1.0588,-1.0513,-1.0368,-1.0218,-0.9992,-0.9614,-0.916,-0.8703,-0.825,-0.7791,-0.7257,-0.6718,-0.6177,-0.5792,-0.5479,-0.5246,-0.5079,-0.4993,-0.4906,-0.4866,-0.4822,-0.4672,-0.4432,-0.4339,-0.418,-0.3843,-0.3523,-0.3174,-0.2744,-0.217,-0.1666,-0.1172,-0.0752,-0.0203,0.0337,0.0809,0.101,0.1076,0.1344,0.1681,-1.6758,-1.6494,-1.633,-1.6075,-1.5817,-1.5217,-1.4661,-1.4167,-1.3812,-1.3512,-1.3241,-1.3137,-1.3052,-1.296,-1.279,-1.2705,-1.2705,-1.2705,-1.2705,-1.2705,-1.2705,-1.2705,-1.2705,-1.2705,-1.2705,-1.2705,-1.2705,-1.2705,-1.2619,-1.2534,-1.2283,-1.2198,-1.1774,-1.1391,-1.1059,-1.0439,-0.9901,-0.9332,-0.8673,-0.8034,-0.7795,-0.7638,-0.7638,-0.7872,-0.7872,-0.8021,-0.8174,-0.825,-0.8327,-0.8403,-0.8475,-0.8475,-0.8551,-0.8627,-0.8708,-0.8865,-0.8784,-0.8551,-0.8322,-0.8403,-0.8479,-0.8632,-0.8861,-0.9022,-0.9089,-0.9311,-0.9614,-0.9916,-1.0143,-1.0293,-1.0443,-1.0588,-1.0738,-1.0743,-1.0743,-1.0818,-1.0738,-1.0513,-1.0368,-1.0218,-1.0008,-0.9596,-0.9163,-0.8789,-0.8227,-0.7484,-0.7026,-0.6644,-0.6103,-0.5634,-0.5326,-0.5015,-0.5007,-0.4982,-0.4963,-0.4936,-0.4868,-0.4641,-0.4535,-0.4357,-0.4217,-0.3898,-0.3547,-0.3105,-0.2584,-0.2061,-0.1474,-0.0829,-0.0341,0.0271,0.0809,0.0944,0.1146,0.1344,0.1681,-1.7376,-1.7048,-1.6794,-1.6613,-1.64,-1.5552,-1.4981,-1.4634,-1.4175,-1.3822,-1.3568,-1.3476,-1.3307,-1.3137,-1.2966,-1.279,-1.279,-1.2705,-1.2705,-1.2705,-1.2705,-1.2705,-1.2705,-1.2705,-1.2705,-1.2705,-1.2705,-1.2705,-1.2619,-1.2534,-1.2448,-1.2357,-1.2112,-1.1763,-1.1445,-1.0984,-1.0481,-0.9742,-0.8946,-0.8489,-0.8327,-0.8255,-0.825,-0.8322,-0.8322,-0.8403,-0.8556,-0.8632,-0.8708,-0.8932,-0.8932,-0.9084,-0.916,-0.9231,-0.9311,-0.9468,-0.9468,-0.9387,-0.916,-0.9084,-0.9008,-0.9165,-0.9392,-0.963,-0.9771,-0.9997,-1.0067,-1.0218,-1.0438,-1.0594,-1.0743,-1.0812,-1.0887,-1.0962,-1.1043,-1.1117,-1.1055,-1.0715,-1.0551,-1.0537,-1.0341,-0.9983,-0.9611,-0.9291,-0.8686,-0.7816,-0.733,-0.6957,-0.6412,-0.5715,-0.5404,-0.5093,-0.5015,-0.501,-0.5007,-0.4988,-0.4939,-0.4838,-0.473,-0.4631,-0.4422,-0.417,-0.3874,-0.3411,-0.2943,-0.24,-0.1724,-0.1123,-0.0412,0.0206,0.0685,0.095,0.1149,0.1415,0.1681,-1.7885,-1.779,-1.7502,-1.7108,-1.6581,-1.6257,-1.5716,-1.5084,-1.4762,-1.4405,-1.4082,-1.3652,-1.3476,-1.3307,-1.3222,-1.3058,-1.3058,-1.2796,-1.279,-1.2705,-1.2705,-1.2705,-1.2705,-1.2705,-1.2705,-1.2705,-1.2705,-1.2705,-1.2705,-1.2705,-1.2534,-1.2363,-1.2277,-1.2112,-1.1872,-1.1438,-1.0865,-1.0121,-0.9411,-0.9032,-0.8937,-0.8856,-0.8775,-0.8927,-0.8927,-0.9003,-0.9246,-0.9246,-0.9316,-0.9544,-0.9544,-0.9614,-0.9765,-0.976,-0.9916,-0.9992,-1.0067,-1.0062,-0.9992,-0.962,-0.9316,-0.9392,-0.962,-0.9997,-1.0218,-1.0368,-1.0438,-1.0519,-1.0663,-1.0738,-1.0887,-1.0974,-1.1103,-1.1139,-1.1268,-1.1317,-1.1158,-1.0895,-1.0735,-1.0767,-1.0601,-1.0247,-0.9968,-0.9657,-0.9109,-0.8299,-0.7398,-0.7013,-0.6423,-0.5792,-0.5479,-0.5246,-0.5093,-0.5015,-0.5015,-0.4996,-0.4977,-0.4974,-0.4881,-0.4809,-0.465,-0.4397,-0.4042,-0.3646,-0.3238,-0.2604,-0.2065,-0.146,-0.0792,0.007,0.0627,0.097,0.1161,0.1352,0.1685,-1.8426,-1.8361,-1.7921,-1.7595,-1.7146,-1.6598,-1.6111,-1.5688,-1.5409,-1.5075,-1.4671,-1.423,-1.3984,-1.3822,-1.3568,-1.3398,-1.3313,-1.3052,-1.2966,-1.2881,-1.279,-1.2705,-1.2705,-1.2705,-1.2705,-1.2705,-1.2705,-1.2705,-1.2705,-1.2705,-1.2705,-1.2619,-1.2534,-1.2363,-1.2116,-1.1865,-1.1297,-1.077,-1.0172,-0.9842,-0.9544,-0.9463,-0.9458,-0.9533,-0.9539,-0.969,-0.9846,-0.9846,-0.9992,-1.0067,-1.0143,-1.0143,-1.0212,-1.0293,-1.0293,-1.0368,-1.0443,-1.0443,-1.0519,-1.0223,-1.0067,-1.0073,-1.0223,-1.0368,-1.0513,-1.0588,-1.0669,-1.0743,-1.083,-1.1004,-1.1061,-1.1193,-1.1395,-1.1413,-1.1461,-1.1522,-1.1379,-1.1105,-1.0947,-1.1022,-1.0743,-1.045,-1.0251,-1.004,-0.9465,-0.8804,-0.7874,-0.7066,-0.6489,-0.5977,-0.5668,-0.5341,-0.5182,-0.5018,-0.5018,-0.5018,-0.5018,-0.5018,-0.5018,-0.494,-0.4781,-0.4538,-0.4185,-0.3866,-0.3396,-0.2832,-0.2287,-0.191,-0.1127,-0.0073,0.0573,0.0995,0.1186,0.1297,0.1567,-1.8709,-1.87,-1.8371,-1.8023,-1.7631,-1.6998,-1.6566,-1.6409,-1.6154,-1.5741,-1.5249,-1.4824,-1.4573,-1.4328,-1.4075,-1.3815,-1.3652,-1.3398,-1.3307,-1.3137,-1.3052,-1.2875,-1.2875,-1.2875,-1.2875,-1.279,-1.2796,-1.2796,-1.2875,-1.2875,-1.296,-1.2881,-1.279,-1.2705,-1.2565,-1.22,-1.1782,-1.1445,-1.1027,-1.0693,-1.0251,-1.0143,-1.0143,-1.0067,-1.0067,-1.0067,-1.0143,-1.0218,-1.0363,-1.0438,-1.0513,-1.0594,-1.0663,-1.0663,-1.0663,-1.0669,-1.0669,-1.0669,-1.0669,-1.0519,-1.0513,-1.0519,-1.0513,-1.0588,-1.0663,-1.0824,-1.0911,-1.1041,-1.1181,-1.1262,-1.131,-1.1546,-1.1642,-1.1667,-1.1721,-1.1775,-1.1629,-1.1459,-1.133,-1.1283,-1.0985,-1.0696,-1.0642,-1.0424,-0.9591,-0.8996,-0.8214,-0.748,-0.6889,-0.6351,-0.5805,-0.5544,-0.5202,-0.511,-0.5018,-0.5023,-0.5026,-0.5018,-0.5018,-0.5018,-0.4859,-0.4621,-0.4384,-0.4133,-0.3665,-0.2978,-0.2422,-0.2017,-0.1066,-0.0,0.0586,0.1155,0.1219,0.1268,0.1469,-1.87,-1.8709,-1.8692,-1.846,-1.801,-1.7563,-1.7229,-1.7057,-1.673,-1.6312,-1.5741,-1.5325,-1.5166,-1.4999,-1.4657,-1.4321,-1.4082,-1.3828,-1.3652,-1.3476,-1.3313,-1.3392,-1.3307,-1.3137,-1.3052,-1.3052,-1.3052,-1.3052,-1.3137,-1.3222,-1.3307,-1.3307,-1.3222,-1.3222,-1.3027,-1.2791,-1.2525,-1.2258,-1.1835,-1.1348,-1.0994,-1.0848,-1.0738,-1.0669,-1.0588,-1.0588,-1.0588,-1.0588,-1.0663,-1.0738,-1.0738,-1.0812,-1.0962,-1.0962,-1.1037,-1.1043,-1.1043,-1.1043,-1.1049,-1.0743,-1.0686,-1.0761,-1.0848,-1.0889,-1.0998,-1.1097,-1.1211,-1.142,-1.1522,-1.1636,-1.1769,-1.1896,-1.1902,-1.1938,-1.1999,-1.1996,-1.1939,-1.1706,-1.1646,-1.146,-1.1249,-1.1052,-1.0942,-1.0641,-0.9836,-0.9099,-0.8474,-0.7823,-0.7286,-0.6651,-0.608,-0.5737,-0.5385,-0.5214,-0.5121,-0.5056,-0.5034,-0.5026,-0.5018,-0.5018,-0.4859,-0.4621,-0.4465,-0.4309,-0.3763,-0.2981,-0.2512,-0.2118,-0.0847,0.0303,0.0741,0.117,0.1238,0.1304,0.1433,-1.9073,-1.9073,-1.8922,-1.8763,-1.8594,-1.804,-1.7708,-1.7627,-1.7212,-1.6804,-1.6566,-1.6154,-1.5831,-1.5665,-1.5325,-1.4985,-1.4755,-1.4321,-1.4062,-1.3906,-1.3737,-1.3483,-1.3398,-1.3398,-1.3313,-1.3313,-1.3307,-1.3307,-1.3307,-1.3398,-1.3398,-1.3398,-1.3568,-1.3483,-1.3294,-1.3174,-1.3035,-1.277,-1.2412,-1.2058,-1.1713,-1.1527,-1.1347,-1.1273,-1.1186,-1.1111,-1.1037,-1.1043,-1.0962,-1.0962,-1.0962,-1.1037,-1.1111,-1.1117,-1.1117,-1.1117,-1.1123,-1.1208,-1.1317,-1.1224,-1.1135,-1.1099,-1.1141,-1.1306,-1.1389,-1.157,-1.1691,-1.1757,-1.1787,-1.1866,-1.1896,-1.2095,-1.2168,-1.2234,-1.2312,-1.2368,-1.2253,-1.2001,-1.1793,-1.1645,-1.1417,-1.1048,-1.0869,-1.0727,-1.0057,-0.9383,-0.8674,-0.8042,-0.7481,-0.685,-0.6207,-0.5879,-0.5618,-0.5434,-0.5241,-0.5173,-0.5135,-0.5137,-0.508,-0.5018,-0.4859,-0.4661,-0.4482,-0.4415,-0.3696,-0.2982,-0.2434,-0.1726,-0.0391,0.0618,0.0984,0.1197,0.1271,0.133,0.138,-1.9292,-1.9301,-1.9143,-1.9073,-1.8993,-1.8514,-1.8201,-1.7959,-1.7546,-1.7302,-1.7139,-1.6804,-1.6558,-1.6319,-1.5989,-1.5658,-1.5423,-1.4992,-1.465,-1.4412,-1.4153,-1.3984,-1.3815,-1.3652,-1.3568,-1.3568,-1.3483,-1.3483,-1.3476,-1.3568,-1.3652,-1.3743,-1.3737,-1.3737,-1.3646,-1.3607,-1.349,-1.3238,-1.2985,-1.2672,-1.2293,-1.1974,-1.1752,-1.1521,-1.1409,-1.149,-1.1502,-1.1428,-1.126,-1.1111,-1.1117,-1.1117,-1.1117,-1.1117,-1.1117,-1.1117,-1.1151,-1.1258,-1.139,-1.1733,-1.157,-1.1479,-1.1588,-1.1648,-1.1679,-1.1781,-1.1926,-1.2005,-1.2047,-1.2119,-1.2192,-1.2391,-1.2421,-1.2487,-1.2445,-1.2577,-1.2339,-1.2072,-1.1821,-1.1682,-1.1435,-1.1084,-1.0819,-1.0641,-1.0331,-0.9602,-0.8962,-0.8316,-0.7689,-0.7056,-0.6431,-0.6095,-0.573,-0.5521,-0.5328,-0.529,-0.526,-0.5252,-0.5186,-0.511,-0.4991,-0.4882,-0.4659,-0.4367,-0.3665,-0.2947,-0.2205,-0.1255,-0.0157,0.0627,0.1162,0.1307,0.1304,0.1363,0.134,-1.9301,-1.9292,-1.9292,-1.9292,-1.9222,-1.8843,-1.8451,-1.8031,-1.804,-1.7797,-1.7473,-1.7302,-1.7139,-1.7057,-1.664,-1.6319,-1.5997,-1.565,-1.5318,-1.5075,-1.4741,-1.4566,-1.4398,-1.4159,-1.399,-1.3815,-1.3815,-1.3899,-1.373,-1.3822,-1.3997,-1.4004,-1.3997,-1.3997,-1.4004,-1.3971,-1.3858,-1.3609,-1.3349,-1.2987,-1.2479,-1.2222,-1.179,-1.1502,-1.1341,-1.1422,-1.1434,-1.1353,-1.1186,-1.1111,-1.1117,-1.1117,-1.1117,-1.1117,-1.1117,-1.1121,-1.1147,-1.1325,-1.1594,-1.1958,-1.2055,-1.1926,-1.1962,-1.1962,-1.1962,-1.2023,-1.218,-1.2276,-1.233,-1.2475,-1.2608,-1.2626,-1.2644,-1.2662,-1.2662,-1.2534,-1.2369,-1.2112,-1.1854,-1.1693,-1.1435,-1.117,-1.0819,-1.0641,-1.0381,-0.9758,-0.9205,-0.8752,-0.8041,-0.7382,-0.6837,-0.6227,-0.5928,-0.5597,-0.5485,-0.5407,-0.5382,-0.5374,-0.5333,-0.5279,-0.516,-0.4994,-0.4685,-0.4315,-0.3739,-0.2997,-0.2177,-0.112,-0.0079,0.0633,0.119,0.133,0.1324,0.1325,0.1389,-1.939,-1.9292,-1.9292,-1.9292,-1.9292,-1.9152,-1.8834,-1.8531,-1.8531,-1.8371,-1.8299,-1.7878,-1.7708,-1.7716,-1.7131,-1.6812,-1.6476,-1.6229,-1.5899,-1.5567,-1.5318,-1.5068,-1.4908,-1.4657,-1.4496,-1.4405,-1.4405,-1.4321,-1.4153,-1.4159,-1.4088,-1.4088,-1.4082,-1.4082,-1.4088,-1.4088,-1.4015,-1.3838,-1.3602,-1.3137,-1.2647,-1.2285,-1.1884,-1.1608,-1.1422,-1.1502,-1.1428,-1.1347,-1.1186,-1.1111,-1.1111,-1.1117,-1.1117,-1.1123,-1.1154,-1.1395,-1.145,-1.1582,-1.2011,-1.2161,-1.234,-1.2385,-1.2427,-1.2343,-1.2318,-1.233,-1.2463,-1.2506,-1.253,-1.2626,-1.2668,-1.2687,-1.2705,-1.2619,-1.254,-1.2369,-1.2203,-1.1952,-1.1785,-1.1527,-1.1348,-1.117,-1.0819,-1.0733,-1.0472,-0.9864,-0.9345,-0.8995,-0.8448,-0.7683,-0.7131,-0.6508,-0.6144,-0.5726,-0.5553,-0.5561,-0.5523,-0.5491,-0.5458,-0.5336,-0.5152,-0.4888,-0.4689,-0.4165,-0.3483,-0.2818,-0.2073,-0.1068,-0.0081,0.0653,0.1226,0.1284,0.1344,0.1342,0.1338,-1.9636,-1.939,-1.9399,-1.939,-1.9292,-1.9292,-1.9152,-1.8922,-1.8851,-1.8772,-1.8692,-1.8371,-1.821,-1.8121,-1.7708,-1.7302,-1.7131,-1.6804,-1.6558,-1.6312,-1.5891,-1.5733,-1.5492,-1.5242,-1.4985,-1.4908,-1.4824,-1.465,-1.4566,-1.4405,-1.4334,-1.4243,-1.4153,-1.4075,-1.4082,-1.4088,-1.4004,-1.3847,-1.3638,-1.3238,-1.2804,-1.2371,-1.2016,-1.1683,-1.1577,-1.1428,-1.1341,-1.126,-1.1186,-1.1111,-1.1117,-1.1117,-1.1154,-1.1208,-1.1304,-1.1546,-1.1714,-1.1888,-1.2228,-1.2403,-1.2548,-1.265,-1.2699,-1.2608,-1.2566,-1.2566,-1.2626,-1.2668,-1.2681,-1.2699,-1.2699,-1.2705,-1.2619,-1.254,-1.2454,-1.2283,-1.2037,-1.1785,-1.1613,-1.1354,-1.1176,-1.1084,-1.0906,-1.0819,-1.0559,-0.9951,-0.9519,-0.917,-0.864,-0.791,-0.7281,-0.6662,-0.6319,-0.5951,-0.5778,-0.567,-0.5638,-0.5605,-0.56,-0.5475,-0.517,-0.4903,-0.4649,-0.401,-0.3291,-0.2615,-0.2023,-0.1176,-0.0251,0.0503,0.1173,0.1322,0.1295,0.1351,0.1346,-1.9778,-1.958,-1.9627,-1.9478,-1.9292,-1.9292,-1.9301,-1.9283,-1.9018,-1.8895,-1.8763,-1.87,-1.8612,-1.8442,-1.8121,-1.787,-1.7619,-1.7294,-1.7131,-1.7139,-1.664,-1.6312,-1.6154,-1.5906,-1.5567,-1.5333,-1.5166,-1.5159,-1.4817,-1.4741,-1.458,-1.4398,-1.421,-1.4132,-1.4159,-1.4082,-1.3997,-1.3717,-1.3587,-1.3278,-1.2788,-1.2382,-1.2061,-1.1599,-1.1317,-1.1154,-1.1123,-1.1117,-1.1117,-1.1117,-1.1117,-1.1117,-1.125,-1.1419,-1.1546,-1.1648,-1.1942,-1.2134,-1.2397,-1.2554,-1.2632,-1.2693,-1.2699,-1.2681,-1.2668,-1.2662,-1.2693,-1.2705,-1.2705,-1.2705,-1.2705,-1.2619,-1.2534,-1.2454,-1.2283,-1.2118,-1.1866,-1.1699,-1.1527,-1.1354,-1.1267,-1.1084,-1.0819,-1.0733,-1.0554,-1.0038,-0.9694,-0.9345,-0.892,-0.8212,-0.7606,-0.6986,-0.6523,-0.6171,-0.5902,-0.58,-0.5719,-0.5708,-0.5609,-0.551,-0.5277,-0.4939,-0.4524,-0.3944,-0.3286,-0.257,-0.1963,-0.1198,-0.06,0.0086,0.0768,0.1186,0.1332,0.1303,0.1372,-1.9476,-1.9573,-1.9584,-1.9478,-1.9292,-1.9292,-1.9274,-1.9274,-1.8893,-1.8939,-1.9107,-1.8984,-1.8904,-1.8709,-1.8594,-1.8273,-1.7951,-1.787,-1.7627,-1.7383,-1.7057,-1.6886,-1.6812,-1.6394,-1.6147,-1.6072,-1.5914,-1.5582,-1.5318,-1.5075,-1.4908,-1.465,-1.4378,-1.43,-1.4321,-1.4159,-1.3906,-1.3568,-1.3464,-1.3271,-1.2787,-1.2398,-1.2035,-1.1703,-1.1437,-1.1304,-1.1238,-1.1135,-1.1123,-1.1117,-1.1117,-1.1226,-1.1425,-1.1685,-1.1914,-1.2107,-1.224,-1.2403,-1.2542,-1.2644,-1.2687,-1.2705,-1.2705,-1.2705,-1.2699,-1.2705,-1.2705,-1.2705,-1.2705,-1.2705,-1.2619,-1.2534,-1.2454,-1.2283,-1.2118,-1.1957,-1.171,-1.1559,-1.1467,-1.1386,-1.13,-1.1126,-1.0865,-1.0676,-1.0386,-1.0125,-0.9777,-0.9441,-0.9213,-0.8697,-0.8023,-0.7392,-0.6707,-0.6257,-0.5997,-0.5822,-0.5733,-0.5644,-0.5539,-0.5453,-0.5282,-0.4825,-0.437,-0.3838,-0.328,-0.2718,-0.2099,-0.159,-0.0972,-0.0175,0.0609,0.1297,0.1374,0.135,0.1338,-1.9551,-1.9435,-1.9298,-1.9096,-1.8933,-1.9037,-1.896,-1.8742,-1.8644,-1.8662,-1.8797,-1.8788,-1.8819,-1.8804,-1.8753,-1.8683,-1.8353,-1.8282,-1.8121,-1.7878,-1.7635,-1.7465,-1.7212,-1.6968,-1.6804,-1.6648,-1.6402,-1.6072,-1.5809,-1.5658,-1.5409,-1.5061,-1.4713,-1.4545,-1.4475,-1.423,-1.3899,-1.3568,-1.3483,-1.3218,-1.2875,-1.2508,-1.2228,-1.1908,-1.1739,-1.157,-1.1401,-1.1298,-1.1298,-1.1359,-1.1431,-1.154,-1.1739,-1.195,-1.2143,-1.2288,-1.2415,-1.2554,-1.2656,-1.2705,-1.2705,-1.2705,-1.2705,-1.2705,-1.2705,-1.2705,-1.2705,-1.2705,-1.2705,-1.2705,-1.2534,-1.2448,-1.2203,-1.2037,-1.1888,-1.1738,-1.1794,-1.1755,-1.1698,-1.1741,-1.1652,-1.1473,-1.1294,-1.1025,-1.0826,-1.0461,-1.006,-0.9938,-0.9665,-0.9255,-0.8555,-0.7829,-0.7151,-0.6459,-0.6083,-0.5911,-0.5733,-0.5644,-0.5489,-0.5292,-0.5027,-0.4572,-0.4117,-0.376,-0.3312,-0.286,-0.2326,-0.1794,-0.0987,-0.0178,0.0619,0.1412,0.1401,0.1393,0.1386,-1.9696,-1.918,-1.8922,-1.8656,-1.8489,-1.8712,-1.8573,-1.823,-1.8276,-1.8239,-1.8119,-1.8403,-1.8424,-1.8611,-1.874,-1.8824,-1.8763,-1.8683,-1.8523,-1.8362,-1.8201,-1.804,-1.7789,-1.7627,-1.7302,-1.7057,-1.6812,-1.664,-1.6468,-1.6237,-1.5906,-1.556,-1.5311,-1.5144,-1.4636,-1.4203,-1.3944,-1.3724,-1.3568,-1.3313,-1.2946,-1.2655,-1.2361,-1.2234,-1.2089,-1.1848,-1.1673,-1.1582,-1.1582,-1.1673,-1.1793,-1.1902,-1.2029,-1.221,-1.2312,-1.2457,-1.256,-1.265,-1.2705,-1.2705,-1.2705,-1.2705,-1.2705,-1.2705,-1.2705,-1.2711,-1.2711,-1.2679,-1.2679,-1.2667,-1.2496,-1.2347,-1.2106,-1.1989,-1.1849,-1.1789,-1.182,-1.1914,-1.1968,-1.2118,-1.1935,-1.1844,-1.1574,-1.1303,-1.1129,-1.0764,-1.0584,-1.0389,-1.0168,-0.9609,-0.9013,-0.8345,-0.7657,-0.7031,-0.634,-0.5981,-0.5828,-0.5665,-0.5509,-0.5175,-0.4777,-0.4523,-0.4156,-0.3764,-0.3317,-0.2964,-0.2424,-0.1885,-0.1076,-0.0269,0.0715,0.1424,0.1424,0.1418,0.1425,-1.9483,-1.9133,-1.9131,-1.8976,-1.8746,-1.8618,-1.8415,-1.8276,-1.7897,-1.7696,-1.7642,-1.7715,-1.7962,-1.8629,-1.8693,-1.8797,-1.8903,-1.8886,-1.8851,-1.862,-1.8531,-1.8531,-1.8362,-1.804,-1.7716,-1.7473,-1.7221,-1.7139,-1.6968,-1.673,-1.6484,-1.6147,-1.5621,-1.5379,-1.5144,-1.4706,-1.4196,-1.3977,-1.3737,-1.3483,-1.3137,-1.2771,-1.2506,-1.2385,-1.2264,-1.2071,-1.1926,-1.186,-1.1848,-1.1926,-1.2083,-1.2204,-1.2306,-1.2439,-1.2542,-1.2566,-1.2674,-1.2687,-1.2705,-1.2705,-1.2705,-1.2705,-1.2711,-1.2729,-1.2741,-1.2759,-1.2739,-1.2732,-1.2732,-1.2598,-1.2517,-1.2229,-1.2004,-1.2159,-1.2057,-1.2079,-1.2097,-1.2064,-1.22,-1.2216,-1.2124,-1.1847,-1.1482,-1.1301,-1.1213,-1.0846,-1.0669,-1.0576,-1.0412,-0.9992,-0.949,-0.8897,-0.8203,-0.7443,-0.6768,-0.6256,-0.5988,-0.5722,-0.543,-0.5007,-0.4697,-0.4503,-0.412,-0.3739,-0.3435,-0.3157,-0.2613,-0.1988,-0.1438,-0.0539,0.0628,0.1344,0.1346,0.1436,0.1436]}]]